Darstellungsparameter: Aktuell verwendete Einstellungen:
Skalierung der Graphiken ... ?
xyx+y,   Skalierungsfaktor:      Skalierung: Modus: x, Faktor: 1
Darstellungszeitraum ... ?
Vom - - bis: - -   Zeitraum: 25.04.2019 - 24.04.2020
Min/Max/Avg-Anzeige ... ?
Zeige MMA aktuell
Zeige MMA Monat
Zeige MMA alles
Zeige --A aktuell
Zeige --A Monat
Zeige --A alles
Keine MMA-Anzeige
MMA:
Keine MMA-Graphiken
MMA-Basis: 25.04.2019 - 24.04.2020
Quicknavigation für Darstellung... ?
Tage:      1T, 2T, 3T, 5T -1T -2T -3T -5T +1T +2T +3T +5T
Wochen: 1W, 2W, 3W -1W -2W -3W +1W +2W +3W
Monate: 1M, 3M, 6M -1M -3M -6M +1M +3M +6M
Jahre:    1J, 3J, 5J, 10J -1J -3J -5J -10J +1J +3J +5J +10J
Nutze für die Darstellung ... ?
Originaldaten oder ...
Mittelwerte Minima Maxima auf...
Stundenbasis Tagesbasis Wochenbasis
Monatsbasis Jahresbasis      Datenbasis: Mittelwerte auf Stundenbasis
Darstellen als:
Statistik (Auto) Statistik J:M      Darstellung:
Zur Graphik,    zurück zur Übersicht aller Sensoren.
 
Tabellarische Datenbersicht: ?
 
Sensor: Nr:Datum:Temp:Feuchte:Taupunkt:
Aussen-T/F 1 25-04-2019 00:00:00 8.85833 C 95.0000 % 8.1 C
2 25-04-2019 01:00:00 8.125 C 95.0000 % 7.37 C
3 25-04-2019 02:00:00 7.45 C 95.2500 % 6.74 C
4 25-04-2019 03:00:00 7.2 C 96.0000 % 6.61 C
5 25-04-2019 04:00:00 7.05833 C 96.0000 % 6.46 C
6 25-04-2019 05:00:00 7.10833 C 96.0000 % 6.51 C
7 25-04-2019 06:00:00 7.05833 C 96.7500 % 6.58 C
8 25-04-2019 07:00:00 7.85833 C 97.0000 % 7.41 C
9 25-04-2019 08:00:00 9.16667 C 97.0000 % 8.72 C
10 25-04-2019 09:00:00 10.63333 C 97.0000 % 10.18 C
11 25-04-2019 10:00:00 11.54167 C 95.9167 % 10.91 C
12 25-04-2019 11:00:00 14.14167 C 79.6667 % 10.68 C
13 25-04-2019 12:00:00 16.96667 C 64.0000 % 10.12 C
14 25-04-2019 13:00:00 18.6 C 58.7500 % 10.37 C
15 25-04-2019 14:00:00 20.25833 C 53.0000 % 10.38 C
16 25-04-2019 15:00:00 21.525 C 49.3333 % 10.47 C
17 25-04-2019 16:00:00 22.125 C 55.0000 % 12.66 C
18 25-04-2019 17:00:00 21.35 C 59.2500 % 13.08 C
19 25-04-2019 18:00:00 20.55833 C 54.9167 % 11.19 C
20 25-04-2019 19:00:00 16.88333 C 61.4167 % 9.42 C
21 25-04-2019 20:00:00 15.125 C 66.7500 % 8.99 C
22 25-04-2019 21:00:00 13.85 C 72.3333 % 8.96 C
23 25-04-2019 22:00:00 13.04167 C 74.6667 % 8.65 C
24 25-04-2019 23:00:00 12.425 C 78.3333 % 8.76 C
25 26-04-2019 00:00:00 11.39167 C 82.1667 % 8.46 C
Sensor: Nr:Datum:Temp:Feuchte:Taupunkt:
Aussen-T/F 26 26-04-2019 01:00:00 10.93333 C 85.2500 % 8.56 C
27 26-04-2019 02:00:00 11.00833 C 84.2500 % 8.46 C
28 26-04-2019 03:00:00 10.98333 C 83.0833 % 8.23 C
29 26-04-2019 04:00:00 10.8 C 83.6667 % 8.15 C
30 26-04-2019 05:00:00 10.4 C 86.9167 % 8.32 C
31 26-04-2019 06:00:00 9.625 C 92.0000 % 8.39 C
32 26-04-2019 07:00:00 9.5 C 93.9167 % 8.57 C
33 26-04-2019 08:00:00 9.50833 C 94.6667 % 8.7 C
34 26-04-2019 09:00:00 9.99167 C 95.0000 % 9.23 C
35 26-04-2019 10:00:00 10.275 C 94.9167 % 9.5 C
36 26-04-2019 11:00:00 10.88333 C 93.5000 % 9.88 C
37 26-04-2019 12:00:00 11.95833 C 88.6667 % 10.15 C
38 26-04-2019 13:00:00 13.00833 C 82.5000 % 10.1 C
39 26-04-2019 14:00:00 13.53333 C 78.1667 % 9.81 C
40 26-04-2019 15:00:00 13.525 C 76.6667 % 9.51 C
41 26-04-2019 16:00:00 15.06667 C 70.6667 % 9.78 C
42 26-04-2019 17:00:00 15.74167 C 66.0000 % 9.41 C
43 26-04-2019 18:00:00 16.925 C 62.0000 % 9.6 C
44 26-04-2019 19:00:00 15.84167 C 71.9167 % 10.79 C
45 26-04-2019 20:00:00 12.575 C 80.7500 % 9.36 C
46 26-04-2019 21:00:00 10.89167 C 87.0833 % 8.83 C
47 26-04-2019 22:00:00 10.45833 C 88.7500 % 8.68 C
48 26-04-2019 23:00:00 10.00833 C 90.3333 % 8.5 C
49 27-04-2019 00:00:00 9.20833 C 91.9167 % 7.96 C
50 27-04-2019 01:00:00 9.14167 C 93.0000 % 8.07 C
Sensor: Nr:Datum:Temp:Feuchte:Taupunkt:
Aussen-T/F 51 27-04-2019 02:00:00 8.575 C 93.0833 % 7.52 C
52 27-04-2019 03:00:00 7.875 C 94.0000 % 6.97 C
53 27-04-2019 04:00:00 7.18333 C 94.2500 % 6.32 C
54 27-04-2019 05:00:00 6.64167 C 94.9167 % 5.89 C
55 27-04-2019 06:00:00 6.425 C 95.4167 % 5.75 C
56 27-04-2019 07:00:00 7.15 C 96.0000 % 6.56 C
57 27-04-2019 08:00:00 8.66667 C 96.8333 % 8.19 C
58 27-04-2019 09:00:00 10.16667 C 94.8333 % 9.38 C
59 27-04-2019 10:00:00 11.30833 C 87.6667 % 9.34 C
60 27-04-2019 11:00:00 12.64167 C 76.5000 % 8.62 C
61 27-04-2019 12:00:00 12.69167 C 81.5833 % 9.63 C
62 27-04-2019 13:00:00 13.025 C 77.9167 % 9.27 C
63 27-04-2019 14:00:00 9.525 C 90.0000 % 7.97 C
64 27-04-2019 15:00:00 10.46667 C 90.0000 % 8.9 C
65 27-04-2019 16:00:00 11.75 C 81.7500 % 8.74 C
66 27-04-2019 17:00:00 12.35 C 78.5833 % 8.74 C
67 27-04-2019 18:00:00 11.34167 C 80.3333 % 8.08 C
68 27-04-2019 19:00:00 9.55833 C 90.0833 % 8.02 C
69 27-04-2019 20:00:00 7.725 C 92.1667 % 6.54 C
70 27-04-2019 21:00:00 7.3 C 93.8333 % 6.37 C
71 27-04-2019 22:00:00 6.76667 C 94.5833 % 5.96 C
72 27-04-2019 23:00:00 6.84167 C 94.9167 % 6.09 C
73 28-04-2019 00:00:00 6.86667 C 93.7500 % 5.93 C
74 28-04-2019 01:00:00 6.875 C 92.2500 % 5.71 C
75 28-04-2019 02:00:00 6.43333 C 91.0000 % 5.07 C
Sensor: Nr:Datum:Temp:Feuchte:Taupunkt:
Aussen-T/F 76 28-04-2019 03:00:00 6.19167 C 90.2500 % 4.72 C
77 28-04-2019 04:00:00 6.41667 C 88.1667 % 4.6 C
78 28-04-2019 05:00:00 6.26667 C 88.6667 % 4.54 C
79 28-04-2019 06:00:00 6.2 C 88.8333 % 4.5 C
80 28-04-2019 07:00:00 6.80833 C 88.2500 % 5 C
81 28-04-2019 08:00:00 7.575 C 86.0833 % 5.4 C
82 28-04-2019 09:00:00 7.93333 C 86.5833 % 5.84 C
83 28-04-2019 10:00:00 8.90833 C 83.0000 % 6.18 C
84 28-04-2019 11:00:00 10 C 74.3333 % 5.65 C
85 28-04-2019 12:00:00 10.325 C 70.5833 % 5.22 C
86 28-04-2019 13:00:00 11.3 C 67.0000 % 5.4 C
87 28-04-2019 14:00:00 12.35 C 66.5000 % 6.3 C
88 28-04-2019 15:00:00 11.50833 C 73.3333 % 6.91 C
89 28-04-2019 16:00:00 10.375 C 83.8333 % 7.76 C
90 28-04-2019 17:00:00 11.44167 C 79.0833 % 7.95 C
91 28-04-2019 18:00:00 11.48333 C 74.5833 % 7.13 C
92 28-04-2019 19:00:00 10.86667 C 76.0000 % 6.81 C
93 28-04-2019 20:00:00 9.65 C 80.2500 % 6.42 C
94 28-04-2019 21:00:00 7.30833 C 86.9167 % 5.28 C
95 28-04-2019 22:00:00 5.96667 C 90.4167 % 4.52 C
96 28-04-2019 23:00:00 5 C 92.3333 % 3.86 C
97 29-04-2019 00:00:00 4.41667 C 93.5833 % 3.47 C
98 29-04-2019 01:00:00 4.03333 C 94.0000 % 3.16 C
99 29-04-2019 02:00:00 3.425 C 94.7500 % 2.66 C
100 29-04-2019 03:00:00 3.675 C 95.0000 % 2.95 C
Sensor: Nr:Datum:Temp:Feuchte:Taupunkt:
Aussen-T/F 101 29-04-2019 04:00:00 3.54167 C 95.5833 % 2.9 C
102 29-04-2019 05:00:00 3.35833 C 96.0000 % 2.78 C
103 29-04-2019 06:00:00 3.15 C 96.0000 % 2.58 C
104 29-04-2019 07:00:00 3.225 C 96.0000 % 2.65 C
105 29-04-2019 08:00:00 3.85833 C 96.4167 % 3.34 C
106 29-04-2019 09:00:00 4.99167 C 97.0000 % 4.56 C
107 29-04-2019 10:00:00 6.51667 C 95.1667 % 5.8 C
108 29-04-2019 11:00:00 8.7 C 90.7500 % 7.27 C
109 29-04-2019 12:00:00 11.925 C 77.0833 % 8.04 C
110 29-04-2019 13:00:00 13.975 C 63.3333 % 7.13 C
111 29-04-2019 14:00:00 14.83333 C 57.0833 % 6.43 C
112 29-04-2019 15:00:00 15.29167 C 56.3333 % 6.66 C
113 29-04-2019 16:00:00 15.31667 C 55.3333 % 6.43 C
114 29-04-2019 17:00:00 15.31667 C 55.7500 % 6.53 C
115 29-04-2019 18:00:00 13.69167 C 68.6667 % 8.04 C
116 29-04-2019 19:00:00 11.075 C 88.0833 % 9.18 C
117 29-04-2019 20:00:00 10.25 C 91.5833 % 8.94 C
118 29-04-2019 21:00:00 10.13333 C 92.3333 % 8.95 C
119 29-04-2019 22:00:00 10.25833 C 91.7500 % 8.98 C
120 29-04-2019 23:00:00 10.65833 C 89.5833 % 9.02 C
121 30-04-2019 00:00:00 10.98333 C 87.3333 % 8.96 C
122 30-04-2019 01:00:00 11.16667 C 86.2500 % 8.96 C
123 30-04-2019 02:00:00 10.85 C 88.0833 % 8.96 C
124 30-04-2019 03:00:00 10.59167 C 89.0000 % 8.86 C
125 30-04-2019 04:00:00 10.30833 C 88.9167 % 8.56 C
Sensor: Nr:Datum:Temp:Feuchte:Taupunkt:
Aussen-T/F 126 30-04-2019 05:00:00 10.18333 C 88.0833 % 8.3 C
127 30-04-2019 06:00:00 10.05833 C 88.8333 % 8.3 C
128 30-04-2019 07:00:00 10.075 C 88.7500 % 8.31 C
129 30-04-2019 08:00:00 10.725 C 83.9167 % 8.12 C
130 30-04-2019 09:00:00 11.51667 C 76.8333 % 7.6 C
131 30-04-2019 10:00:00 12.61667 C 70.0833 % 7.31 C
132 30-04-2019 11:00:00 13.60833 C 62.7500 % 6.65 C
133 30-04-2019 12:00:00 14.5 C 58.3333 % 6.43 C
134 30-04-2019 13:00:00 15.65833 C 53.2500 % 6.19 C
135 30-04-2019 14:00:00 16.86667 C 48.5000 % 5.95 C
136 30-04-2019 15:00:00 18.59167 C 45.3333 % 6.55 C
137 30-04-2019 16:00:00 20.025 C 40.8333 % 6.32 C
138 30-04-2019 17:00:00 20.46667 C 41.5000 % 6.95 C
139 30-04-2019 18:00:00 20.24167 C 42.8333 % 7.21 C
140 30-04-2019 19:00:00 18.90833 C 48.8333 % 7.92 C
141 30-04-2019 20:00:00 16.95833 C 56.9167 % 8.37 C
142 30-04-2019 21:00:00 15.48333 C 64.8333 % 8.9 C
143 30-04-2019 22:00:00 14.225 C 70.8333 % 9.01 C
144 30-04-2019 23:00:00 12.65833 C 77.9167 % 8.91 C
145 01-05-2019 00:00:00 11.25833 C 83.0833 % 8.5 C
146 01-05-2019 01:00:00 10.36667 C 85.5000 % 8.04 C
147 01-05-2019 02:00:00 9.26667 C 88.2500 % 7.43 C
148 01-05-2019 03:00:00 8.45833 C 90.8333 % 7.05 C
149 01-05-2019 04:00:00 8.075 C 91.7500 % 6.82 C
150 01-05-2019 05:00:00 6.95833 C 92.2500 % 5.79 C
Sensor: Nr:Datum:Temp:Feuchte:Taupunkt:
Aussen-T/F 151 01-05-2019 06:00:00 6.275 C 93.5833 % 5.32 C
152 01-05-2019 07:00:00 6.79167 C 94.9167 % 6.04 C
153 01-05-2019 08:00:00 7.9 C 94.8333 % 7.12 C
154 01-05-2019 09:00:00 8.89167 C 92.9167 % 7.81 C
155 01-05-2019 10:00:00 10.11667 C 89.7500 % 8.51 C
156 01-05-2019 11:00:00 11.40833 C 86.2500 % 9.2 C
157 01-05-2019 12:00:00 13.80833 C 79.0833 % 10.25 C
158 01-05-2019 13:00:00 16.03333 C 66.4167 % 9.78 C
159 01-05-2019 14:00:00 17.69167 C 55.0833 % 8.57 C
160 01-05-2019 15:00:00 19.35 C 48.7500 % 8.3 C
161 01-05-2019 16:00:00 21.31667 C 43.8333 % 8.52 C
162 01-05-2019 17:00:00 21.48333 C 44.2500 % 8.81 C
163 01-05-2019 18:00:00 20.325 C 52.5000 % 10.3 C
164 01-05-2019 19:00:00 18.21667 C 58.2500 % 9.89 C
165 01-05-2019 20:00:00 15.65833 C 63.3333 % 8.72 C
166 01-05-2019 21:00:00 13.53333 C 73.2500 % 8.84 C
167 01-05-2019 22:00:00 12.76667 C 77.9167 % 9.02 C
168 01-05-2019 23:00:00 10.80833 C 85.4167 % 8.46 C
169 02-05-2019 00:00:00 9.98333 C 88.3333 % 8.15 C
170 02-05-2019 01:00:00 8.96667 C 90.4167 % 7.48 C
171 02-05-2019 02:00:00 8.23333 C 92.7500 % 7.13 C
172 02-05-2019 03:00:00 7.73333 C 93.5833 % 6.77 C
173 02-05-2019 04:00:00 7.025 C 94.0000 % 6.13 C
174 02-05-2019 05:00:00 6.325 C 94.2500 % 5.47 C
175 02-05-2019 06:00:00 5.89167 C 95.0000 % 5.15 C
Sensor: Nr:Datum:Temp:Feuchte:Taupunkt:
Aussen-T/F 176 02-05-2019 07:00:00 6.84167 C 96.0000 % 6.25 C
177 02-05-2019 08:00:00 8.325 C 95.7500 % 7.69 C
178 02-05-2019 09:00:00 9.075 C 92.3333 % 7.9 C
179 02-05-2019 10:00:00 10.725 C 82.5833 % 7.89 C
180 02-05-2019 11:00:00 12.15833 C 76.5833 % 8.17 C
181 02-05-2019 12:00:00 12.925 C 74.0000 % 8.41 C
182 02-05-2019 13:00:00 14.15 C 69.5000 % 8.66 C
183 02-05-2019 14:00:00 15.85 C 65.2500 % 9.35 C
184 02-05-2019 15:00:00 16.58333 C 61.0833 % 9.06 C
185 02-05-2019 16:00:00 17.225 C 58.0000 % 8.9 C
186 02-05-2019 17:00:00 17.75 C 51.5000 % 7.63 C
187 02-05-2019 18:00:00 17.96667 C 46.8333 % 6.45 C
188 02-05-2019 19:00:00 15.54167 C 60.2500 % 7.88 C
189 02-05-2019 20:00:00 12.78333 C 76.9167 % 8.84 C
190 02-05-2019 21:00:00 11.44167 C 88.5000 % 9.61 C
191 02-05-2019 22:00:00 10.75833 C 90.9167 % 9.34 C
192 02-05-2019 23:00:00 10.7 C 91.7500 % 9.41 C
193 03-05-2019 00:00:00 10.6 C 92.3333 % 9.41 C
194 03-05-2019 01:00:00 10.51667 C 86.6667 % 8.39 C
195 03-05-2019 02:00:00 9.85 C 84.1667 % 7.31 C
196 03-05-2019 03:00:00 9.375 C 85.7500 % 7.11 C
197 03-05-2019 04:00:00 9.16667 C 87.6667 % 7.23 C
198 03-05-2019 05:00:00 9.28333 C 88.0000 % 7.4 C
199 03-05-2019 06:00:00 9.25 C 87.7500 % 7.33 C
200 03-05-2019 07:00:00 9.25 C 85.6667 % 6.98 C
Sensor: Nr:Datum:Temp:Feuchte:Taupunkt:
Aussen-T/F 201 03-05-2019 08:00:00 9.65833 C 83.5000 % 7 C
202 03-05-2019 09:00:00 10.10833 C 79.5000 % 6.73 C
203 03-05-2019 10:00:00 10.78333 C 73.7500 % 6.29 C
204 03-05-2019 11:00:00 11.16667 C 69.0833 % 5.72 C
205 03-05-2019 12:00:00 11.34167 C 68.9167 % 5.85 C
206 03-05-2019 13:00:00 12.075 C 65.5833 % 5.83 C
207 03-05-2019 14:00:00 12.98333 C 59.5000 % 5.29 C
208 03-05-2019 15:00:00 14.38333 C 52.9167 % 4.92 C
209 03-05-2019 16:00:00 15 C 51.0000 % 4.96 C
210 03-05-2019 17:00:00 14.125 C 53.9167 % 4.94 C
211 03-05-2019 18:00:00 13.64167 C 56.3333 % 5.12 C
212 03-05-2019 19:00:00 12.4 C 60.0000 % 4.86 C
213 03-05-2019 20:00:00 11.18333 C 64.2500 % 4.69 C
214 03-05-2019 21:00:00 9.875 C 70.1667 % 4.7 C
215 03-05-2019 22:00:00 9.375 C 74.3333 % 5.05 C
216 03-05-2019 23:00:00 8.65833 C 78.5833 % 5.15 C
217 04-05-2019 00:00:00 8.05833 C 81.6667 % 5.12 C
218 04-05-2019 01:00:00 7.625 C 83.1667 % 4.96 C
219 04-05-2019 02:00:00 7.575 C 84.7500 % 5.18 C
220 04-05-2019 03:00:00 7.43333 C 86.7500 % 5.37 C
221 04-05-2019 04:00:00 7.4 C 90.0833 % 5.88 C
222 04-05-2019 05:00:00 5.025 C 91.3333 % 3.73 C
223 04-05-2019 06:00:00 3.74167 C 92.3333 % 2.62 C
224 04-05-2019 07:00:00 3.23333 C 93.0000 % 2.21 C
225 04-05-2019 08:00:00 3.26667 C 93.8333 % 2.37 C
Sensor: Nr:Datum:Temp:Feuchte:Taupunkt:
Aussen-T/F 226 04-05-2019 09:00:00 3.99167 C 94.0000 % 3.12 C
227 04-05-2019 10:00:00 4.64167 C 91.0000 % 3.3 C
228 04-05-2019 11:00:00 5.00833 C 89.0833 % 3.36 C
229 04-05-2019 12:00:00 5.93333 C 85.6667 % 3.72 C
230 04-05-2019 13:00:00 7.25833 C 78.2500 % 3.73 C
231 04-05-2019 14:00:00 7.44167 C 77.6667 % 3.8 C
232 04-05-2019 15:00:00 4.74167 C 89.1667 % 3.11 C
233 04-05-2019 16:00:00 7.80833 C 85.1667 % 5.48 C
234 04-05-2019 17:00:00 10.13333 C 77.2500 % 6.34 C
235 04-05-2019 18:00:00 10.36667 C 60.6667 % 3.11 C
236 04-05-2019 19:00:00 9.3 C 67.2500 % 3.55 C
237 04-05-2019 20:00:00 7.475 C 74.9167 % 3.32 C
238 04-05-2019 21:00:00 6.49167 C 79.1667 % 3.15 C
239 04-05-2019 22:00:00 5.00833 C 85.0000 % 2.7 C
240 04-05-2019 23:00:00 3.8 C 89.6667 % 2.26 C
241 05-05-2019 00:00:00 3.71667 C 91.7500 % 2.5 C
242 05-05-2019 01:00:00 3.80833 C 92.6667 % 2.73 C
243 05-05-2019 02:00:00 3.45833 C 92.6667 % 2.39 C
244 05-05-2019 03:00:00 3.68333 C 93.7500 % 2.77 C
245 05-05-2019 04:00:00 3.69167 C 92.7500 % 2.63 C
246 05-05-2019 05:00:00 3.33333 C 92.0000 % 2.16 C
247 05-05-2019 06:00:00 2.73333 C 92.0833 % 1.58 C
248 05-05-2019 07:00:00 2.46667 C 93.3333 % 1.5 C
249 05-05-2019 08:00:00 3.35833 C 94.0000 % 2.49 C
250 05-05-2019 09:00:00 4.73333 C 90.9167 % 3.38 C
Sensor: Nr:Datum:Temp:Feuchte:Taupunkt:
Aussen-T/F 251 05-05-2019 10:00:00 5.84167 C 86.5000 % 3.77 C
252 05-05-2019 11:00:00 6.98333 C 83.5000 % 4.39 C
253 05-05-2019 12:00:00 7.63333 C 80.6667 % 4.53 C
254 05-05-2019 13:00:00 8.91667 C 73.1667 % 4.38 C
255 05-05-2019 14:00:00 9.29167 C 70.7500 % 4.26 C
256 05-05-2019 15:00:00 9.86667 C 68.9167 % 4.44 C
257 05-05-2019 16:00:00 12.39167 C 57.5833 % 4.27 C
258 05-05-2019 17:00:00 12.55833 C 58.7500 % 4.71 C
259 05-05-2019 18:00:00 11.3 C 64.5833 % 4.88 C
260 05-05-2019 19:00:00 9.66667 C 70.1667 % 4.5 C
261 05-05-2019 20:00:00 9.19167 C 71.9167 % 4.4 C
262 05-05-2019 21:00:00 8.26667 C 76.0833 % 4.31 C
263 05-05-2019 22:00:00 7.15 C 80.1667 % 3.97 C
264 05-05-2019 23:00:00 6.25 C 85.3333 % 3.98 C
265 06-05-2019 00:00:00 6.11667 C 86.5000 % 4.04 C
266 06-05-2019 01:00:00 5.90833 C 87.5833 % 4.01 C
267 06-05-2019 02:00:00 5.1 C 87.9167 % 3.27 C
268 06-05-2019 03:00:00 4.25833 C 90.4167 % 2.83 C
269 06-05-2019 04:00:00 3.59167 C 91.2500 % 2.3 C
270 06-05-2019 05:00:00 3.01667 C 92.4167 % 1.91 C
271 06-05-2019 06:00:00 3.14167 C 93.7500 % 2.23 C
272 06-05-2019 07:00:00 3.70833 C 94.0000 % 2.83 C
273 06-05-2019 08:00:00 4.56667 C 92.3333 % 3.43 C
274 06-05-2019 09:00:00 6.31667 C 84.2500 % 3.86 C
275 06-05-2019 10:00:00 8.01667 C 73.8333 % 3.64 C
Sensor: Nr:Datum:Temp:Feuchte:Taupunkt:
Aussen-T/F 276 06-05-2019 11:00:00 9.33333 C 66.7500 % 3.48 C
277 06-05-2019 12:00:00 10.05 C 59.5000 % 2.53 C
278 06-05-2019 13:00:00 10.95 C 56.0833 % 2.55 C
279 06-05-2019 14:00:00 11.24167 C 55.0000 % 2.55 C
280 06-05-2019 15:00:00 11.29167 C 57.1667 % 3.14 C
281 06-05-2019 16:00:00 11.01667 C 60.3333 % 3.64 C
282 06-05-2019 17:00:00 10.675 C 61.1667 % 3.51 C
283 06-05-2019 18:00:00 11.425 C 61.2500 % 4.24 C
284 06-05-2019 19:00:00 10.75833 C 68.2500 % 5.15 C
285 06-05-2019 20:00:00 9.18333 C 75.5000 % 5.09 C
286 06-05-2019 21:00:00 8.26667 C 82.0000 % 5.38 C
287 06-05-2019 22:00:00 7.75 C 85.5000 % 5.48 C
288 06-05-2019 23:00:00 7.30833 C 86.8333 % 5.26 C
289 07-05-2019 00:00:00 7.29167 C 88.5000 % 5.52 C
290 07-05-2019 01:00:00 7.04167 C 89.1667 % 5.38 C
291 07-05-2019 02:00:00 6.7 C 90.0000 % 5.18 C
292 07-05-2019 03:00:00 6.64167 C 90.0000 % 5.12 C
293 07-05-2019 04:00:00 6.35 C 90.1667 % 4.86 C
294 07-05-2019 05:00:00 6.16667 C 91.0000 % 4.81 C
295 07-05-2019 06:00:00 5.85833 C 91.3333 % 4.56 C
296 07-05-2019 07:00:00 6.38333 C 92.0833 % 5.19 C
297 07-05-2019 08:00:00 7.30833 C 89.2500 % 5.66 C
298 07-05-2019 09:00:00 8.475 C 85.7500 % 6.23 C
299 07-05-2019 10:00:00 9.60833 C 79.9167 % 6.32 C
300 07-05-2019 11:00:00 10.575 C 71.7500 % 5.7 C
Sensor: Nr:Datum:Temp:Feuchte:Taupunkt:
Aussen-T/F 301 07-05-2019 12:00:00 11.88333 C 60.5000 % 4.49 C
302 07-05-2019 13:00:00 11.86667 C 58.6667 % 4.04 C
303 07-05-2019 14:00:00 12.76667 C 55.1667 % 4.01 C
304 07-05-2019 15:00:00 13.05833 C 52.6667 % 3.62 C
305 07-05-2019 16:00:00 14.13333 C 50.6667 % 4.06 C
306 07-05-2019 17:00:00 14.9 C 47.4167 % 3.83 C
307 07-05-2019 18:00:00 14.94167 C 46.0000 % 3.44 C
308 07-05-2019 19:00:00 13.4 C 61.8333 % 6.24 C
309 07-05-2019 20:00:00 11.275 C 62.9167 % 4.48 C
310 07-05-2019 21:00:00 9.01667 C 68.3333 % 3.51 C
311 07-05-2019 22:00:00 7.98333 C 75.9167 % 4 C
312 07-05-2019 23:00:00 6.93333 C 80.7500 % 3.86 C
313 08-05-2019 00:00:00 6.325 C 82.9167 % 3.64 C
314 08-05-2019 01:00:00 5.75 C 84.4167 % 3.33 C
315 08-05-2019 02:00:00 5.15 C 87.0000 % 3.17 C
316 08-05-2019 03:00:00 4.7 C 89.4167 % 3.11 C
317 08-05-2019 04:00:00 4.95 C 91.0000 % 3.61 C
318 08-05-2019 05:00:00 5.25 C 91.0000 % 3.9 C
319 08-05-2019 06:00:00 5.49167 C 91.2500 % 4.18 C
320 08-05-2019 07:00:00 6.21667 C 90.5000 % 4.78 C
321 08-05-2019 08:00:00 7.49167 C 87.9167 % 5.62 C
322 08-05-2019 09:00:00 8.85 C 82.5833 % 6.05 C
323 08-05-2019 10:00:00 9.025 C 87.2500 % 7.02 C
324 08-05-2019 11:00:00 9.69167 C 89.4167 % 8.04 C
325 08-05-2019 12:00:00 11.325 C 88.5833 % 9.51 C
Sensor: Nr:Datum:Temp:Feuchte:Taupunkt:
Aussen-T/F 326 08-05-2019 13:00:00 13.61667 C 82.9167 % 10.77 C
327 08-05-2019 14:00:00 14.7 C 78.7500 % 11.05 C
328 08-05-2019 15:00:00 14.56667 C 78.9167 % 10.95 C
329 08-05-2019 16:00:00 13.39167 C 86.7500 % 11.23 C
330 08-05-2019 17:00:00 12.51667 C 91.3333 % 11.14 C
331 08-05-2019 18:00:00 12.5 C 92.9167 % 11.39 C
332 08-05-2019 19:00:00 12.25833 C 93.5000 % 11.24 C
333 08-05-2019 20:00:00 11.71667 C 94.0000 % 10.78 C
334 08-05-2019 21:00:00 10.95833 C 94.5000 % 10.11 C
335 08-05-2019 22:00:00 10.14167 C 94.9167 % 9.36 C
336 08-05-2019 23:00:00 9.41667 C 94.5833 % 8.59 C
337 09-05-2019 00:00:00 8.78333 C 94.5000 % 7.95 C
338 09-05-2019 01:00:00 8.31667 C 94.7500 % 7.53 C
339 09-05-2019 02:00:00 7.425 C 94.8333 % 6.65 C
340 09-05-2019 03:00:00 7.31667 C 95.7500 % 6.68 C
341 09-05-2019 04:00:00 7.75833 C 96.0000 % 7.16 C
342 09-05-2019 05:00:00 7.80833 C 96.0000 % 7.21 C
343 09-05-2019 06:00:00 7.46667 C 95.5833 % 6.81 C
344 09-05-2019 07:00:00 8.7 C 96.3333 % 8.15 C
345 09-05-2019 08:00:00 9.9 C 93.4167 % 8.89 C
346 09-05-2019 09:00:00 11.4 C 87.4167 % 9.39 C
347 09-05-2019 10:00:00 11.6 C 88.2500 % 9.72 C
348 09-05-2019 11:00:00 12.78333 C 84.0000 % 10.15 C
349 09-05-2019 12:00:00 13.21667 C 84.4167 % 10.65 C
350 09-05-2019 13:00:00 13.26667 C 83.8333 % 10.59 C
Sensor: Nr:Datum:Temp:Feuchte:Taupunkt:
Aussen-T/F 351 09-05-2019 14:00:00 13.60833 C 80.0833 % 10.24 C
352 09-05-2019 15:00:00 13.43333 C 82.7500 % 10.56 C
353 09-05-2019 16:00:00 13.80833 C 81.1667 % 10.64 C
354 09-05-2019 17:00:00 14.375 C 81.4167 % 11.24 C
355 09-05-2019 18:00:00 15.625 C 79.3333 % 12.06 C
356 09-05-2019 19:00:00 15.4 C 79.2500 % 11.83 C
357 09-05-2019 20:00:00 13.70833 C 85.5833 % 11.34 C
358 09-05-2019 21:00:00 11.66667 C 90.7500 % 10.21 C
359 09-05-2019 22:00:00 10.89167 C 94.1667 % 9.99 C
360 09-05-2019 23:00:00 10.76667 C 95.0000 % 10 C
361 10-05-2019 00:00:00 10.525 C 95.0000 % 9.76 C
362 10-05-2019 01:00:00 9.51667 C 95.0000 % 8.76 C
363 10-05-2019 02:00:00 8.85833 C 95.5000 % 8.18 C
364 10-05-2019 03:00:00 8.16667 C 95.3333 % 7.47 C
365 10-05-2019 04:00:00 8.56667 C 96.2500 % 8 C
366 10-05-2019 05:00:00 8.28333 C 96.0000 % 7.68 C
367 10-05-2019 06:00:00 8.40833 C 96.0000 % 7.81 C
368 10-05-2019 07:00:00 8.75 C 95.5833 % 8.08 C
369 10-05-2019 08:00:00 9.175 C 94.0833 % 8.27 C
370 10-05-2019 09:00:00 10.7 C 87.5000 % 8.71 C
371 10-05-2019 10:00:00 12.1 C 81.4167 % 9.02 C
372 10-05-2019 11:00:00 13.23333 C 75.7500 % 9.05 C
373 10-05-2019 12:00:00 14.35 C 67.4167 % 8.4 C
374 10-05-2019 13:00:00 15.44167 C 60.0000 % 7.72 C
375 10-05-2019 14:00:00 16.75 C 54.4167 % 7.51 C
Sensor: Nr:Datum:Temp:Feuchte:Taupunkt:
Aussen-T/F 376 10-05-2019 15:00:00 17.21667 C 52.5000 % 7.42 C
377 10-05-2019 16:00:00 17.93333 C 49.3333 % 7.17 C
378 10-05-2019 17:00:00 17.6 C 48.8333 % 6.72 C
379 10-05-2019 18:00:00 17.25 C 50.5833 % 6.91 C
380 10-05-2019 19:00:00 17.18333 C 62.0000 % 9.85 C
381 10-05-2019 20:00:00 14.175 C 71.5000 % 9.1 C
382 10-05-2019 21:00:00 12.35 C 77.4167 % 8.52 C
383 10-05-2019 22:00:00 11.76667 C 81.3333 % 8.68 C
384 10-05-2019 23:00:00 11.53333 C 83.2500 % 8.79 C
385 11-05-2019 00:00:00 11.04167 C 86.5833 % 8.89 C
386 11-05-2019 01:00:00 10.36667 C 91.1667 % 8.99 C
387 11-05-2019 02:00:00 10.1 C 93.3333 % 9.07 C
388 11-05-2019 03:00:00 9.925 C 94.1667 % 9.03 C
389 11-05-2019 04:00:00 9.7 C 95.0000 % 8.94 C
390 11-05-2019 05:00:00 9.775 C 95.7500 % 9.13 C
391 11-05-2019 06:00:00 9.7 C 96.0000 % 9.09 C
392 11-05-2019 07:00:00 9.7 C 96.0000 % 9.09 C
393 11-05-2019 08:00:00 9.65833 C 96.0000 % 9.05 C
394 11-05-2019 09:00:00 9.70833 C 96.0000 % 9.1 C
395 11-05-2019 10:00:00 9.85833 C 96.0000 % 9.25 C
396 11-05-2019 11:00:00 10.13333 C 96.0000 % 9.52 C
397 11-05-2019 12:00:00 10.36667 C 94.5833 % 9.54 C
398 11-05-2019 13:00:00 9.79167 C 94.0000 % 8.87 C
399 11-05-2019 14:00:00 9.76667 C 94.9167 % 8.99 C
400 11-05-2019 15:00:00 9.91667 C 95.0000 % 9.15 C
Sensor: Nr:Datum:Temp:Feuchte:Taupunkt:
Aussen-T/F 401 11-05-2019 16:00:00 10.31667 C 95.9167 % 9.69 C
402 11-05-2019 17:00:00 10.95833 C 95.4167 % 10.25 C
403 11-05-2019 18:00:00 11.79167 C 88.6667 % 9.98 C
404 11-05-2019 19:00:00 12.1 C 81.5833 % 9.05 C
405 11-05-2019 20:00:00 11.3 C 84.1667 % 8.73 C
406 11-05-2019 21:00:00 9.44167 C 91.2500 % 8.09 C
407 11-05-2019 22:00:00 8.33333 C 92.8333 % 7.24 C
408 11-05-2019 23:00:00 7.65 C 94.3333 % 6.8 C
409 12-05-2019 00:00:00 7.41667 C 95.0000 % 6.67 C
410 12-05-2019 01:00:00 6.75 C 95.0000 % 6.01 C
411 12-05-2019 02:00:00 6.43333 C 93.7500 % 5.5 C
412 12-05-2019 03:00:00 5.66667 C 93.0000 % 4.63 C
413 12-05-2019 04:00:00 4.70833 C 93.7500 % 3.79 C
414 12-05-2019 05:00:00 4.225 C 94.6667 % 3.45 C
415 12-05-2019 06:00:00 4.45833 C 95.0000 % 3.73 C
416 12-05-2019 07:00:00 5.68333 C 91.8333 % 4.46 C
417 12-05-2019 08:00:00 6.98333 C 85.5000 % 4.72 C
418 12-05-2019 09:00:00 8.125 C 78.6667 % 4.65 C
419 12-05-2019 10:00:00 8.83333 C 74.3333 % 4.53 C
420 12-05-2019 11:00:00 9.58333 C 69.4167 % 4.27 C
421 12-05-2019 12:00:00 10.54167 C 64.7500 % 4.19 C
422 12-05-2019 13:00:00 11.66667 C 60.1667 % 4.21 C
423 12-05-2019 14:00:00 12.83333 C 54.8333 % 3.98 C
424 12-05-2019 15:00:00 14.13333 C 50.9167 % 4.13 C
425 12-05-2019 16:00:00 15.25833 C 46.0000 % 3.72 C
Sensor: Nr:Datum:Temp:Feuchte:Taupunkt:
Aussen-T/F 426 12-05-2019 17:00:00 14.83333 C 45.5000 % 3.18 C
427 12-05-2019 18:00:00 15.19167 C 43.5833 % 2.9 C
428 12-05-2019 19:00:00 13.96667 C 45.0833 % 2.26 C
429 12-05-2019 20:00:00 13.09167 C 49.2500 % 2.71 C
430 12-05-2019 21:00:00 9.68333 C 71.3333 % 4.76 C
431 12-05-2019 22:00:00 8.375 C 76.7500 % 4.54 C
432 12-05-2019 23:00:00 7.30833 C 78.5833 % 3.84 C
433 13-05-2019 00:00:00 6.45 C 82.1667 % 3.64 C
434 13-05-2019 01:00:00 5.11667 C 87.5833 % 3.23 C
435 13-05-2019 02:00:00 4.15 C 90.5833 % 2.75 C
436 13-05-2019 03:00:00 3.60833 C 92.2500 % 2.47 C
437 13-05-2019 04:00:00 3.075 C 93.2500 % 2.09 C
438 13-05-2019 05:00:00 2.64167 C 94.0000 % 1.78 C
439 13-05-2019 06:00:00 2.30833 C 94.5000 % 1.52 C
440 13-05-2019 07:00:00 2.63333 C 95.2500 % 1.95 C
441 13-05-2019 08:00:00 4.26667 C 96.0000 % 3.69 C
442 13-05-2019 09:00:00 6.13333 C 90.4167 % 4.69 C
443 13-05-2019 10:00:00 9.69167 C 57.8333 % 1.8 C
444 13-05-2019 11:00:00 11.4 C 48.6667 % 0.99 C
445 13-05-2019 12:00:00 13.43333 C 32.5833 % -2.66 C
446 13-05-2019 13:00:00 14.6 C 29.9167 % -2.79 C
447 13-05-2019 14:00:00 15.575 C 31.0000 % -1.47 C
448 13-05-2019 15:00:00 17.19167 C 29.5833 % -0.7 C
449 13-05-2019 16:00:00 18.43333 C 28.9167 % 0.06 C
450 13-05-2019 17:00:00 18.6 C 28.4167 % -0.04 C
Sensor: Nr:Datum:Temp:Feuchte:Taupunkt:
Aussen-T/F 451 13-05-2019 18:00:00 18.08333 C 28.8333 % -0.29 C
452 13-05-2019 19:00:00 16.95833 C 32.8333 % 0.52 C
453 13-05-2019 20:00:00 15.41667 C 34.7500 % -0.05 C
454 13-05-2019 21:00:00 12.25 C 50.4167 % 2.26 C
455 13-05-2019 22:00:00 9.325 C 60.9167 % 2.18 C
456 13-05-2019 23:00:00 7.875 C 69.4167 % 2.63 C
457 14-05-2019 00:00:00 6.7 C 74.8333 % 2.56 C
458 14-05-2019 01:00:00 5.76667 C 77.5000 % 2.15 C
459 14-05-2019 02:00:00 4.74167 C 81.2500 % 1.81 C
460 14-05-2019 03:00:00 3.83333 C 84.6667 % 1.49 C
461 14-05-2019 04:00:00 3.18333 C 87.0000 % 1.23 C
462 14-05-2019 05:00:00 2.66667 C 88.9167 % 1.03 C
463 14-05-2019 06:00:00 2.41667 C 90.8333 % 1.08 C
464 14-05-2019 07:00:00 2.825 C 92.5000 % 1.73 C
465 14-05-2019 08:00:00 4.2 C 92.5833 % 3.11 C
466 14-05-2019 09:00:00 6.50833 C 85.8333 % 4.31 C
467 14-05-2019 10:00:00 9.575 C 69.3333 % 4.25 C
468 14-05-2019 11:00:00 12.65 C 50.8333 % 2.74 C
469 14-05-2019 12:00:00 13.45833 C 45.8333 % 2.03 C
470 14-05-2019 13:00:00 14.21667 C 43.7500 % 2.07 C
471 14-05-2019 14:00:00 14.79167 C 43.0000 % 2.35 C
472 14-05-2019 15:00:00 16.00833 C 39.8333 % 2.37 C
473 14-05-2019 16:00:00 16.59167 C 37.0833 % 1.89 C
474 14-05-2019 17:00:00 16.8 C 36.4167 % 1.82 C
475 14-05-2019 18:00:00 16.475 C 37.2500 % 1.85 C
Sensor: Nr:Datum:Temp:Feuchte:Taupunkt:
Aussen-T/F 476 14-05-2019 19:00:00 16.075 C 38.1667 % 1.83 C
477 14-05-2019 20:00:00 13.73333 C 48.9167 % 3.2 C
478 14-05-2019 21:00:00 10.35 C 60.5833 % 3.07 C
479 14-05-2019 22:00:00 8.73333 C 67.9167 % 3.15 C
480 14-05-2019 23:00:00 7.69167 C 71.9167 % 2.96 C
481 15-05-2019 00:00:00 6.88333 C 73.5000 % 2.48 C
482 15-05-2019 01:00:00 5.89167 C 77.3333 % 2.24 C
483 15-05-2019 02:00:00 4.74167 C 81.4167 % 1.84 C
484 15-05-2019 03:00:00 3.98333 C 84.5000 % 1.61 C
485 15-05-2019 04:00:00 3.15 C 87.4167 % 1.27 C
486 15-05-2019 05:00:00 2.60833 C 89.0000 % 0.98 C
487 15-05-2019 06:00:00 2.325 C 91.0000 % 1.01 C
488 15-05-2019 07:00:00 2.75833 C 92.4167 % 1.65 C
489 15-05-2019 08:00:00 3.775 C 92.7500 % 2.71 C
490 15-05-2019 09:00:00 5.99167 C 85.3333 % 3.72 C
491 15-05-2019 10:00:00 10.15833 C 54.6667 % 1.45 C
492 15-05-2019 11:00:00 12.05 C 45.6667 % 0.7 C
493 15-05-2019 12:00:00 12.95 C 40.9167 % 0 C
494 15-05-2019 13:00:00 14.08333 C 35.9167 % -0.77 C
495 15-05-2019 14:00:00 14.95 C 37.1667 % 0.46 C
496 15-05-2019 15:00:00 15.975 C 34.0833 % 0.18 C
497 15-05-2019 16:00:00 17.19167 C 34.3333 % 1.35 C
498 15-05-2019 17:00:00 17.58333 C 33.0833 % 1.18 C
499 15-05-2019 18:00:00 17.38333 C 33.9167 % 1.35 C
500 15-05-2019 19:00:00 16.55833 C 35.2500 % 1.16 C
Sensor: Nr:Datum:Temp:Feuchte:Taupunkt:
Aussen-T/F 501 15-05-2019 20:00:00 15.10833 C 42.2500 % 2.39 C
502 15-05-2019 21:00:00 11.45833 C 56.8333 % 3.21 C
503 15-05-2019 22:00:00 9.525 C 60.3333 % 2.24 C
504 15-05-2019 23:00:00 8.09167 C 63.9167 % 1.69 C
505 16-05-2019 00:00:00 7.39167 C 66.5833 % 1.59 C
506 16-05-2019 01:00:00 6.64167 C 73.4167 % 2.24 C
507 16-05-2019 02:00:00 5.725 C 78.7500 % 2.33 C
508 16-05-2019 03:00:00 5.58333 C 82.1667 % 2.79 C
509 16-05-2019 04:00:00 5.71667 C 83.5833 % 3.16 C
510 16-05-2019 05:00:00 5.83333 C 84.0833 % 3.36 C
511 16-05-2019 06:00:00 5.95 C 85.4167 % 3.7 C
512 16-05-2019 07:00:00 6.64167 C 85.1667 % 4.33 C
513 16-05-2019 08:00:00 7.98333 C 82.8333 % 5.25 C
514 16-05-2019 09:00:00 9.95 C 72.7500 % 5.29 C
515 16-05-2019 10:00:00 11.65833 C 62.9167 % 4.84 C
516 16-05-2019 11:00:00 12.20833 C 58.5833 % 4.34 C
517 16-05-2019 12:00:00 13.13333 C 58.8333 % 5.27 C
518 16-05-2019 13:00:00 14.68333 C 56.6667 % 6.18 C
519 16-05-2019 14:00:00 15.4 C 55.8333 % 6.63 C
520 16-05-2019 15:00:00 17.38333 C 52.0833 % 7.46 C
521 16-05-2019 16:00:00 18.23333 C 49.6667 % 7.55 C
522 16-05-2019 17:00:00 16.90833 C 54.0000 % 7.55 C
523 16-05-2019 18:00:00 15.44167 C 61.5833 % 8.1 C
524 16-05-2019 19:00:00 14.075 C 68.0833 % 8.28 C
525 16-05-2019 20:00:00 12.56667 C 73.1667 % 7.9 C
Sensor: Nr:Datum:Temp:Feuchte:Taupunkt:
Aussen-T/F 526 16-05-2019 21:00:00 11.175 C 76.0000 % 7.11 C
527 16-05-2019 22:00:00 10.23333 C 81.7500 % 7.26 C
528 16-05-2019 23:00:00 9.60833 C 86.3333 % 7.44 C
529 17-05-2019 00:00:00 9.08333 C 90.9167 % 7.68 C
530 17-05-2019 01:00:00 8.79167 C 92.5000 % 7.64 C
531 17-05-2019 02:00:00 8.7 C 93.6667 % 7.74 C
532 17-05-2019 03:00:00 8.63333 C 94.1667 % 7.75 C
533 17-05-2019 04:00:00 8.475 C 94.9167 % 7.71 C
534 17-05-2019 05:00:00 8.36667 C 95.0000 % 7.61 C
535 17-05-2019 06:00:00 8.45 C 95.5833 % 7.79 C
536 17-05-2019 07:00:00 8.71667 C 96.0000 % 8.12 C
537 17-05-2019 08:00:00 8.96667 C 96.0000 % 8.36 C
538 17-05-2019 09:00:00 9.29167 C 96.0000 % 8.69 C
539 17-05-2019 10:00:00 9.625 C 96.0000 % 9.02 C
540 17-05-2019 11:00:00 10.2 C 95.0833 % 9.45 C
541 17-05-2019 12:00:00 11.175 C 93.7500 % 10.21 C
542 17-05-2019 13:00:00 12.825 C 89.1667 % 11.09 C
543 17-05-2019 14:00:00 14.44167 C 84.1667 % 11.8 C
544 17-05-2019 15:00:00 15.54167 C 79.8333 % 12.08 C
545 17-05-2019 16:00:00 16.35 C 75.2500 % 11.96 C
546 17-05-2019 17:00:00 17.35 C 70.8333 % 12.01 C
547 17-05-2019 18:00:00 16.8 C 78.3333 % 13.01 C
548 17-05-2019 19:00:00 16.625 C 80.1667 % 13.19 C
549 17-05-2019 20:00:00 13.975 C 85.3333 % 11.55 C
550 17-05-2019 21:00:00 12.00833 C 89.6667 % 10.36 C
Sensor: Nr:Datum:Temp:Feuchte:Taupunkt:
Aussen-T/F 551 17-05-2019 22:00:00 11.96667 C 92.0000 % 10.71 C
552 17-05-2019 23:00:00 12.05833 C 93.4167 % 11.03 C
553 18-05-2019 00:00:00 11.6 C 94.0000 % 10.67 C
554 18-05-2019 01:00:00 10.44167 C 94.4167 % 9.58 C
555 18-05-2019 02:00:00 10.58333 C 95.8333 % 9.95 C
556 18-05-2019 03:00:00 10.43333 C 95.9167 % 9.81 C
557 18-05-2019 04:00:00 9.925 C 96.0000 % 9.32 C
558 18-05-2019 05:00:00 9.31667 C 96.0000 % 8.71 C
559 18-05-2019 06:00:00 9.35833 C 96.5000 % 8.83 C
560 18-05-2019 07:00:00 10.23333 C 97.0000 % 9.78 C
561 18-05-2019 08:00:00 11.2 C 96.8333 % 10.72 C
562 18-05-2019 09:00:00 12.275 C 94.6667 % 11.44 C
563 18-05-2019 10:00:00 14.16667 C 91.3333 % 12.78 C
564 18-05-2019 11:00:00 16.9 C 77.2500 % 12.89 C
565 18-05-2019 12:00:00 18.14167 C 71.5000 % 12.91 C
566 18-05-2019 13:00:00 19.01667 C 69.0833 % 13.22 C
567 18-05-2019 14:00:00 20.34167 C 62.5000 % 12.95 C
568 18-05-2019 15:00:00 21.05833 C 58.4167 % 12.59 C
569 18-05-2019 16:00:00 22.41667 C 60.3333 % 14.36 C
570 18-05-2019 17:00:00 21.04167 C 70.5833 % 15.49 C
571 18-05-2019 18:00:00 18.54167 C 76.5833 % 14.35 C
572 18-05-2019 19:00:00 15.85 C 86.9167 % 13.68 C
573 18-05-2019 20:00:00 14.79167 C 90.4167 % 13.24 C
574 18-05-2019 21:00:00 13.71667 C 92.0000 % 12.44 C
575 18-05-2019 22:00:00 12.75 C 93.3333 % 11.7 C
Sensor: Nr:Datum:Temp:Feuchte:Taupunkt:
Aussen-T/F 576 18-05-2019 23:00:00 12.53333 C 94.6667 % 11.7 C
577 19-05-2019 00:00:00 12.79167 C 95.0000 % 12.01 C
578 19-05-2019 01:00:00 12.73333 C 95.0000 % 11.95 C
579 19-05-2019 02:00:00 12.26667 C 95.0000 % 11.49 C
580 19-05-2019 03:00:00 11.71667 C 95.5000 % 11.02 C
581 19-05-2019 04:00:00 11.625 C 96.0000 % 11.01 C
582 19-05-2019 05:00:00 11.38333 C 96.0000 % 10.77 C
583 19-05-2019 06:00:00 11.475 C 96.8333 % 10.99 C
584 19-05-2019 07:00:00 12.13333 C 97.0000 % 11.67 C
585 19-05-2019 08:00:00 12.825 C 97.0000 % 12.36 C
586 19-05-2019 09:00:00 13.73333 C 96.9167 % 13.25 C
587 19-05-2019 10:00:00 15.11667 C 94.8333 % 14.29 C
588 19-05-2019 11:00:00 16.26667 C 90.2500 % 14.67 C
589 19-05-2019 12:00:00 17.99167 C 84.2500 % 15.29 C
590 19-05-2019 13:00:00 18.78333 C 77.5000 % 14.77 C
591 19-05-2019 14:00:00 20.225 C 67.2500 % 13.96 C
592 19-05-2019 15:00:00 22.54167 C 61.3333 % 14.73 C
593 19-05-2019 16:00:00 23.4 C 58.4167 % 14.78 C
594 19-05-2019 17:00:00 19.25833 C 63.3333 % 12.13 C
595 19-05-2019 18:00:00 19.96667 C 65.1667 % 13.23 C
596 19-05-2019 19:00:00 20.475 C 63.1667 % 13.24 C
597 19-05-2019 20:00:00 18.96667 C 68.5833 % 13.06 C
598 19-05-2019 21:00:00 15.7 C 80.8333 % 12.42 C
599 19-05-2019 22:00:00 14.53333 C 86.1667 % 12.25 C
600 19-05-2019 23:00:00 14.65833 C 84.7500 % 12.12 C
Sensor: Nr:Datum:Temp:Feuchte:Taupunkt:
Aussen-T/F 601 20-05-2019 00:00:00 14.48333 C 85.6667 % 12.11 C
602 20-05-2019 01:00:00 13.40833 C 89.3333 % 11.69 C
603 20-05-2019 02:00:00 12.46667 C 91.5833 % 11.14 C
604 20-05-2019 03:00:00 12.23333 C 93.1667 % 11.16 C
605 20-05-2019 04:00:00 12.7 C 94.0000 % 11.76 C
606 20-05-2019 05:00:00 13.13333 C 93.0000 % 12.03 C
607 20-05-2019 06:00:00 13.15 C 92.0000 % 11.88 C
608 20-05-2019 07:00:00 13.16667 C 92.0000 % 11.9 C
609 20-05-2019 08:00:00 13.475 C 91.7500 % 12.16 C
610 20-05-2019 09:00:00 13.95 C 89.9167 % 12.32 C
611 20-05-2019 10:00:00 14.25833 C 89.0833 % 12.49 C
612 20-05-2019 11:00:00 14.125 C 91.9167 % 12.83 C
613 20-05-2019 12:00:00 14.08333 C 92.0833 % 12.82 C
614 20-05-2019 13:00:00 13.85833 C 92.0000 % 12.58 C
615 20-05-2019 14:00:00 14.29167 C 91.4167 % 12.91 C
616 20-05-2019 15:00:00 14.6 C 89.2500 % 12.85 C
617 20-05-2019 16:00:00 14.84167 C 87.7500 % 12.83 C
618 20-05-2019 17:00:00 14.93333 C 87.0000 % 12.79 C
619 20-05-2019 18:00:00 14.86667 C 86.0833 % 12.56 C
620 20-05-2019 19:00:00 14.65 C 86.6667 % 12.45 C
621 20-05-2019 20:00:00 14.5 C 87.2500 % 12.41 C
622 20-05-2019 21:00:00 14.19167 C 88.0000 % 12.23 C
623 20-05-2019 22:00:00 14.1 C 88.0000 % 12.14 C
624 20-05-2019 23:00:00 14.21667 C 86.5833 % 12.01 C
625 21-05-2019 00:00:00 14.23333 C 86.6667 % 12.04 C
Sensor: Nr:Datum:Temp:Feuchte:Taupunkt:
Aussen-T/F 626 21-05-2019 01:00:00 13.8 C 89.5000 % 12.1 C
627 21-05-2019 02:00:00 13.56667 C 90.6667 % 12.07 C
628 21-05-2019 03:00:00 13.275 C 91.5000 % 11.92 C
629 21-05-2019 04:00:00 13.11667 C 91.0000 % 11.68 C
630 21-05-2019 05:00:00 12.71667 C 91.5833 % 11.38 C
631 21-05-2019 06:00:00 12.21667 C 93.7500 % 11.24 C
632 21-05-2019 07:00:00 12.23333 C 94.0000 % 11.3 C
633 21-05-2019 08:00:00 12.3 C 93.5833 % 11.3 C
634 21-05-2019 09:00:00 12.3 C 93.5833 % 11.3 C
635 21-05-2019 10:00:00 12.23333 C 93.6667 % 11.24 C
636 21-05-2019 11:00:00 12.15 C 93.0833 % 11.07 C
637 21-05-2019 12:00:00 12.11667 C 93.8333 % 11.15 C
638 21-05-2019 13:00:00 12.225 C 94.0000 % 11.29 C
639 21-05-2019 14:00:00 12.15 C 93.6667 % 11.16 C
640 21-05-2019 15:00:00 12.15833 C 93.0833 % 11.07 C
641 21-05-2019 16:00:00 12.09167 C 93.9167 % 11.14 C
642 21-05-2019 17:00:00 12.18333 C 94.0833 % 11.26 C
643 21-05-2019 18:00:00 12.275 C 94.0833 % 11.35 C
644 21-05-2019 19:00:00 12.375 C 93.6667 % 11.38 C
645 21-05-2019 20:00:00 12.21667 C 94.8333 % 11.41 C
646 21-05-2019 21:00:00 12.1 C 95.0000 % 11.32 C
647 21-05-2019 22:00:00 12.04167 C 95.3333 % 11.32 C
648 21-05-2019 23:00:00 11.85833 C 96.0000 % 11.24 C
649 22-05-2019 00:00:00 11.8 C 96.0000 % 11.18 C
650 22-05-2019 01:00:00 11.75 C 96.0000 % 11.13 C
Sensor: Nr:Datum:Temp:Feuchte:Taupunkt:
Aussen-T/F 651 22-05-2019 02:00:00 11.56667 C 96.0000 % 10.95 C
652 22-05-2019 03:00:00 11.575 C 96.0000 % 10.96 C
653 22-05-2019 04:00:00 11.44167 C 95.2500 % 10.71 C
654 22-05-2019 05:00:00 11.33333 C 95.0000 % 10.56 C
655 22-05-2019 06:00:00 11.05 C 94.0000 % 10.12 C
656 22-05-2019 07:00:00 10.66667 C 93.3333 % 9.64 C
657 22-05-2019 08:00:00 10.33333 C 91.9167 % 9.08 C
658 22-05-2019 09:00:00 10.475 C 87.2500 % 8.45 C
659 22-05-2019 10:00:00 10.88333 C 83.4167 % 8.19 C
660 22-05-2019 11:00:00 11.51667 C 82.3333 % 8.61 C
661 22-05-2019 12:00:00 12.85 C 76.6667 % 8.86 C
662 22-05-2019 13:00:00 13.65833 C 73.5833 % 9.03 C
663 22-05-2019 14:00:00 15.01667 C 69.6667 % 9.52 C
664 22-05-2019 15:00:00 17.08333 C 63.7500 % 10.17 C
665 22-05-2019 16:00:00 18.625 C 59.0000 % 10.46 C
666 22-05-2019 17:00:00 18.24167 C 58.7500 % 10.04 C
667 22-05-2019 18:00:00 19.46667 C 54.0833 % 9.94 C
668 22-05-2019 19:00:00 19.025 C 56.0833 % 10.08 C
669 22-05-2019 20:00:00 17.24167 C 70.9167 % 11.92 C
670 22-05-2019 21:00:00 13.73333 C 76.5833 % 9.7 C
671 22-05-2019 22:00:00 11.64167 C 85.5833 % 9.31 C
672 22-05-2019 23:00:00 10.33333 C 89.6667 % 8.71 C
673 23-05-2019 00:00:00 9.5 C 91.6667 % 8.21 C
674 23-05-2019 01:00:00 8.975 C 92.9167 % 7.89 C
675 23-05-2019 02:00:00 8.54167 C 93.6667 % 7.58 C
Sensor: Nr:Datum:Temp:Feuchte:Taupunkt:
Aussen-T/F 676 23-05-2019 03:00:00 8.35833 C 94.8333 % 7.58 C
677 23-05-2019 04:00:00 7.93333 C 95.0000 % 7.18 C
678 23-05-2019 05:00:00 7.71667 C 95.2500 % 7.01 C
679 23-05-2019 06:00:00 7.9 C 96.0000 % 7.3 C
680 23-05-2019 07:00:00 8.675 C 96.0000 % 8.07 C
681 23-05-2019 08:00:00 9.59167 C 95.8333 % 8.96 C
682 23-05-2019 09:00:00 11.05833 C 94.0000 % 10.13 C
683 23-05-2019 10:00:00 13.75 C 87.4167 % 11.7 C
684 23-05-2019 11:00:00 17.49167 C 65.9167 % 11.06 C
685 23-05-2019 12:00:00 18.84167 C 57.8333 % 10.36 C
686 23-05-2019 13:00:00 19.83333 C 56.4167 % 10.92 C
687 23-05-2019 14:00:00 21.25833 C 48.8333 % 10.07 C
688 23-05-2019 15:00:00 22.38333 C 46.0833 % 10.23 C
689 23-05-2019 16:00:00 24.39167 C 39.2500 % 9.64 C
690 23-05-2019 17:00:00 24.78333 C 37.5833 % 9.35 C
691 23-05-2019 18:00:00 24.96667 C 37.5000 % 9.48 C
692 23-05-2019 19:00:00 22.80833 C 52.6667 % 12.64 C
693 23-05-2019 20:00:00 19.33333 C 64.8333 % 12.55 C
694 23-05-2019 21:00:00 16.40833 C 74.0833 % 11.78 C
695 23-05-2019 22:00:00 14.68333 C 82.0000 % 11.65 C
696 23-05-2019 23:00:00 13.66667 C 83.7500 % 10.97 C
697 24-05-2019 00:00:00 12.84167 C 86.3333 % 10.62 C
698 24-05-2019 01:00:00 12.36667 C 87.5833 % 10.37 C
699 24-05-2019 02:00:00 11.83333 C 89.2500 % 10.12 C
700 24-05-2019 03:00:00 11.40833 C 91.0000 % 9.99 C
Sensor: Nr:Datum:Temp:Feuchte:Taupunkt:
Aussen-T/F 701 24-05-2019 04:00:00 11.25 C 92.0000 % 10 C
702 24-05-2019 05:00:00 11.16667 C 92.0000 % 9.92 C
703 24-05-2019 06:00:00 11 C 92.9167 % 9.9 C
704 24-05-2019 07:00:00 11.71667 C 92.7500 % 10.58 C
705 24-05-2019 08:00:00 13.29167 C 88.2500 % 11.39 C
706 24-05-2019 09:00:00 15.28333 C 80.2500 % 11.9 C
707 24-05-2019 10:00:00 16.80833 C 76.3333 % 12.62 C
708 24-05-2019 11:00:00 18.925 C 68.1667 % 12.93 C
709 24-05-2019 12:00:00 20.75833 C 57.3333 % 12.02 C
710 24-05-2019 13:00:00 22.09167 C 46.8333 % 10.21 C
711 24-05-2019 14:00:00 22.98333 C 43.2500 % 9.83 C
712 24-05-2019 15:00:00 23.45 C 40.5000 % 9.27 C
713 24-05-2019 16:00:00 23.88333 C 40.6667 % 9.72 C
714 24-05-2019 17:00:00 24.26667 C 42.4167 % 10.69 C
715 24-05-2019 18:00:00 24.40833 C 41.0833 % 10.34 C
716 24-05-2019 19:00:00 21.04167 C 56.5000 % 12.07 C
717 24-05-2019 20:00:00 19.475 C 61.7500 % 11.95 C
718 24-05-2019 21:00:00 16.96667 C 71.5000 % 11.78 C
719 24-05-2019 22:00:00 15.14167 C 79.5833 % 11.64 C
720 24-05-2019 23:00:00 14.06667 C 84.0000 % 11.41 C
721 25-05-2019 00:00:00 14.75833 C 78.6667 % 11.09 C
722 25-05-2019 01:00:00 13.875 C 77.7500 % 10.06 C
723 25-05-2019 02:00:00 13.125 C 76.0000 % 8.99 C
724 25-05-2019 03:00:00 12.16667 C 76.0833 % 8.08 C
725 25-05-2019 04:00:00 10.84167 C 75.5000 % 6.69 C
Sensor: Nr:Datum:Temp:Feuchte:Taupunkt:
Aussen-T/F 726 25-05-2019 05:00:00 10.2 C 77.2500 % 6.4 C
727 25-05-2019 06:00:00 9.525 C 83.5833 % 6.89 C
728 25-05-2019 07:00:00 10.675 C 80.3333 % 7.43 C
729 25-05-2019 08:00:00 13.04167 C 72.1667 % 8.15 C
730 25-05-2019 09:00:00 14.025 C 71.6667 % 8.99 C
731 25-05-2019 10:00:00 15.3 C 68.2500 % 9.49 C
732 25-05-2019 11:00:00 16.25 C 63.5000 % 9.32 C
733 25-05-2019 12:00:00 16.95833 C 64.4167 % 10.2 C
734 25-05-2019 13:00:00 18.45 C 60.1667 % 10.59 C
735 25-05-2019 14:00:00 19.35833 C 55.0833 % 10.12 C
736 25-05-2019 15:00:00 21.01667 C 50.7500 % 10.43 C
737 25-05-2019 16:00:00 22.06667 C 46.6667 % 10.13 C
738 25-05-2019 17:00:00 21.73333 C 46.0000 % 9.61 C
739 25-05-2019 18:00:00 19.95 C 49.0000 % 8.92 C
740 25-05-2019 19:00:00 18.875 C 54.5833 % 9.53 C
741 25-05-2019 20:00:00 17.98333 C 64.1667 % 11.12 C
742 25-05-2019 21:00:00 16.03333 C 71.4167 % 10.87 C
743 25-05-2019 22:00:00 14.81667 C 75.2500 % 10.48 C
744 25-05-2019 23:00:00 13.38333 C 79.7500 % 9.96 C
745 26-05-2019 00:00:00 11.85 C 85.0000 % 9.41 C
746 26-05-2019 01:00:00 10.775 C 88.8333 % 9.01 C
747 26-05-2019 02:00:00 10.13333 C 90.9167 % 8.72 C
748 26-05-2019 03:00:00 9.44167 C 92.3333 % 8.26 C
749 26-05-2019 04:00:00 8.95 C 93.1667 % 7.91 C
750 26-05-2019 05:00:00 8.825 C 94.4167 % 7.98 C
Sensor: Nr:Datum:Temp:Feuchte:Taupunkt:
Aussen-T/F 751 26-05-2019 06:00:00 9.36667 C 94.5000 % 8.53 C
752 26-05-2019 07:00:00 9.9 C 93.6667 % 8.93 C
753 26-05-2019 08:00:00 11.21667 C 93.1667 % 10.15 C
754 26-05-2019 09:00:00 14.3 C 84.5000 % 11.73 C
755 26-05-2019 10:00:00 16.83333 C 72.8333 % 11.93 C
756 26-05-2019 11:00:00 18.16667 C 63.5833 % 11.15 C
757 26-05-2019 12:00:00 18.99167 C 60.8333 % 11.27 C
758 26-05-2019 13:00:00 20.275 C 58.8333 % 11.96 C
759 26-05-2019 14:00:00 21.68333 C 52.8333 % 11.65 C
760 26-05-2019 15:00:00 23.43333 C 49.0833 % 12.14 C
761 26-05-2019 16:00:00 23.725 C 48.5000 % 12.22 C
762 26-05-2019 17:00:00 21.91667 C 55.7500 % 12.68 C
763 26-05-2019 18:00:00 21.45833 C 58.3333 % 12.94 C
764 26-05-2019 19:00:00 19.93333 C 65.5000 % 13.28 C
765 26-05-2019 20:00:00 18.36667 C 72.2500 % 13.29 C
766 26-05-2019 21:00:00 17.93333 C 70.7500 % 12.55 C
767 26-05-2019 22:00:00 17.68333 C 72.0833 % 12.59 C
768 26-05-2019 23:00:00 16.925 C 75.2500 % 12.52 C
769 27-05-2019 00:00:00 16.29167 C 78.4167 % 12.53 C
770 27-05-2019 01:00:00 15.75 C 80.8333 % 12.47 C
771 27-05-2019 02:00:00 14.7 C 83.2500 % 11.89 C
772 27-05-2019 03:00:00 14.1 C 84.4167 % 11.51 C
773 27-05-2019 04:00:00 13.85 C 87.3333 % 11.78 C
774 27-05-2019 05:00:00 14.19167 C 90.0000 % 12.58 C
775 27-05-2019 06:00:00 13.94167 C 92.8333 % 12.8 C
Sensor: Nr:Datum:Temp:Feuchte:Taupunkt:
Aussen-T/F 776 27-05-2019 07:00:00 14.20833 C 94.0000 % 13.26 C
777 27-05-2019 08:00:00 14.94167 C 93.2500 % 13.86 C
778 27-05-2019 09:00:00 15.61667 C 92.6667 % 14.43 C
779 27-05-2019 10:00:00 15.925 C 91.4167 % 14.53 C
780 27-05-2019 11:00:00 15.25 C 91.5833 % 13.89 C
781 27-05-2019 12:00:00 15.00833 C 93.1667 % 13.91 C
782 27-05-2019 13:00:00 14.39167 C 93.5000 % 13.36 C
783 27-05-2019 14:00:00 14.53333 C 94.3333 % 13.63 C
784 27-05-2019 15:00:00 14.825 C 93.9167 % 13.86 C
785 27-05-2019 16:00:00 15.475 C 93.9167 % 14.5 C
786 27-05-2019 17:00:00 16.075 C 92.5833 % 14.87 C
787 27-05-2019 18:00:00 16.275 C 93.0833 % 15.16 C
788 27-05-2019 19:00:00 16.73333 C 92.9167 % 15.58 C
789 27-05-2019 20:00:00 15.78333 C 91.5833 % 14.42 C
790 27-05-2019 21:00:00 14.68333 C 93.0833 % 13.58 C
791 27-05-2019 22:00:00 13.79167 C 94.2500 % 12.88 C
792 27-05-2019 23:00:00 13.4 C 95.0000 % 12.62 C
793 28-05-2019 00:00:00 12.96667 C 95.6667 % 12.29 C
794 28-05-2019 01:00:00 12.45 C 96.0000 % 11.83 C
795 28-05-2019 02:00:00 12.55 C 96.6667 % 12.03 C
796 28-05-2019 03:00:00 12.41667 C 96.5833 % 11.89 C
797 28-05-2019 04:00:00 11.55 C 96.4167 % 11 C
798 28-05-2019 05:00:00 11.80833 C 97.0000 % 11.35 C
799 28-05-2019 06:00:00 12.18333 C 97.0000 % 11.72 C
800 28-05-2019 07:00:00 12.51667 C 97.0000 % 12.05 C
Sensor: Nr:Datum:Temp:Feuchte:Taupunkt:
Aussen-T/F 801 28-05-2019 08:00:00 12.84167 C 97.0000 % 12.38 C
802 28-05-2019 09:00:00 13.425 C 95.5833 % 12.73 C
803 28-05-2019 10:00:00 14.74167 C 87.5000 % 12.69 C
804 28-05-2019 11:00:00 15.65 C 80.8333 % 12.37 C
805 28-05-2019 12:00:00 16.05 C 74.7500 % 11.57 C
806 28-05-2019 13:00:00 17.49167 C 66.4167 % 11.17 C
807 28-05-2019 14:00:00 16.04167 C 70.3333 % 10.65 C
808 28-05-2019 15:00:00 13.65833 C 84.3333 % 11.07 C
809 28-05-2019 16:00:00 15.80833 C 76.7500 % 11.74 C
810 28-05-2019 17:00:00 16.80833 C 69.8333 % 11.27 C
811 28-05-2019 18:00:00 16.78333 C 65.4167 % 10.27 C
812 28-05-2019 19:00:00 16.08333 C 68.0000 % 10.18 C
813 28-05-2019 20:00:00 14.10833 C 75.7500 % 9.9 C
814 28-05-2019 21:00:00 13.10833 C 81.6667 % 10.05 C
815 28-05-2019 22:00:00 12.15 C 87.5000 % 10.14 C
816 28-05-2019 23:00:00 11.78333 C 88.7500 % 9.99 C
817 29-05-2019 00:00:00 11.70833 C 85.8333 % 9.42 C
818 29-05-2019 01:00:00 11.73333 C 86.5833 % 9.57 C
819 29-05-2019 02:00:00 11.875 C 85.7500 % 9.57 C
820 29-05-2019 03:00:00 11.675 C 87.0000 % 9.59 C
821 29-05-2019 04:00:00 11.44167 C 86.4167 % 9.26 C
822 29-05-2019 05:00:00 11.08333 C 86.5833 % 8.93 C
823 29-05-2019 06:00:00 10.875 C 86.5833 % 8.73 C
824 29-05-2019 07:00:00 10.81667 C 86.0833 % 8.59 C
825 29-05-2019 08:00:00 11.225 C 84.0000 % 8.62 C
Sensor: Nr:Datum:Temp:Feuchte:Taupunkt:
Aussen-T/F 826 29-05-2019 09:00:00 12.225 C 80.3333 % 8.94 C
827 29-05-2019 10:00:00 13.83333 C 71.0833 % 8.69 C
828 29-05-2019 11:00:00 15.09167 C 63.7500 % 8.28 C
829 29-05-2019 12:00:00 15.725 C 60.0833 % 8.01 C
830 29-05-2019 13:00:00 16.48333 C 54.0833 % 7.18 C
831 29-05-2019 14:00:00 17.40833 C 48.4167 % 6.42 C
832 29-05-2019 15:00:00 18.99167 C 44.0000 % 6.48 C
833 29-05-2019 16:00:00 20.91667 C 37.9167 % 6.05 C
834 29-05-2019 17:00:00 22.38333 C 35.0000 % 6.19 C
835 29-05-2019 18:00:00 22.1 C 37.9167 % 7.1 C
836 29-05-2019 19:00:00 21.55 C 44.9167 % 9.09 C
837 29-05-2019 20:00:00 18.66667 C 61.5833 % 11.14 C
838 29-05-2019 21:00:00 15.49167 C 67.4167 % 9.49 C
839 29-05-2019 22:00:00 13.29167 C 77.5000 % 9.45 C
840 29-05-2019 23:00:00 12.91667 C 79.2500 % 9.41 C
841 30-05-2019 00:00:00 12.05833 C 81.2500 % 8.95 C
842 30-05-2019 01:00:00 11.44167 C 84.4167 % 8.91 C
843 30-05-2019 02:00:00 10.88333 C 86.1667 % 8.67 C
844 30-05-2019 03:00:00 9.95 C 88.5833 % 8.15 C
845 30-05-2019 04:00:00 9.56667 C 90.5833 % 8.1 C
846 30-05-2019 05:00:00 9.1 C 92.0000 % 7.87 C
847 30-05-2019 06:00:00 9.71667 C 93.5000 % 8.72 C
848 30-05-2019 07:00:00 10.925 C 91.4167 % 9.58 C
849 30-05-2019 08:00:00 12.375 C 85.9167 % 10.09 C
850 30-05-2019 09:00:00 14.10833 C 81.4167 % 10.98 C
Sensor: Nr:Datum:Temp:Feuchte:Taupunkt:
Aussen-T/F 851 30-05-2019 10:00:00 16.09167 C 76.2500 % 11.91 C
852 30-05-2019 11:00:00 18.18333 C 65.4167 % 11.6 C
853 30-05-2019 12:00:00 18.2 C 65.5000 % 11.63 C
854 30-05-2019 13:00:00 18.23333 C 70.0833 % 12.69 C
855 30-05-2019 14:00:00 19.425 C 67.1667 % 13.18 C
856 30-05-2019 15:00:00 21.175 C 64.3333 % 14.18 C
857 30-05-2019 16:00:00 21.95833 C 62.9167 % 14.57 C
858 30-05-2019 17:00:00 21.625 C 64.7500 % 14.7 C
859 30-05-2019 18:00:00 20.95833 C 67.8333 % 14.79 C
860 30-05-2019 19:00:00 19.95 C 72.0000 % 14.75 C
861 30-05-2019 20:00:00 18.94167 C 77.1667 % 14.85 C
862 30-05-2019 21:00:00 17.675 C 81.8333 % 14.53 C
863 30-05-2019 22:00:00 16.54167 C 85.6667 % 14.13 C
864 30-05-2019 23:00:00 15.89167 C 88.0000 % 13.91 C
865 31-05-2019 00:00:00 15.65 C 89.9167 % 14 C
866 31-05-2019 01:00:00 15.61667 C 90.8333 % 14.12 C
867 31-05-2019 02:00:00 15.46667 C 90.8333 % 13.98 C
868 31-05-2019 03:00:00 14.41667 C 92.0833 % 13.15 C
869 31-05-2019 04:00:00 13.56667 C 93.2500 % 12.5 C
870 31-05-2019 05:00:00 12.83333 C 94.5000 % 11.97 C
871 31-05-2019 06:00:00 12.75 C 95.0000 % 11.97 C
872 31-05-2019 07:00:00 13.1 C 95.9167 % 12.46 C
873 31-05-2019 08:00:00 14.175 C 95.7500 % 13.51 C
874 31-05-2019 09:00:00 16.24167 C 87.9167 % 14.24 C
875 31-05-2019 10:00:00 18.69167 C 74.5833 % 14.09 C
Sensor: Nr:Datum:Temp:Feuchte:Taupunkt:
Aussen-T/F 876 31-05-2019 11:00:00 20.225 C 68.2500 % 14.19 C
877 31-05-2019 12:00:00 21.375 C 65.3333 % 14.61 C
878 31-05-2019 13:00:00 22.725 C 60.4167 % 14.67 C
879 31-05-2019 14:00:00 23.925 C 55.5000 % 14.48 C
880 31-05-2019 15:00:00 25.28333 C 51.5833 % 14.6 C
881 31-05-2019 16:00:00 27.3 C 45.1667 % 14.38 C
882 31-05-2019 17:00:00 27.50833 C 44.6667 % 14.4 C
883 31-05-2019 18:00:00 27.58333 C 43.0833 % 13.91 C
884 31-05-2019 19:00:00 25.63333 C 51.5833 % 14.92 C
885 31-05-2019 20:00:00 23.64167 C 58.6667 % 15.07 C
886 31-05-2019 21:00:00 20.09167 C 71.7500 % 14.83 C
887 31-05-2019 22:00:00 17.725 C 78.6667 % 13.97 C
888 31-05-2019 23:00:00 15.91667 C 85.0833 % 13.41 C
889 01-06-2019 00:00:00 14.65 C 88.8333 % 12.83 C
890 01-06-2019 01:00:00 13.91667 C 91.5833 % 12.57 C
891 01-06-2019 02:00:00 13.325 C 92.6667 % 12.16 C
892 01-06-2019 03:00:00 12.83333 C 93.7500 % 11.85 C
893 01-06-2019 04:00:00 12.2 C 94.0000 % 11.26 C
894 01-06-2019 05:00:00 11.75833 C 94.9167 % 10.97 C
895 01-06-2019 06:00:00 11.825 C 95.3333 % 11.1 C
896 01-06-2019 07:00:00 12.61667 C 96.0000 % 12 C
897 01-06-2019 08:00:00 13.875 C 94.7500 % 13.05 C
898 01-06-2019 09:00:00 15.45 C 91.6667 % 14.1 C
899 01-06-2019 10:00:00 18.14167 C 84.5000 % 15.49 C
900 01-06-2019 11:00:00 20.91667 C 72.0000 % 15.68 C
Sensor: Nr:Datum:Temp:Feuchte:Taupunkt:
Aussen-T/F 901 01-06-2019 12:00:00 23.01667 C 63.7500 % 15.78 C
902 01-06-2019 13:00:00 24.31667 C 59.3333 % 15.88 C
903 01-06-2019 14:00:00 25.51667 C 55.6667 % 16 C
904 01-06-2019 15:00:00 27.83333 C 49.5000 % 16.3 C
905 01-06-2019 16:00:00 29.975 C 43.6667 % 16.27 C
906 01-06-2019 17:00:00 30.09167 C 42.1667 % 15.83 C
907 01-06-2019 18:00:00 30.23333 C 43.3333 % 16.38 C
908 01-06-2019 19:00:00 29.675 C 50.7500 % 18.38 C
909 01-06-2019 20:00:00 26.65833 C 58.9167 % 17.96 C
910 01-06-2019 21:00:00 22.7 C 68.0000 % 16.49 C
911 01-06-2019 22:00:00 20.00833 C 76.0833 % 15.67 C
912 01-06-2019 23:00:00 18.20833 C 82.2500 % 15.13 C
913 02-06-2019 00:00:00 16.75833 C 86.5000 % 14.49 C
914 02-06-2019 01:00:00 15.66667 C 89.3333 % 13.92 C
915 02-06-2019 02:00:00 14.925 C 91.7500 % 13.6 C
916 02-06-2019 03:00:00 14.325 C 93.0000 % 13.21 C
917 02-06-2019 04:00:00 13.81667 C 93.9167 % 12.85 C
918 02-06-2019 05:00:00 13.29167 C 94.5833 % 12.44 C
919 02-06-2019 06:00:00 13.40833 C 95.3333 % 12.68 C
920 02-06-2019 07:00:00 13.95833 C 95.9167 % 13.32 C
921 02-06-2019 08:00:00 15.03333 C 96.0000 % 14.4 C
922 02-06-2019 09:00:00 16.60833 C 95.9167 % 15.95 C
923 02-06-2019 10:00:00 19.64167 C 88.6667 % 17.72 C
924 02-06-2019 11:00:00 23.11667 C 77.1667 % 18.9 C
925 02-06-2019 12:00:00 26.66667 C 57.8333 % 17.67 C
Sensor: Nr:Datum:Temp:Feuchte:Taupunkt:
Aussen-T/F 926 02-06-2019 13:00:00 27.96667 C 46.3333 % 15.38 C
927 02-06-2019 14:00:00 29.1 C 45.5833 % 16.16 C
928 02-06-2019 15:00:00 31.04167 C 42.4167 % 16.77 C
929 02-06-2019 16:00:00 32.76667 C 37.2500 % 16.26 C
930 02-06-2019 17:00:00 33.1 C 37.2500 % 16.56 C
931 02-06-2019 18:00:00 33 C 37.9167 % 16.75 C
932 02-06-2019 19:00:00 32.23333 C 40.0000 % 16.91 C
933 02-06-2019 20:00:00 28.7 C 49.5000 % 17.09 C
934 02-06-2019 21:00:00 24.375 C 58.3333 % 15.67 C
935 02-06-2019 22:00:00 21.35833 C 67.9167 % 15.19 C
936 02-06-2019 23:00:00 19.30833 C 74.8333 % 14.73 C
937 03-06-2019 00:00:00 17.75833 C 79.8333 % 14.23 C
938 03-06-2019 01:00:00 16.825 C 82.3333 % 13.8 C
939 03-06-2019 02:00:00 16.15 C 84.9167 % 13.61 C
940 03-06-2019 03:00:00 15.51667 C 87.5833 % 13.47 C
941 03-06-2019 04:00:00 14.84167 C 89.9167 % 13.2 C
942 03-06-2019 05:00:00 14.775 C 91.8333 % 13.46 C
943 03-06-2019 06:00:00 15.23333 C 92.0000 % 13.94 C
944 03-06-2019 07:00:00 16.11667 C 91.5833 % 14.75 C
945 03-06-2019 08:00:00 17.63333 C 88.6667 % 15.74 C
946 03-06-2019 09:00:00 20.30833 C 85.2500 % 17.75 C
947 03-06-2019 10:00:00 21.325 C 86.5833 % 18.99 C
948 03-06-2019 11:00:00 23.475 C 74.5833 % 18.7 C
949 03-06-2019 12:00:00 26.39167 C 59.7500 % 17.93 C
950 03-06-2019 13:00:00 27.69167 C 52.7500 % 17.17 C
Sensor: Nr:Datum:Temp:Feuchte:Taupunkt:
Aussen-T/F 951 03-06-2019 14:00:00 28.44167 C 40.5000 % 13.73 C
952 03-06-2019 15:00:00 29.40833 C 35.0000 % 12.35 C
953 03-06-2019 16:00:00 26.71667 C 46.0833 % 14.17 C
954 03-06-2019 17:00:00 25.15833 C 57.9167 % 16.29 C
955 03-06-2019 18:00:00 23.71667 C 63.9167 % 16.48 C
956 03-06-2019 19:00:00 22.66667 C 68.0833 % 16.48 C
957 03-06-2019 20:00:00 22.29167 C 70.0000 % 16.56 C
958 03-06-2019 21:00:00 20.63333 C 74.5833 % 15.96 C
959 03-06-2019 22:00:00 19.40833 C 77.7500 % 15.42 C
960 03-06-2019 23:00:00 18.06667 C 81.5833 % 14.87 C
961 04-06-2019 00:00:00 16.71667 C 86.5000 % 14.45 C
962 04-06-2019 01:00:00 15.84167 C 89.7500 % 14.16 C
963 04-06-2019 02:00:00 15.15 C 91.8333 % 13.83 C
964 04-06-2019 03:00:00 14.41667 C 92.9167 % 13.29 C
965 04-06-2019 04:00:00 13.65833 C 93.5000 % 12.63 C
966 04-06-2019 05:00:00 13.2 C 94.2500 % 12.3 C
967 04-06-2019 06:00:00 13.275 C 95.1667 % 12.52 C
968 04-06-2019 07:00:00 14.525 C 95.0000 % 13.73 C
969 04-06-2019 08:00:00 16.05 C 91.9167 % 14.74 C
970 04-06-2019 09:00:00 17.45 C 88.6667 % 15.56 C
971 04-06-2019 10:00:00 20.16667 C 78.6667 % 16.34 C
972 04-06-2019 11:00:00 22.35833 C 71.0833 % 16.86 C
973 04-06-2019 12:00:00 23.89167 C 68.1667 % 17.66 C
974 04-06-2019 13:00:00 25.74167 C 60.4167 % 17.5 C
975 04-06-2019 14:00:00 27.4 C 54.5833 % 17.44 C
Sensor: Nr:Datum:Temp:Feuchte:Taupunkt:
Aussen-T/F 976 04-06-2019 15:00:00 28.7 C 52.2500 % 17.95 C
977 04-06-2019 16:00:00 30.56667 C 49.5833 % 18.82 C
978 04-06-2019 17:00:00 31.925 C 44.4167 % 18.3 C
979 04-06-2019 18:00:00 31.24167 C 47.4167 % 18.72 C
980 04-06-2019 19:00:00 29.25 C 54.9167 % 19.25 C
981 04-06-2019 20:00:00 26.51667 C 62.5833 % 18.79 C
982 04-06-2019 21:00:00 23.36667 C 67.6667 % 17.05 C
983 04-06-2019 22:00:00 22.025 C 70.6667 % 16.45 C
984 04-06-2019 23:00:00 22.70833 C 64.8333 % 15.75 C
985 05-06-2019 00:00:00 23.28333 C 63.0000 % 15.85 C
986 05-06-2019 01:00:00 21.33333 C 69.9167 % 15.62 C
987 05-06-2019 02:00:00 20.575 C 74.1667 % 15.81 C
988 05-06-2019 03:00:00 19.35 C 77.8333 % 15.38 C
989 05-06-2019 04:00:00 18.80833 C 80.2500 % 15.33 C
990 05-06-2019 05:00:00 17.44167 C 83.8333 % 14.68 C
991 05-06-2019 06:00:00 17.69167 C 85.2500 % 15.18 C
992 05-06-2019 07:00:00 17.98333 C 86.5833 % 15.71 C
993 05-06-2019 08:00:00 18.38333 C 88.0000 % 16.36 C
994 05-06-2019 09:00:00 21.025 C 76.4167 % 16.72 C
995 05-06-2019 10:00:00 22.73333 C 70.5833 % 17.11 C
996 05-06-2019 11:00:00 23.64167 C 66.3333 % 17 C
997 05-06-2019 12:00:00 24.34167 C 63.2500 % 16.91 C
998 05-06-2019 13:00:00 25.925 C 60.1667 % 17.61 C
999 05-06-2019 14:00:00 27.25833 C 56.0833 % 17.74 C
1000 05-06-2019 15:00:00 29.5 C 49.5833 % 17.85 C
Sensor: Nr:Datum:Temp:Feuchte:Taupunkt:
Aussen-T/F 1001 05-06-2019 16:00:00 31.35 C 41.7500 % 16.8 C
1002 05-06-2019 17:00:00 30.43333 C 46.7500 % 17.76 C
1003 05-06-2019 18:00:00 28.60833 C 56.1667 % 19.01 C
1004 05-06-2019 19:00:00 29.73333 C 54.6667 % 19.62 C
1005 05-06-2019 20:00:00 27.55833 C 56.5833 % 18.16 C
1006 05-06-2019 21:00:00 23.44167 C 68.3333 % 17.27 C
1007 05-06-2019 22:00:00 21.625 C 75.6667 % 17.14 C
1008 05-06-2019 23:00:00 20.83333 C 77.2500 % 16.7 C
1009 06-06-2019 00:00:00 21.575 C 69.2500 % 15.7 C
1010 06-06-2019 01:00:00 18.925 C 81.5833 % 15.71 C
1011 06-06-2019 02:00:00 17.10833 C 91.9167 % 15.78 C
1012 06-06-2019 03:00:00 16.70833 C 93.6667 % 15.68 C
1013 06-06-2019 04:00:00 16.48333 C 94.5833 % 15.61 C
1014 06-06-2019 05:00:00 15.51667 C 93.6667 % 14.5 C
1015 06-06-2019 06:00:00 13.94167 C 92.3333 % 12.72 C
1016 06-06-2019 07:00:00 13.19167 C 89.6667 % 11.53 C
1017 06-06-2019 08:00:00 13.325 C 84.5833 % 10.78 C
1018 06-06-2019 09:00:00 13.10833 C 81.1667 % 9.96 C
1019 06-06-2019 10:00:00 13.80833 C 80.0000 % 10.42 C
1020 06-06-2019 11:00:00 14.93333 C 75.5000 % 10.64 C
1021 06-06-2019 12:00:00 15.40833 C 73.2500 % 10.65 C
1022 06-06-2019 13:00:00 16.49167 C 69.3333 % 10.86 C
1023 06-06-2019 14:00:00 17.025 C 68.1667 % 11.12 C
1024 06-06-2019 15:00:00 17.75833 C 66.4167 % 11.42 C
1025 06-06-2019 16:00:00 18 C 65.5000 % 11.44 C
Sensor: Nr:Datum:Temp:Feuchte:Taupunkt:
Aussen-T/F 1026 06-06-2019 17:00:00 16.73333 C 69.1667 % 11.06 C
1027 06-06-2019 18:00:00 16.975 C 69.9167 % 11.45 C
1028 06-06-2019 19:00:00 18.26667 C 63.5833 % 11.25 C
1029 06-06-2019 20:00:00 17.725 C 65.3333 % 11.14 C
1030 06-06-2019 21:00:00 15.43333 C 75.4167 % 11.11 C
1031 06-06-2019 22:00:00 12.75 C 83.8333 % 10.09 C
1032 06-06-2019 23:00:00 11.43333 C 87.5000 % 9.43 C
1033 07-06-2019 00:00:00 10.475 C 90.4167 % 8.97 C
1034 07-06-2019 01:00:00 9.875 C 92.1667 % 8.66 C
1035 07-06-2019 02:00:00 9.425 C 93.0833 % 8.36 C
1036 07-06-2019 03:00:00 9.56667 C 94.5000 % 8.73 C
1037 07-06-2019 04:00:00 10.13333 C 94.6667 % 9.32 C
1038 07-06-2019 05:00:00 9.23333 C 94.3333 % 8.37 C
1039 07-06-2019 06:00:00 9.60833 C 95.7500 % 8.96 C
1040 07-06-2019 07:00:00 10.38333 C 96.0000 % 9.77 C
1041 07-06-2019 08:00:00 11.86667 C 92.5833 % 10.7 C
1042 07-06-2019 09:00:00 13.75833 C 84.1667 % 11.13 C
1043 07-06-2019 10:00:00 16.65 C 75.8333 % 12.37 C
1044 07-06-2019 11:00:00 18.75833 C 65.5000 % 12.16 C
1045 07-06-2019 12:00:00 19.9 C 63.4167 % 12.75 C
1046 07-06-2019 13:00:00 20.89167 C 64.3333 % 13.91 C
1047 07-06-2019 14:00:00 21.09167 C 68.1667 % 15 C
1048 07-06-2019 15:00:00 24.175 C 57.1667 % 15.17 C
1049 07-06-2019 16:00:00 25.96667 C 50.5833 % 14.92 C
1050 07-06-2019 17:00:00 25.36667 C 57.9167 % 16.48 C
Sensor: Nr:Datum:Temp:Feuchte:Taupunkt:
Aussen-T/F 1051 07-06-2019 18:00:00 21.74167 C 58.5833 % 13.27 C
1052 07-06-2019 19:00:00 17.18333 C 62.6667 % 10.01 C
1053 07-06-2019 20:00:00 15.41667 C 71.6667 % 10.33 C
1054 07-06-2019 21:00:00 14.95 C 72.9167 % 10.14 C
1055 07-06-2019 22:00:00 14.8 C 69.8333 % 9.35 C
1056 07-06-2019 23:00:00 15.125 C 66.5000 % 8.94 C
1057 08-06-2019 00:00:00 15.46667 C 66.4167 % 9.24 C
1058 08-06-2019 01:00:00 15.61667 C 65.2500 % 9.12 C
1059 08-06-2019 02:00:00 15.34167 C 67.0833 % 9.27 C
1060 08-06-2019 03:00:00 15.06667 C 67.0000 % 8.99 C
1061 08-06-2019 04:00:00 14.86667 C 64.0000 % 8.13 C
1062 08-06-2019 05:00:00 14.10833 C 63.3333 % 7.26 C
1063 08-06-2019 06:00:00 13.325 C 66.7500 % 7.28 C
1064 08-06-2019 07:00:00 13.69167 C 65.5000 % 7.35 C
1065 08-06-2019 08:00:00 14.29167 C 65.3333 % 7.88 C
1066 08-06-2019 09:00:00 14.575 C 66.0833 % 8.32 C
1067 08-06-2019 10:00:00 14.90833 C 66.5833 % 8.75 C
1068 08-06-2019 11:00:00 15.70833 C 64.1667 % 8.96 C
1069 08-06-2019 12:00:00 16.525 C 61.5000 % 9.11 C
1070 08-06-2019 13:00:00 17.38333 C 57.6667 % 8.96 C
1071 08-06-2019 14:00:00 18.325 C 55.7500 % 9.34 C
1072 08-06-2019 15:00:00 19.15 C 52.5000 % 9.21 C
1073 08-06-2019 16:00:00 19.65833 C 50.8333 % 9.2 C
1074 08-06-2019 17:00:00 19.925 C 49.5000 % 9.05 C
1075 08-06-2019 18:00:00 19.95833 C 49.4167 % 9.06 C
Sensor: Nr:Datum:Temp:Feuchte:Taupunkt:
Aussen-T/F 1076 08-06-2019 19:00:00 18.98333 C 54.5000 % 9.61 C
1077 08-06-2019 20:00:00 17.61667 C 62.2500 % 10.32 C
1078 08-06-2019 21:00:00 16.11667 C 70.0000 % 10.65 C
1079 08-06-2019 22:00:00 14.39167 C 74.5833 % 9.94 C
1080 08-06-2019 23:00:00 12.65833 C 80.5833 % 9.41 C
1081 09-06-2019 00:00:00 11.66667 C 84.6667 % 9.17 C
1082 09-06-2019 01:00:00 11.08333 C 86.9167 % 8.99 C
1083 09-06-2019 02:00:00 10.925 C 87.3333 % 8.91 C
1084 09-06-2019 03:00:00 10.28333 C 89.0833 % 8.57 C
1085 09-06-2019 04:00:00 9.4 C 90.3333 % 7.9 C
1086 09-06-2019 05:00:00 8.675 C 92.3333 % 7.5 C
1087 09-06-2019 06:00:00 8.63333 C 93.4167 % 7.63 C
1088 09-06-2019 07:00:00 9.68333 C 94.4167 % 8.83 C
1089 09-06-2019 08:00:00 11.03333 C 94.2500 % 10.15 C
1090 09-06-2019 09:00:00 12.80833 C 90.8333 % 11.35 C
1091 09-06-2019 10:00:00 16.55 C 73.0000 % 11.7 C
1092 09-06-2019 11:00:00 18.86667 C 57.5833 % 10.32 C
1093 09-06-2019 12:00:00 19.76667 C 53.6667 % 10.11 C
1094 09-06-2019 13:00:00 20.71667 C 51.6667 % 10.42 C
1095 09-06-2019 14:00:00 21.925 C 50.5000 % 11.19 C
1096 09-06-2019 15:00:00 22.45833 C 50.3333 % 11.63 C
1097 09-06-2019 16:00:00 22.79167 C 50.6667 % 12.03 C
1098 09-06-2019 17:00:00 22.7 C 51.5833 % 12.22 C
1099 09-06-2019 18:00:00 23.09167 C 50.4167 % 12.23 C
1100 09-06-2019 19:00:00 21.64167 C 63.5000 % 14.42 C
Sensor: Nr:Datum:Temp:Feuchte:Taupunkt:
Aussen-T/F 1101 09-06-2019 20:00:00 19.74167 C 69.0833 % 13.91 C
1102 09-06-2019 21:00:00 18.86667 C 72.1667 % 13.75 C
1103 09-06-2019 22:00:00 18.36667 C 74.5833 % 13.77 C
1104 09-06-2019 23:00:00 17.95 C 76.1667 % 13.69 C
1105 10-06-2019 00:00:00 17.525 C 77.8333 % 13.62 C
1106 10-06-2019 01:00:00 16.95833 C 77.6667 % 13.03 C
1107 10-06-2019 02:00:00 16.08333 C 79.7500 % 12.59 C
1108 10-06-2019 03:00:00 14.94167 C 84.7500 % 12.4 C
1109 10-06-2019 04:00:00 14.625 C 86.5000 % 12.4 C
1110 10-06-2019 05:00:00 14.775 C 87.5000 % 12.72 C
1111 10-06-2019 06:00:00 14.825 C 88.5000 % 12.94 C
1112 10-06-2019 07:00:00 15.5 C 87.4167 % 13.42 C
1113 10-06-2019 08:00:00 17.725 C 80.2500 % 14.28 C
1114 10-06-2019 09:00:00 18.94167 C 75.8333 % 14.58 C
1115 10-06-2019 10:00:00 19.85 C 73.1667 % 14.91 C
1116 10-06-2019 11:00:00 21.15833 C 68.5000 % 15.13 C
1117 10-06-2019 12:00:00 22.34167 C 63.6667 % 15.12 C
1118 10-06-2019 13:00:00 23.06667 C 61.5833 % 15.29 C
1119 10-06-2019 14:00:00 23.225 C 62.5833 % 15.69 C
1120 10-06-2019 15:00:00 23.225 C 62.9167 % 15.77 C
1121 10-06-2019 16:00:00 24.06667 C 59.8333 % 15.78 C
1122 10-06-2019 17:00:00 23.65 C 60.7500 % 15.62 C
1123 10-06-2019 18:00:00 23.19167 C 61.9167 % 15.49 C
1124 10-06-2019 19:00:00 21.7 C 64.6667 % 14.76 C
1125 10-06-2019 20:00:00 20.61667 C 69.9167 % 14.94 C
Sensor: Nr:Datum:Temp:Feuchte:Taupunkt:
Aussen-T/F 1126 10-06-2019 21:00:00 19.38333 C 74.6667 % 14.77 C
1127 10-06-2019 22:00:00 17.975 C 79.5000 % 14.38 C
1128 10-06-2019 23:00:00 17.09167 C 82.5000 % 14.09 C
1129 11-06-2019 00:00:00 16.55833 C 85.5000 % 14.12 C
1130 11-06-2019 01:00:00 16.38333 C 86.8333 % 14.19 C
1131 11-06-2019 02:00:00 16.15833 C 86.2500 % 13.86 C
1132 11-06-2019 03:00:00 15.29167 C 90.6667 % 13.78 C
1133 11-06-2019 04:00:00 14.6 C 93.0833 % 13.5 C
1134 11-06-2019 05:00:00 14.21667 C 94.0000 % 13.27 C
1135 11-06-2019 06:00:00 14.15833 C 94.8333 % 13.34 C
1136 11-06-2019 07:00:00 14.5 C 95.3333 % 13.76 C
1137 11-06-2019 08:00:00 15.01667 C 95.5833 % 14.32 C
1138 11-06-2019 09:00:00 15.34167 C 93.8333 % 14.35 C
1139 11-06-2019 10:00:00 16.16667 C 90.7500 % 14.65 C
1140 11-06-2019 11:00:00 16.925 C 85.2500 % 14.43 C
1141 11-06-2019 12:00:00 17.81667 C 78.5833 % 14.05 C
1142 11-06-2019 13:00:00 19.09167 C 71.9167 % 13.91 C
1143 11-06-2019 14:00:00 20.24167 C 66.0833 % 13.71 C
1144 11-06-2019 15:00:00 21.31667 C 61.8333 % 13.7 C
1145 11-06-2019 16:00:00 20.94167 C 66.5000 % 14.47 C
1146 11-06-2019 17:00:00 19.28333 C 79.3333 % 15.62 C
1147 11-06-2019 18:00:00 18.75833 C 82.1667 % 15.65 C
1148 11-06-2019 19:00:00 20.35 C 71.0000 % 14.92 C
1149 11-06-2019 20:00:00 19.19167 C 79.8333 % 15.63 C
1150 11-06-2019 21:00:00 17.76667 C 83.1667 % 14.87 C
Sensor: Nr:Datum:Temp:Feuchte:Taupunkt:
Aussen-T/F 1151 11-06-2019 22:00:00 16.79167 C 84.7500 % 14.21 C
1152 11-06-2019 23:00:00 15.70833 C 86.5000 % 13.46 C
1153 12-06-2019 00:00:00 15.16667 C 87.0000 % 13.02 C
1154 12-06-2019 01:00:00 14.39167 C 88.8333 % 12.57 C
1155 12-06-2019 02:00:00 14.59167 C 90.0000 % 12.97 C
1156 12-06-2019 03:00:00 14.525 C 90.7500 % 13.03 C
1157 12-06-2019 04:00:00 14.39167 C 91.0000 % 12.94 C
1158 12-06-2019 05:00:00 14.125 C 91.7500 % 12.8 C
1159 12-06-2019 06:00:00 13.95833 C 92.4167 % 12.75 C
1160 12-06-2019 07:00:00 14.875 C 91.3333 % 13.48 C
1161 12-06-2019 08:00:00 15.81667 C 88.6667 % 13.95 C
1162 12-06-2019 09:00:00 16.53333 C 85.8333 % 14.15 C
1163 12-06-2019 10:00:00 15.15 C 91.9167 % 13.85 C
1164 12-06-2019 11:00:00 13.975 C 93.4167 % 12.93 C
1165 12-06-2019 12:00:00 14.40833 C 95.0000 % 13.62 C
1166 12-06-2019 13:00:00 15.325 C 93.0000 % 14.2 C
1167 12-06-2019 14:00:00 17.175 C 83.9167 % 14.43 C
1168 12-06-2019 15:00:00 18.2 C 77.9167 % 14.29 C
1169 12-06-2019 16:00:00 20.125 C 66.5833 % 13.71 C
1170 12-06-2019 17:00:00 21.81667 C 59.0000 % 13.45 C
1171 12-06-2019 18:00:00 22.64167 C 53.9167 % 12.84 C
1172 12-06-2019 19:00:00 21.925 C 53.0833 % 11.94 C
1173 12-06-2019 20:00:00 21.23333 C 62.8333 % 13.87 C
1174 12-06-2019 21:00:00 17.83333 C 74.5000 % 13.24 C
1175 12-06-2019 22:00:00 14.38333 C 84.7500 % 11.85 C
Sensor: Nr:Datum:Temp:Feuchte:Taupunkt:
Aussen-T/F 1176 12-06-2019 23:00:00 13.15833 C 88.2500 % 11.26 C
1177 13-06-2019 00:00:00 12.55833 C 89.5833 % 10.89 C
1178 13-06-2019 01:00:00 11.68333 C 90.7500 % 10.22 C
1179 13-06-2019 02:00:00 10.9 C 92.4167 % 9.72 C
1180 13-06-2019 03:00:00 10.29167 C 93.5833 % 9.3 C
1181 13-06-2019 04:00:00 9.775 C 94.0000 % 8.86 C
1182 13-06-2019 05:00:00 9.45833 C 94.9167 % 8.69 C
1183 13-06-2019 06:00:00 9.50833 C 95.3333 % 8.8 C
1184 13-06-2019 07:00:00 10.31667 C 96.0000 % 9.71 C
1185 13-06-2019 08:00:00 11.75 C 95.6667 % 11.08 C
1186 13-06-2019 09:00:00 15.15833 C 79.0833 % 11.56 C
1187 13-06-2019 10:00:00 17.91667 C 65.0833 % 11.27 C
1188 13-06-2019 11:00:00 19.15 C 60.8333 % 11.41 C
1189 13-06-2019 12:00:00 19.41667 C 57.0000 % 10.68 C
1190 13-06-2019 13:00:00 20.875 C 53.3333 % 11.04 C
1191 13-06-2019 14:00:00 21.26667 C 51.1667 % 10.78 C
1192 13-06-2019 15:00:00 22.13333 C 48.6667 % 10.82 C
1193 13-06-2019 16:00:00 23.85833 C 42.2500 % 10.27 C
1194 13-06-2019 17:00:00 24.41667 C 41.5833 % 10.53 C
1195 13-06-2019 18:00:00 24.325 C 43.0833 % 10.98 C
1196 13-06-2019 19:00:00 20.40833 C 65.3333 % 13.69 C
1197 13-06-2019 20:00:00 15.975 C 89.5000 % 14.25 C
1198 13-06-2019 21:00:00 15.11667 C 89.0000 % 13.32 C
1199 13-06-2019 22:00:00 13.21667 C 91.6667 % 11.89 C
1200 13-06-2019 23:00:00 12.78333 C 93.8333 % 11.82 C
Sensor: Nr:Datum:Temp:Feuchte:Taupunkt:
Aussen-T/F 1201 14-06-2019 00:00:00 12.06667 C 94.1667 % 11.16 C
1202 14-06-2019 01:00:00 11.73333 C 95.1667 % 10.99 C
1203 14-06-2019 02:00:00 12.16667 C 96.0000 % 11.55 C
1204 14-06-2019 03:00:00 12.00833 C 96.0000 % 11.39 C
1205 14-06-2019 04:00:00 11.59167 C 96.0000 % 10.98 C
1206 14-06-2019 05:00:00 11.41667 C 96.4167 % 10.87 C
1207 14-06-2019 06:00:00 11.33333 C 96.7500 % 10.84 C
1208 14-06-2019 07:00:00 11.43333 C 97.0000 % 10.97 C
1209 14-06-2019 08:00:00 12.15 C 97.0000 % 11.69 C
1210 14-06-2019 09:00:00 14.29167 C 97.8333 % 13.95 C
1211 14-06-2019 10:00:00 17.16667 C 98.0000 % 16.85 C
1212 14-06-2019 11:00:00 18.61667 C 96.0000 % 17.97 C
1213 14-06-2019 12:00:00 21.65833 C 71.3333 % 16.25 C
1214 14-06-2019 13:00:00 24.26667 C 57.5833 % 15.37 C
1215 14-06-2019 14:00:00 26 C 50.2500 % 14.85 C
1216 14-06-2019 15:00:00 26.35 C 50.6667 % 15.3 C
1217 14-06-2019 16:00:00 25.95 C 57.5000 % 16.91 C
1218 14-06-2019 17:00:00 25.23333 C 65.7500 % 18.37 C
1219 14-06-2019 18:00:00 24.49167 C 68.7500 % 18.37 C
1220 14-06-2019 19:00:00 22.55 C 74.2500 % 17.74 C
1221 14-06-2019 20:00:00 20.29167 C 78.3333 % 16.4 C
1222 14-06-2019 21:00:00 19.08333 C 83.5000 % 16.22 C
1223 14-06-2019 22:00:00 18.79167 C 83.7500 % 15.98 C
1224 14-06-2019 23:00:00 18.6 C 86.5000 % 16.3 C
1225 15-06-2019 00:00:00 17.59167 C 91.5833 % 16.21 C
Sensor: Nr:Datum:Temp:Feuchte:Taupunkt:
Aussen-T/F 1226 15-06-2019 01:00:00 16.49167 C 93.1667 % 15.38 C
1227 15-06-2019 02:00:00 15.68333 C 94.1667 % 14.75 C
1228 15-06-2019 03:00:00 15.16667 C 95.0833 % 14.38 C
1229 15-06-2019 04:00:00 15.14167 C 95.6667 % 14.45 C
1230 15-06-2019 05:00:00 15.01667 C 96.0833 % 14.4 C
1231 15-06-2019 06:00:00 15.54167 C 96.4167 % 14.97 C
1232 15-06-2019 07:00:00 16.175 C 97.0000 % 15.7 C
1233 15-06-2019 08:00:00 16.94167 C 96.4167 % 16.37 C
1234 15-06-2019 09:00:00 18.45833 C 89.9167 % 16.77 C
1235 15-06-2019 10:00:00 19.93333 C 81.8333 % 16.74 C
1236 15-06-2019 11:00:00 20.8 C 72.4167 % 15.66 C
1237 15-06-2019 12:00:00 21.60833 C 69.5833 % 15.81 C
1238 15-06-2019 13:00:00 21.28333 C 73.9167 % 16.44 C
1239 15-06-2019 14:00:00 21.65833 C 73.5000 % 16.72 C
1240 15-06-2019 15:00:00 22.11667 C 69.6667 % 16.31 C
1241 15-06-2019 16:00:00 23.775 C 63.6667 % 16.48 C
1242 15-06-2019 17:00:00 25.35833 C 54.7500 % 15.59 C
1243 15-06-2019 18:00:00 26.24167 C 48.8333 % 14.63 C
1244 15-06-2019 19:00:00 25.35833 C 54.0833 % 15.4 C
1245 15-06-2019 20:00:00 23.43333 C 65.5000 % 16.6 C
1246 15-06-2019 21:00:00 21.01667 C 71.0833 % 15.58 C
1247 15-06-2019 22:00:00 18.48333 C 78.6667 % 14.71 C
1248 15-06-2019 23:00:00 17.625 C 81.7500 % 14.47 C
1249 16-06-2019 00:00:00 17.3 C 83.2500 % 14.43 C
1250 16-06-2019 01:00:00 17.4 C 83.0833 % 14.5 C
Sensor: Nr:Datum:Temp:Feuchte:Taupunkt:
Aussen-T/F 1251 16-06-2019 02:00:00 17.19167 C 83.9167 % 14.45 C
1252 16-06-2019 03:00:00 16.9 C 84.5000 % 14.27 C
1253 16-06-2019 04:00:00 17.08333 C 82.4167 % 14.07 C
1254 16-06-2019 05:00:00 16.3 C 85.1667 % 13.81 C
1255 16-06-2019 06:00:00 15.46667 C 89.4167 % 13.73 C
1256 16-06-2019 07:00:00 15.55 C 91.3333 % 14.14 C
1257 16-06-2019 08:00:00 16.04167 C 89.7500 % 14.36 C
1258 16-06-2019 09:00:00 17.04167 C 81.2500 % 13.81 C
1259 16-06-2019 10:00:00 19.3 C 69.7500 % 13.64 C
1260 16-06-2019 11:00:00 20.84167 C 60.6667 % 12.96 C
1261 16-06-2019 12:00:00 21.34167 C 59.1667 % 13.05 C
1262 16-06-2019 13:00:00 22.35 C 54.7500 % 12.8 C
1263 16-06-2019 14:00:00 22.56667 C 55.9167 % 13.33 C
1264 16-06-2019 15:00:00 23.03333 C 54.9167 % 13.48 C
1265 16-06-2019 16:00:00 23.225 C 55.0833 % 13.71 C
1266 16-06-2019 17:00:00 22.275 C 58.5833 % 13.77 C
1267 16-06-2019 18:00:00 24.04167 C 51.7500 % 13.51 C
1268 16-06-2019 19:00:00 23.55 C 54.6667 % 13.89 C
1269 16-06-2019 20:00:00 22.61667 C 57.8333 % 13.89 C
1270 16-06-2019 21:00:00 20.29167 C 67.7500 % 14.14 C
1271 16-06-2019 22:00:00 17.21667 C 76.5833 % 13.07 C
1272 16-06-2019 23:00:00 15.35 C 82.7500 % 12.43 C
1273 17-06-2019 00:00:00 14.14167 C 85.6667 % 11.78 C
1274 17-06-2019 01:00:00 13.31667 C 88.2500 % 11.42 C
1275 17-06-2019 02:00:00 12.625 C 90.4167 % 11.1 C
Sensor: Nr:Datum:Temp:Feuchte:Taupunkt:
Aussen-T/F 1276 17-06-2019 03:00:00 11.95833 C 91.8333 % 10.67 C
1277 17-06-2019 04:00:00 11.43333 C 93.0000 % 10.34 C
1278 17-06-2019 05:00:00 11.075 C 93.9167 % 10.13 C
1279 17-06-2019 06:00:00 11.08333 C 95.0000 % 10.31 C
1280 17-06-2019 07:00:00 11.575 C 95.2500 % 10.84 C
1281 17-06-2019 08:00:00 12.66667 C 96.0000 % 12.05 C
1282 17-06-2019 09:00:00 14.46667 C 94.8333 % 13.65 C
1283 17-06-2019 10:00:00 18.59167 C 82.0833 % 15.48 C
1284 17-06-2019 11:00:00 22.31667 C 63.0000 % 14.93 C
1285 17-06-2019 12:00:00 23.475 C 58.1667 % 14.78 C
1286 17-06-2019 13:00:00 24.45833 C 54.7500 % 14.76 C
1287 17-06-2019 14:00:00 25.15833 C 50.7500 % 14.23 C
1288 17-06-2019 15:00:00 25.26667 C 50.6667 % 14.31 C
1289 17-06-2019 16:00:00 26.71667 C 49.6667 % 15.33 C
1290 17-06-2019 17:00:00 28.43333 C 42.1667 % 14.34 C
1291 17-06-2019 18:00:00 27.90833 C 46.3333 % 15.33 C
1292 17-06-2019 19:00:00 27.64167 C 47.5833 % 15.5 C
1293 17-06-2019 20:00:00 23.58333 C 61.1667 % 15.67 C
1294 17-06-2019 21:00:00 20.78333 C 68.0833 % 14.68 C
1295 17-06-2019 22:00:00 18.73333 C 75.2500 % 14.26 C
1296 17-06-2019 23:00:00 17.06667 C 80.8333 % 13.75 C
1297 18-06-2019 00:00:00 15.86667 C 84.5000 % 13.26 C
1298 18-06-2019 01:00:00 15.09167 C 87.2500 % 12.99 C
1299 18-06-2019 02:00:00 14.43333 C 89.1667 % 12.67 C
1300 18-06-2019 03:00:00 13.8 C 91.3333 % 12.41 C
Sensor: Nr:Datum:Temp:Feuchte:Taupunkt:
Aussen-T/F 1301 18-06-2019 04:00:00 13.8 C 92.2500 % 12.56 C
1302 18-06-2019 05:00:00 13.625 C 92.4167 % 12.42 C
1303 18-06-2019 06:00:00 13.65 C 93.7500 % 12.66 C
1304 18-06-2019 07:00:00 14.75 C 92.1667 % 13.49 C
1305 18-06-2019 08:00:00 16.01667 C 90.0000 % 14.38 C
1306 18-06-2019 09:00:00 17.65 C 88.2500 % 15.68 C
1307 18-06-2019 10:00:00 20.80833 C 82.3333 % 17.69 C
1308 18-06-2019 11:00:00 24.26667 C 67.8333 % 17.94 C
1309 18-06-2019 12:00:00 26.78333 C 53.9167 % 16.67 C
1310 18-06-2019 13:00:00 28.125 C 47.0000 % 15.75 C
1311 18-06-2019 14:00:00 28.825 C 45.3333 % 15.82 C
1312 18-06-2019 15:00:00 29.825 C 43.5000 % 16.08 C
1313 18-06-2019 16:00:00 29.575 C 46.0833 % 16.76 C
1314 18-06-2019 17:00:00 29.48333 C 56.4167 % 19.9 C
1315 18-06-2019 18:00:00 29.725 C 55.1667 % 19.76 C
1316 18-06-2019 19:00:00 27.95 C 60.5833 % 19.62 C
1317 18-06-2019 20:00:00 26.03333 C 63.7500 % 18.63 C
1318 18-06-2019 21:00:00 23.73333 C 68.0833 % 17.49 C
1319 18-06-2019 22:00:00 21.45 C 74.5833 % 16.75 C
1320 18-06-2019 23:00:00 19.83333 C 79.5833 % 16.2 C
1321 19-06-2019 00:00:00 18.48333 C 83.5833 % 15.65 C
1322 19-06-2019 01:00:00 17.61667 C 86.5833 % 15.35 C
1323 19-06-2019 02:00:00 17.39167 C 88.3333 % 15.44 C
1324 19-06-2019 03:00:00 16.53333 C 89.8333 % 14.86 C
1325 19-06-2019 04:00:00 15.775 C 91.0000 % 14.31 C
Sensor: Nr:Datum:Temp:Feuchte:Taupunkt:
Aussen-T/F 1326 19-06-2019 05:00:00 15.19167 C 92.8333 % 14.04 C
1327 19-06-2019 06:00:00 14.99167 C 93.6667 % 13.98 C
1328 19-06-2019 07:00:00 15.425 C 94.8333 % 14.6 C
1329 19-06-2019 08:00:00 16.54167 C 95.0000 % 15.74 C
1330 19-06-2019 09:00:00 18.46667 C 93.8333 % 17.45 C
1331 19-06-2019 10:00:00 23.44167 C 73.4167 % 18.41 C
1332 19-06-2019 11:00:00 26.775 C 54.0833 % 16.71 C
1333 19-06-2019 12:00:00 26.475 C 59.5833 % 17.97 C
1334 19-06-2019 13:00:00 26 C 63.0000 % 18.41 C
1335 19-06-2019 14:00:00 27.00833 C 53.5000 % 16.76 C
1336 19-06-2019 15:00:00 27.25 C 56.8333 % 17.94 C
1337 19-06-2019 16:00:00 29.925 C 48.6667 % 17.94 C
1338 19-06-2019 17:00:00 31.25833 C 41.2500 % 16.53 C
1339 19-06-2019 18:00:00 28.4 C 56.5833 % 18.94 C
1340 19-06-2019 19:00:00 28.94167 C 53.0833 % 18.42 C
1341 19-06-2019 20:00:00 25.31667 C 65.3333 % 18.34 C
1342 19-06-2019 21:00:00 23.275 C 70.8333 % 17.68 C
1343 19-06-2019 22:00:00 21.68333 C 74.0000 % 16.85 C
1344 19-06-2019 23:00:00 19.925 C 79.8333 % 16.34 C
1345 20-06-2019 00:00:00 18.75 C 83.3333 % 15.87 C
1346 20-06-2019 01:00:00 17.98333 C 86.2500 % 15.65 C
1347 20-06-2019 02:00:00 17.45833 C 88.7500 % 15.58 C
1348 20-06-2019 03:00:00 17.7 C 89.5000 % 15.95 C
1349 20-06-2019 04:00:00 17.31667 C 89.5833 % 15.59 C
1350 20-06-2019 05:00:00 16.68333 C 91.3333 % 15.26 C
Sensor: Nr:Datum:Temp:Feuchte:Taupunkt:
Aussen-T/F 1351 20-06-2019 06:00:00 16.85833 C 92.3333 % 15.61 C
1352 20-06-2019 07:00:00 17.73333 C 89.2500 % 15.94 C
1353 20-06-2019 08:00:00 19.45 C 81.4167 % 16.18 C
1354 20-06-2019 09:00:00 20.2 C 75.9167 % 15.82 C
1355 20-06-2019 10:00:00 21.30833 C 70.7500 % 15.78 C
1356 20-06-2019 11:00:00 21.89167 C 69.9167 % 16.15 C
1357 20-06-2019 12:00:00 22.65 C 66.5000 % 16.09 C
1358 20-06-2019 13:00:00 23.24167 C 64.7500 % 16.24 C
1359 20-06-2019 14:00:00 24.61667 C 58.7500 % 16.01 C
1360 20-06-2019 15:00:00 21.45833 C 75.0833 % 16.86 C
1361 20-06-2019 16:00:00 22.75 C 71.9167 % 17.42 C
1362 20-06-2019 17:00:00 21.25833 C 76.5000 % 16.96 C
1363 20-06-2019 18:00:00 20 C 81.0833 % 16.66 C
1364 20-06-2019 19:00:00 18.75833 C 81.8333 % 15.59 C
1365 20-06-2019 20:00:00 18.66667 C 82.3333 % 15.6 C
1366 20-06-2019 21:00:00 18.21667 C 84.0833 % 15.48 C
1367 20-06-2019 22:00:00 16.9 C 87.0000 % 14.72 C
1368 20-06-2019 23:00:00 15.725 C 90.6667 % 14.2 C
1369 21-06-2019 00:00:00 15.5 C 93.5000 % 14.46 C
1370 21-06-2019 01:00:00 14.89167 C 93.0000 % 13.77 C
1371 21-06-2019 02:00:00 14.78333 C 94.3333 % 13.88 C
1372 21-06-2019 03:00:00 15.06667 C 94.2500 % 14.15 C
1373 21-06-2019 04:00:00 14.91667 C 94.1667 % 13.99 C
1374 21-06-2019 05:00:00 14.325 C 93.9167 % 13.36 C
1375 21-06-2019 06:00:00 14.175 C 93.4167 % 13.13 C
Sensor: Nr:Datum:Temp:Feuchte:Taupunkt:
Aussen-T/F 1376 21-06-2019 07:00:00 14.63333 C 92.6667 % 13.46 C
1377 21-06-2019 08:00:00 15.88333 C 79.4167 % 12.33 C
1378 21-06-2019 09:00:00 16.7 C 73.2500 % 11.89 C
1379 21-06-2019 10:00:00 18.28333 C 66.5000 % 11.94 C
1380 21-06-2019 11:00:00 19.45 C 61.0000 % 11.74 C
1381 21-06-2019 12:00:00 20.10833 C 58.2500 % 11.66 C
1382 21-06-2019 13:00:00 21.3 C 52.6667 % 11.24 C
1383 21-06-2019 14:00:00 22.03333 C 47.4167 % 10.34 C
1384 21-06-2019 15:00:00 22.6 C 46.2500 % 10.48 C
1385 21-06-2019 16:00:00 23.64167 C 43.2500 % 10.42 C
1386 21-06-2019 17:00:00 25.125 C 39.5000 % 10.39 C
1387 21-06-2019 18:00:00 24.95833 C 39.5000 % 10.24 C
1388 21-06-2019 19:00:00 23.63333 C 42.8333 % 10.27 C
1389 21-06-2019 20:00:00 22.15 C 47.1667 % 10.37 C
1390 21-06-2019 21:00:00 19.375 C 57.1667 % 10.69 C
1391 21-06-2019 22:00:00 16.6 C 66.4167 % 10.32 C
1392 21-06-2019 23:00:00 15.23333 C 72.5000 % 10.33 C
1393 22-06-2019 00:00:00 13.71667 C 79.0000 % 10.14 C
1394 22-06-2019 01:00:00 13.01667 C 82.2500 % 10.06 C
1395 22-06-2019 02:00:00 12.10833 C 85.6667 % 9.78 C
1396 22-06-2019 03:00:00 11.5 C 88.5000 % 9.67 C
1397 22-06-2019 04:00:00 11.05833 C 90.4167 % 9.55 C
1398 22-06-2019 05:00:00 10.675 C 91.7500 % 9.39 C
1399 22-06-2019 06:00:00 10.70833 C 93.0000 % 9.62 C
1400 22-06-2019 07:00:00 11.80833 C 94.3333 % 10.93 C
Sensor: Nr:Datum:Temp:Feuchte:Taupunkt:
Aussen-T/F 1401 22-06-2019 08:00:00 13.84167 C 90.5833 % 12.33 C
1402 22-06-2019 09:00:00 16.275 C 79.8333 % 12.79 C
1403 22-06-2019 10:00:00 19.475 C 67.1667 % 13.23 C
1404 22-06-2019 11:00:00 21.21667 C 62.1667 % 13.69 C
1405 22-06-2019 12:00:00 22.66667 C 59.5833 % 14.4 C
1406 22-06-2019 13:00:00 24.175 C 55.6667 % 14.75 C
1407 22-06-2019 14:00:00 25.025 C 53.9167 % 15.05 C
1408 22-06-2019 15:00:00 25.59167 C 49.9167 % 14.37 C
1409 22-06-2019 16:00:00 26.50833 C 47.1667 % 14.34 C
1410 22-06-2019 17:00:00 26.26667 C 48.6667 % 14.6 C
1411 22-06-2019 18:00:00 27.45 C 43.5000 % 13.94 C
1412 22-06-2019 19:00:00 27.53333 C 43.7500 % 14.1 C
1413 22-06-2019 20:00:00 26.95 C 48.1667 % 15.06 C
1414 22-06-2019 21:00:00 23.525 C 62.3333 % 15.91 C
1415 22-06-2019 22:00:00 20.3 C 73.0833 % 15.32 C
1416 22-06-2019 23:00:00 18.63333 C 79.3333 % 14.99 C
1417 23-06-2019 00:00:00 17.4 C 83.5000 % 14.58 C
1418 23-06-2019 01:00:00 16.33333 C 86.9167 % 14.15 C
1419 23-06-2019 02:00:00 15.64167 C 89.2500 % 13.88 C
1420 23-06-2019 03:00:00 14.98333 C 91.0000 % 13.53 C
1421 23-06-2019 04:00:00 14.53333 C 92.2500 % 13.29 C
1422 23-06-2019 05:00:00 14.075 C 93.3333 % 13.02 C
1423 23-06-2019 06:00:00 14.20833 C 94.1667 % 13.28 C
1424 23-06-2019 07:00:00 14.74167 C 94.9167 % 13.94 C
1425 23-06-2019 08:00:00 16.09167 C 94.5833 % 15.22 C
Sensor: Nr:Datum:Temp:Feuchte:Taupunkt:
Aussen-T/F 1426 23-06-2019 09:00:00 18.65833 C 86.5000 % 16.36 C
1427 23-06-2019 10:00:00 22.525 C 69.0000 % 16.55 C
1428 23-06-2019 11:00:00 24.14167 C 64.3333 % 16.99 C
1429 23-06-2019 12:00:00 25.21667 C 61.5000 % 17.29 C
1430 23-06-2019 13:00:00 26.58333 C 56.0000 % 17.09 C
1431 23-06-2019 14:00:00 27.84167 C 51.0833 % 16.8 C
1432 23-06-2019 15:00:00 28.575 C 48.2500 % 16.57 C
1433 23-06-2019 16:00:00 30.24167 C 43.1667 % 16.33 C
1434 23-06-2019 17:00:00 30.6 C 43.1667 % 16.65 C
1435 23-06-2019 18:00:00 30.3 C 44.1667 % 16.74 C
1436 23-06-2019 19:00:00 29.025 C 50.3333 % 17.65 C
1437 23-06-2019 20:00:00 25.85833 C 62.0000 % 18.02 C
1438 23-06-2019 21:00:00 23.39167 C 67.6667 % 17.07 C
1439 23-06-2019 22:00:00 21.70833 C 72.3333 % 16.51 C
1440 23-06-2019 23:00:00 20.25 C 77.8333 % 16.26 C
1441 24-06-2019 00:00:00 19.11667 C 82.1667 % 16 C
1442 24-06-2019 01:00:00 18.43333 C 84.3333 % 15.74 C
1443 24-06-2019 02:00:00 17.54167 C 87.0833 % 15.37 C
1444 24-06-2019 03:00:00 16.95833 C 89.0833 % 15.15 C
1445 24-06-2019 04:00:00 16.55 C 90.6667 % 15.02 C
1446 24-06-2019 05:00:00 16.40833 C 92.0833 % 15.12 C
1447 24-06-2019 06:00:00 16.70833 C 92.9167 % 15.56 C
1448 24-06-2019 07:00:00 17.45 C 92.9167 % 16.29 C
1449 24-06-2019 08:00:00 18.55 C 91.7500 % 17.18 C
1450 24-06-2019 09:00:00 21.25833 C 84.6667 % 18.57 C
Sensor: Nr:Datum:Temp:Feuchte:Taupunkt:
Aussen-T/F 1451 24-06-2019 10:00:00 25.475 C 67.0833 % 18.92 C
1452 24-06-2019 11:00:00 26.95833 C 59.6667 % 18.44 C
1453 24-06-2019 12:00:00 27.88333 C 55.5000 % 18.15 C
1454 24-06-2019 13:00:00 29.05833 C 52.0000 % 18.2 C
1455 24-06-2019 14:00:00 30.1 C 49.8333 % 18.48 C
1456 24-06-2019 15:00:00 31.38333 C 46.8333 % 18.65 C
1457 24-06-2019 16:00:00 32.73333 C 44.0000 % 18.87 C
1458 24-06-2019 17:00:00 32.96667 C 44.5833 % 19.3 C
1459 24-06-2019 18:00:00 33.1 C 44.0000 % 19.2 C
1460 24-06-2019 19:00:00 32.375 C 45.5000 % 19.09 C
1461 24-06-2019 20:00:00 30.64167 C 50.5000 % 19.18 C
1462 24-06-2019 21:00:00 26.81667 C 63.7500 % 19.37 C
1463 24-06-2019 22:00:00 23.99167 C 71.0000 % 18.41 C
1464 24-06-2019 23:00:00 22.68333 C 74.0000 % 17.81 C
1465 25-06-2019 00:00:00 21.4 C 77.5000 % 17.3 C
1466 25-06-2019 01:00:00 20.425 C 80.8333 % 17.02 C
1467 25-06-2019 02:00:00 19.35833 C 83.5833 % 16.51 C
1468 25-06-2019 03:00:00 18.46667 C 85.5833 % 16.01 C
1469 25-06-2019 04:00:00 17.825 C 88.0833 % 15.83 C
1470 25-06-2019 05:00:00 17.51667 C 89.4167 % 15.76 C
1471 25-06-2019 06:00:00 17.76667 C 90.8333 % 16.25 C
1472 25-06-2019 07:00:00 18.44167 C 90.6667 % 16.89 C
1473 25-06-2019 08:00:00 20.1 C 88.5000 % 18.14 C
1474 25-06-2019 09:00:00 22.56667 C 81.7500 % 19.29 C
1475 25-06-2019 10:00:00 26.46667 C 65.7500 % 19.54 C
Sensor: Nr:Datum:Temp:Feuchte:Taupunkt:
Aussen-T/F 1476 25-06-2019 11:00:00 28.05833 C 59.2500 % 19.36 C
1477 25-06-2019 12:00:00 29.51667 C 55.8333 % 19.76 C
1478 25-06-2019 13:00:00 31.1 C 52.0000 % 20.08 C
1479 25-06-2019 14:00:00 32.75833 C 46.9167 % 19.93 C
1480 25-06-2019 15:00:00 34.91667 C 41.7500 % 19.99 C
1481 25-06-2019 16:00:00 36.45833 C 38.0833 % 19.87 C
1482 25-06-2019 17:00:00 37.69167 C 32.9167 % 18.61 C
1483 25-06-2019 18:00:00 36.71667 C 36.7500 % 19.53 C
1484 25-06-2019 19:00:00 34.225 C 48.5000 % 21.8 C
1485 25-06-2019 20:00:00 31.78333 C 52.1667 % 20.76 C
1486 25-06-2019 21:00:00 28.025 C 58.9167 % 19.24 C
1487 25-06-2019 22:00:00 25.60833 C 64.0000 % 18.29 C
1488 25-06-2019 23:00:00 24.15833 C 65.9167 % 17.39 C
1489 26-06-2019 00:00:00 23.41667 C 69.5000 % 17.52 C
1490 26-06-2019 01:00:00 22.38333 C 74.1667 % 17.56 C
1491 26-06-2019 02:00:00 21.20833 C 79.0000 % 17.42 C
1492 26-06-2019 03:00:00 20.575 C 81.9167 % 17.38 C
1493 26-06-2019 04:00:00 19.825 C 84.4167 % 17.12 C
1494 26-06-2019 05:00:00 19.475 C 86.5000 % 17.16 C
1495 26-06-2019 06:00:00 19.575 C 87.8333 % 17.5 C
1496 26-06-2019 07:00:00 20.29167 C 88.1667 % 18.27 C
1497 26-06-2019 08:00:00 21.89167 C 87.8333 % 19.78 C
1498 26-06-2019 09:00:00 24.64167 C 83.0000 % 21.56 C
1499 26-06-2019 10:00:00 27.25 C 74.0833 % 22.22 C
1500 26-06-2019 11:00:00 28.95 C 68.1667 % 22.48 C
Sensor: Nr:Datum:Temp:Feuchte:Taupunkt:
Aussen-T/F 1501 26-06-2019 12:00:00 30.24167 C 62.8333 % 22.36 C
1502 26-06-2019 13:00:00 31.63333 C 53.0833 % 20.9 C
1503 26-06-2019 14:00:00 32.64167 C 50.5000 % 21.02 C
1504 26-06-2019 15:00:00 33.9 C 49.5833 % 21.87 C
1505 26-06-2019 16:00:00 34.76667 C 45.8333 % 21.37 C
1506 26-06-2019 17:00:00 34.76667 C 44.0000 % 20.7 C
1507 26-06-2019 18:00:00 34.36667 C 41.8333 % 19.53 C
1508 26-06-2019 19:00:00 33.36667 C 43.5833 % 19.29 C
1509 26-06-2019 20:00:00 30.94167 C 50.2500 % 19.38 C
1510 26-06-2019 21:00:00 28.8 C 56.5000 % 19.29 C
1511 26-06-2019 22:00:00 26.4 C 65.2500 % 19.35 C
1512 26-06-2019 23:00:00 26.03333 C 69.3333 % 19.98 C
1513 27-06-2019 00:00:00 25.24167 C 73.0000 % 20.05 C
1514 27-06-2019 01:00:00 24.11667 C 76.5000 % 19.72 C
1515 27-06-2019 02:00:00 23.25833 C 78.5000 % 19.31 C
1516 27-06-2019 03:00:00 22.41667 C 78.0000 % 18.39 C
1517 27-06-2019 04:00:00 21.66667 C 77.0000 % 17.46 C
1518 27-06-2019 05:00:00 20.54167 C 79.4167 % 16.86 C
1519 27-06-2019 06:00:00 20.01667 C 80.7500 % 16.61 C
1520 27-06-2019 07:00:00 20.03333 C 79.7500 % 16.43 C
1521 27-06-2019 08:00:00 20.6 C 77.5000 % 16.53 C
1522 27-06-2019 09:00:00 21.45833 C 74.0000 % 16.63 C
1523 27-06-2019 10:00:00 22.83333 C 68.0000 % 16.62 C
1524 27-06-2019 11:00:00 24.03333 C 62.0833 % 16.32 C
1525 27-06-2019 12:00:00 24.84167 C 58.9167 % 16.26 C
Sensor: Nr:Datum:Temp:Feuchte:Taupunkt:
Aussen-T/F 1526 27-06-2019 13:00:00 25.875 C 53.2500 % 15.64 C
1527 27-06-2019 14:00:00 26.98333 C 48.3333 % 15.15 C
1528 27-06-2019 15:00:00 28.6 C 41.0833 % 14.09 C
1529 27-06-2019 16:00:00 30.18333 C 32.4167 % 11.86 C
1530 27-06-2019 17:00:00 30.54167 C 28.0000 % 9.97 C
1531 27-06-2019 18:00:00 30.225 C 26.3333 % 8.79 C
1532 27-06-2019 19:00:00 29.59167 C 25.7500 % 7.92 C
1533 27-06-2019 20:00:00 27.43333 C 32.5000 % 9.51 C
1534 27-06-2019 21:00:00 24.48333 C 41.6667 % 10.62 C
1535 27-06-2019 22:00:00 21.28333 C 55.0000 % 11.88 C
1536 27-06-2019 23:00:00 19.9 C 60.8333 % 12.12 C
1537 28-06-2019 00:00:00 18.53333 C 66.0833 % 12.08 C
1538 28-06-2019 01:00:00 17.18333 C 71.6667 % 12.03 C
1539 28-06-2019 02:00:00 16.26667 C 76.5000 % 12.13 C
1540 28-06-2019 03:00:00 15.48333 C 80.2500 % 12.1 C
1541 28-06-2019 04:00:00 14.35 C 84.2500 % 11.73 C
1542 28-06-2019 05:00:00 13.51667 C 87.4167 % 11.47 C
1543 28-06-2019 06:00:00 13.35833 C 89.7500 % 11.71 C
1544 28-06-2019 07:00:00 13.86667 C 90.8333 % 12.4 C
1545 28-06-2019 08:00:00 15.39167 C 85.5000 % 12.97 C
1546 28-06-2019 09:00:00 17.7 C 74.9167 % 13.2 C
1547 28-06-2019 10:00:00 19.81667 C 67.4167 % 13.61 C
1548 28-06-2019 11:00:00 21.475 C 60.3333 % 13.47 C
1549 28-06-2019 12:00:00 22.84167 C 55.6667 % 13.51 C
1550 28-06-2019 13:00:00 24.66667 C 47.2500 % 12.69 C
Sensor: Nr:Datum:Temp:Feuchte:Taupunkt:
Aussen-T/F 1551 28-06-2019 14:00:00 26.31667 C 42.3333 % 12.5 C
1552 28-06-2019 15:00:00 28.225 C 38.5833 % 12.79 C
1553 28-06-2019 16:00:00 30.25 C 33.5833 % 12.46 C
1554 28-06-2019 17:00:00 31.13333 C 29.7500 % 11.38 C
1555 28-06-2019 18:00:00 31.66667 C 28.0000 % 10.93 C
1556 28-06-2019 19:00:00 31.2 C 30.0833 % 11.61 C
1557 28-06-2019 20:00:00 29.49167 C 36.8333 % 13.2 C
1558 28-06-2019 21:00:00 25.61667 C 48.1667 % 13.85 C
1559 28-06-2019 22:00:00 21.58333 C 54.6667 % 12.07 C
1560 28-06-2019 23:00:00 19.275 C 63.6667 % 12.22 C
1561 29-06-2019 00:00:00 18.40833 C 65.9167 % 11.93 C
1562 29-06-2019 01:00:00 17.83333 C 68.0833 % 11.87 C
1563 29-06-2019 02:00:00 17.09167 C 70.9167 % 11.78 C
1564 29-06-2019 03:00:00 16.39167 C 74.3333 % 11.82 C
1565 29-06-2019 04:00:00 15.175 C 78.5833 % 11.48 C
1566 29-06-2019 05:00:00 14.09167 C 82.7500 % 11.21 C
1567 29-06-2019 06:00:00 13.70833 C 85.5000 % 11.32 C
1568 29-06-2019 07:00:00 14.075 C 87.6667 % 12.06 C
1569 29-06-2019 08:00:00 15.26667 C 86.9167 % 13.1 C
1570 29-06-2019 09:00:00 19.2 C 71.5000 % 13.92 C
1571 29-06-2019 10:00:00 23.49167 C 55.0833 % 13.96 C
1572 29-06-2019 11:00:00 25.775 C 48.0000 % 13.94 C
1573 29-06-2019 12:00:00 27.41667 C 44.5833 % 14.29 C
1574 29-06-2019 13:00:00 29.11667 C 35.4167 % 12.28 C
1575 29-06-2019 14:00:00 30.58333 C 30.5000 % 11.29 C
Sensor: Nr:Datum:Temp:Feuchte:Taupunkt:
Aussen-T/F 1576 29-06-2019 15:00:00 32.63333 C 26.5000 % 10.92 C
1577 29-06-2019 16:00:00 34.24167 C 23.5000 % 10.47 C
1578 29-06-2019 17:00:00 35.325 C 22.2500 % 10.55 C
1579 29-06-2019 18:00:00 35.64167 C 22.5833 % 11.03 C
1580 29-06-2019 19:00:00 35.26667 C 23.4167 % 11.27 C
1581 29-06-2019 20:00:00 32.425 C 34.0833 % 14.58 C
1582 29-06-2019 21:00:00 27.60833 C 40.0833 % 12.83 C
1583 29-06-2019 22:00:00 24.225 C 45.4167 % 11.68 C
1584 29-06-2019 23:00:00 21.23333 C 57.4167 % 12.49 C
1585 30-06-2019 00:00:00 18.93333 C 65.8333 % 12.41 C
1586 30-06-2019 01:00:00 17.525 C 72.1667 % 12.46 C
1587 30-06-2019 02:00:00 16.75 C 75.5833 % 12.42 C
1588 30-06-2019 03:00:00 16.10833 C 78.7500 % 12.42 C
1589 30-06-2019 04:00:00 15.58333 C 81.3333 % 12.4 C
1590 30-06-2019 05:00:00 15.05 C 83.5833 % 12.29 C
1591 30-06-2019 06:00:00 14.85 C 86.5000 % 12.62 C
1592 30-06-2019 07:00:00 15.44167 C 87.8333 % 13.44 C
1593 30-06-2019 08:00:00 17.025 C 86.4167 % 14.74 C
1594 30-06-2019 09:00:00 19.65833 C 81.5833 % 16.42 C
1595 30-06-2019 10:00:00 25.225 C 64.7500 % 18.11 C
1596 30-06-2019 11:00:00 30.59167 C 45.2500 % 17.39 C
1597 30-06-2019 12:00:00 32.48333 C 40.0000 % 17.14 C
1598 30-06-2019 13:00:00 34.6 C 35.0000 % 16.89 C
1599 30-06-2019 14:00:00 36.00833 C 34.3333 % 17.82 C
1600 30-06-2019 15:00:00 35.5 C 40.7500 % 20.12 C
Sensor: Nr:Datum:Temp:Feuchte:Taupunkt:
Aussen-T/F 1601 30-06-2019 16:00:00 35.49167 C 45.0000 % 21.72 C
1602 30-06-2019 17:00:00 35.875 C 45.5833 % 22.28 C
1603 30-06-2019 18:00:00 34.975 C 46.3333 % 21.73 C
1604 30-06-2019 19:00:00 32.65833 C 50.6667 % 21.09 C
1605 30-06-2019 20:00:00 29.35 C 58.8333 % 20.45 C
1606 30-06-2019 21:00:00 27.18333 C 62.5000 % 19.4 C
1607 30-06-2019 22:00:00 26.25833 C 63.6667 % 18.82 C
1608 30-06-2019 23:00:00 24.55833 C 67.0000 % 18.02 C
1609 01-07-2019 00:00:00 22.68333 C 73.0833 % 17.61 C
1610 01-07-2019 01:00:00 22.36667 C 73.0833 % 17.31 C
1611 01-07-2019 02:00:00 21.63333 C 73.9167 % 16.78 C
1612 01-07-2019 03:00:00 20.98333 C 72.0833 % 15.76 C
1613 01-07-2019 04:00:00 20.34167 C 71.7500 % 15.07 C
1614 01-07-2019 05:00:00 19.65833 C 73.0833 % 14.7 C
1615 01-07-2019 06:00:00 19.68333 C 70.9167 % 14.26 C
1616 01-07-2019 07:00:00 19.675 C 70.9167 % 14.25 C
1617 01-07-2019 08:00:00 19.79167 C 70.6667 % 14.31 C
1618 01-07-2019 09:00:00 20.24167 C 69.2500 % 14.43 C
1619 01-07-2019 10:00:00 21.20833 C 68.8333 % 15.26 C
1620 01-07-2019 11:00:00 21.78333 C 69.2500 % 15.9 C
1621 01-07-2019 12:00:00 23.16667 C 62.7500 % 15.67 C
1622 01-07-2019 13:00:00 24.89167 C 50.9167 % 14.04 C
1623 01-07-2019 14:00:00 25.55833 C 51.1667 % 14.73 C
1624 01-07-2019 15:00:00 26.675 C 47.1667 % 14.49 C
1625 01-07-2019 16:00:00 26.89167 C 44.3333 % 13.73 C
Sensor: Nr:Datum:Temp:Feuchte:Taupunkt:
Aussen-T/F 1626 01-07-2019 17:00:00 27.04167 C 42.0833 % 13.06 C
1627 01-07-2019 18:00:00 26.3 C 44.0000 % 13.08 C
1628 01-07-2019 19:00:00 25.96667 C 42.7500 % 12.34 C
1629 01-07-2019 20:00:00 24.53333 C 46.6667 % 12.38 C
1630 01-07-2019 21:00:00 22.55833 C 51.1667 % 11.97 C
1631 01-07-2019 22:00:00 20.825 C 57.2500 % 12.06 C
1632 01-07-2019 23:00:00 20.03333 C 59.4167 % 11.89 C
1633 02-07-2019 00:00:00 18.85833 C 63.1667 % 11.71 C
1634 02-07-2019 01:00:00 16.89167 C 70.3333 % 11.46 C
1635 02-07-2019 02:00:00 15.85 C 74.3333 % 11.3 C
1636 02-07-2019 03:00:00 15.49167 C 75.2500 % 11.13 C
1637 02-07-2019 04:00:00 14.525 C 78.8333 % 10.9 C
1638 02-07-2019 05:00:00 13.45 C 83.2500 % 10.67 C
1639 02-07-2019 06:00:00 13.10833 C 85.5000 % 10.73 C
1640 02-07-2019 07:00:00 13.23333 C 87.0000 % 11.12 C
1641 02-07-2019 08:00:00 14.925 C 82.0000 % 11.88 C
1642 02-07-2019 09:00:00 17.48333 C 70.3333 % 12.03 C
1643 02-07-2019 10:00:00 19 C 62.7500 % 11.74 C
1644 02-07-2019 11:00:00 19.60833 C 60.5833 % 11.78 C
1645 02-07-2019 12:00:00 20.48333 C 55.0833 % 11.16 C
1646 02-07-2019 13:00:00 21.46667 C 51.4167 % 11.04 C
1647 02-07-2019 14:00:00 22.31667 C 49.1667 % 11.14 C
1648 02-07-2019 15:00:00 23.00833 C 47.5833 % 11.28 C
1649 02-07-2019 16:00:00 24.98333 C 40.2500 % 10.55 C
1650 02-07-2019 17:00:00 25.49167 C 38.5000 % 10.33 C
Sensor: Nr:Datum:Temp:Feuchte:Taupunkt:
Aussen-T/F 1651 02-07-2019 18:00:00 24.36667 C 41.3333 % 10.39 C
1652 02-07-2019 19:00:00 24.775 C 38.5833 % 9.73 C
1653 02-07-2019 20:00:00 22.95 C 41.7500 % 9.27 C
1654 02-07-2019 21:00:00 20.825 C 48.5833 % 9.6 C
1655 02-07-2019 22:00:00 17.64167 C 58.2500 % 9.35 C
1656 02-07-2019 23:00:00 16.3 C 62.2500 % 9.07 C
1657 03-07-2019 00:00:00 14.80833 C 68.0833 % 8.98 C
1658 03-07-2019 01:00:00 13.23333 C 73.7500 % 8.65 C
1659 03-07-2019 02:00:00 12.30833 C 77.2500 % 8.44 C
1660 03-07-2019 03:00:00 11.475 C 80.5000 % 8.24 C
1661 03-07-2019 04:00:00 10.65 C 83.2500 % 7.93 C
1662 03-07-2019 05:00:00 10.10833 C 85.8333 % 7.85 C
1663 03-07-2019 06:00:00 10.13333 C 88.0000 % 8.24 C
1664 03-07-2019 07:00:00 10.91667 C 88.6667 % 9.12 C
1665 03-07-2019 08:00:00 12.31667 C 86.1667 % 10.07 C
1666 03-07-2019 09:00:00 14.475 C 77.0000 % 10.5 C
1667 03-07-2019 10:00:00 18.01667 C 60.9167 % 10.37 C
1668 03-07-2019 11:00:00 19.95 C 50.8333 % 9.47 C
1669 03-07-2019 12:00:00 20.75833 C 48.7500 % 9.59 C
1670 03-07-2019 13:00:00 21.4 C 46.6667 % 9.52 C
1671 03-07-2019 14:00:00 21.975 C 46.3333 % 9.94 C
1672 03-07-2019 15:00:00 22.625 C 45.1667 % 10.15 C
1673 03-07-2019 16:00:00 24.44167 C 39.9167 % 9.94 C
1674 03-07-2019 17:00:00 24.56667 C 38.0833 % 9.35 C
1675 03-07-2019 18:00:00 24.70833 C 37.5000 % 9.25 C
Sensor: Nr:Datum:Temp:Feuchte:Taupunkt:
Aussen-T/F 1676 03-07-2019 19:00:00 23.79167 C 38.8333 % 8.95 C
1677 03-07-2019 20:00:00 22.35833 C 41.9167 % 8.8 C
1678 03-07-2019 21:00:00 20.40833 C 46.4167 % 8.54 C
1679 03-07-2019 22:00:00 17.54167 C 55.0833 % 8.43 C
1680 03-07-2019 23:00:00 15.46667 C 61.8333 % 8.19 C
1681 04-07-2019 00:00:00 14.2 C 65.9167 % 7.93 C
1682 04-07-2019 01:00:00 13.48333 C 68.0833 % 7.72 C
1683 04-07-2019 02:00:00 12.625 C 71.6667 % 7.65 C
1684 04-07-2019 03:00:00 11.24167 C 77.1667 % 7.39 C
1685 04-07-2019 04:00:00 10.78333 C 79.6667 % 7.42 C
1686 04-07-2019 05:00:00 10.51667 C 81.7500 % 7.53 C
1687 04-07-2019 06:00:00 10.28333 C 83.7500 % 7.66 C
1688 04-07-2019 07:00:00 10.55 C 86.0000 % 8.31 C
1689 04-07-2019 08:00:00 11.76667 C 83.9167 % 9.14 C
1690 04-07-2019 09:00:00 14.4 C 73.1667 % 9.66 C
1691 04-07-2019 10:00:00 18.125 C 56.0833 % 9.24 C
1692 04-07-2019 11:00:00 19.58333 C 49.0833 % 8.61 C
1693 04-07-2019 12:00:00 20.4 C 45.3333 % 8.19 C
1694 04-07-2019 13:00:00 21.63333 C 41.5833 % 8.03 C
1695 04-07-2019 14:00:00 22.71667 C 38.0000 % 7.68 C
1696 04-07-2019 15:00:00 24.7 C 33.5833 % 7.61 C
1697 04-07-2019 16:00:00 26.80833 C 31.4167 % 8.47 C
1698 04-07-2019 17:00:00 26.9 C 31.9167 % 8.78 C
1699 04-07-2019 18:00:00 27.35 C 30.7500 % 8.62 C
1700 04-07-2019 19:00:00 26.94167 C 31.6667 % 8.7 C
Sensor: Nr:Datum:Temp:Feuchte:Taupunkt:
Aussen-T/F 1701 04-07-2019 20:00:00 24.95 C 36.1667 % 8.92 C
1702 04-07-2019 21:00:00 21.60833 C 47.4167 % 9.95 C
1703 04-07-2019 22:00:00 18.56667 C 53.4167 % 8.93 C
1704 04-07-2019 23:00:00 17.39167 C 57.0000 % 8.79 C
1705 05-07-2019 00:00:00 16.41667 C 61.5000 % 9 C
1706 05-07-2019 01:00:00 15.18333 C 65.8333 % 8.84 C
1707 05-07-2019 02:00:00 14.13333 C 69.1667 % 8.57 C
1708 05-07-2019 03:00:00 13.70833 C 73.2500 % 9.01 C
1709 05-07-2019 04:00:00 14.08333 C 73.8333 % 9.49 C
1710 05-07-2019 05:00:00 13.75833 C 74.5833 % 9.33 C
1711 05-07-2019 06:00:00 13.93333 C 76.3333 % 9.84 C
1712 05-07-2019 07:00:00 14.55 C 75.4167 % 10.26 C
1713 05-07-2019 08:00:00 15.8 C 72.5833 % 10.89 C
1714 05-07-2019 09:00:00 17.29167 C 67.5833 % 11.24 C
1715 05-07-2019 10:00:00 20.225 C 58.6667 % 11.87 C
1716 05-07-2019 11:00:00 21.94167 C 53.1667 % 11.98 C
1717 05-07-2019 12:00:00 22.84167 C 50.2500 % 11.95 C
1718 05-07-2019 13:00:00 24.38333 C 45.4167 % 11.83 C
1719 05-07-2019 14:00:00 25.5 C 42.7500 % 11.92 C
1720 05-07-2019 15:00:00 27.45 C 37.8333 % 11.81 C
1721 05-07-2019 16:00:00 28.91667 C 34.8333 % 11.85 C
1722 05-07-2019 17:00:00 29.6 C 33.7500 % 11.97 C
1723 05-07-2019 18:00:00 29.41667 C 35.0000 % 12.36 C
1724 05-07-2019 19:00:00 27.68333 C 38.6667 % 12.35 C
1725 05-07-2019 20:00:00 26.10833 C 42.6667 % 12.44 C
Sensor: Nr:Datum:Temp:Feuchte:Taupunkt:
Aussen-T/F 1726 05-07-2019 21:00:00 23.225 C 52.6667 % 13.02 C
1727 05-07-2019 22:00:00 21.18333 C 58.7500 % 12.79 C
1728 05-07-2019 23:00:00 20.4 C 62.6667 % 13.04 C
1729 06-07-2019 00:00:00 18.45833 C 69.9167 % 12.87 C
1730 06-07-2019 01:00:00 17.60833 C 73.0833 % 12.73 C
1731 06-07-2019 02:00:00 17.05833 C 76.2500 % 12.85 C
1732 06-07-2019 03:00:00 16.875 C 77.5000 % 12.92 C
1733 06-07-2019 04:00:00 16.16667 C 79.6667 % 12.65 C
1734 06-07-2019 05:00:00 15.425 C 81.8333 % 12.34 C
1735 06-07-2019 06:00:00 15.18333 C 84.5833 % 12.61 C
1736 06-07-2019 07:00:00 15.18333 C 85.0833 % 12.7 C
1737 06-07-2019 08:00:00 16.78333 C 81.2500 % 13.55 C
1738 06-07-2019 09:00:00 19.425 C 71.6667 % 14.18 C
1739 06-07-2019 10:00:00 22.16667 C 62.5000 % 14.67 C
1740 06-07-2019 11:00:00 24.41667 C 52.9167 % 14.19 C
1741 06-07-2019 12:00:00 25.48333 C 50.0000 % 14.3 C
1742 06-07-2019 13:00:00 26.84167 C 43.5000 % 13.39 C
1743 06-07-2019 14:00:00 28.7 C 32.0833 % 10.42 C
1744 06-07-2019 15:00:00 30.95833 C 22.5833 % 7.15 C
1745 06-07-2019 16:00:00 29.08333 C 21.6667 % 5 C
1746 06-07-2019 17:00:00 27.89167 C 28.8333 % 8.14 C
1747 06-07-2019 18:00:00 22.825 C 51.7500 % 12.38 C
1748 06-07-2019 19:00:00 21.60833 C 55.9167 % 12.44 C
1749 06-07-2019 20:00:00 20.35833 C 64.4167 % 13.43 C
1750 06-07-2019 21:00:00 19.75833 C 66.8333 % 13.42 C
Sensor: Nr:Datum:Temp:Feuchte:Taupunkt:
Aussen-T/F 1751 06-07-2019 22:00:00 19.86667 C 71.1667 % 14.49 C
1752 06-07-2019 23:00:00 20.35833 C 71.4167 % 15.02 C
1753 07-07-2019 00:00:00 18.93333 C 74.1667 % 14.23 C
1754 07-07-2019 01:00:00 17.88333 C 77.4167 % 13.88 C
1755 07-07-2019 02:00:00 17.33333 C 74.5000 % 12.76 C
1756 07-07-2019 03:00:00 17 C 75.5833 % 12.66 C
1757 07-07-2019 04:00:00 16.825 C 75.8333 % 12.54 C
1758 07-07-2019 05:00:00 16.35 C 79.9167 % 12.88 C
1759 07-07-2019 06:00:00 14.99167 C 89.7500 % 13.32 C
1760 07-07-2019 07:00:00 14.65 C 92.9167 % 13.52 C
1761 07-07-2019 08:00:00 14.28333 C 93.7500 % 13.29 C
1762 07-07-2019 09:00:00 14.78333 C 94.1667 % 13.85 C
1763 07-07-2019 10:00:00 15.38333 C 86.1667 % 13.08 C
1764 07-07-2019 11:00:00 16.50833 C 75.4167 % 12.15 C
1765 07-07-2019 12:00:00 17.73333 C 67.5833 % 11.66 C
1766 07-07-2019 13:00:00 18.5 C 62.4167 % 11.19 C
1767 07-07-2019 14:00:00 19.25833 C 55.6667 % 10.18 C
1768 07-07-2019 15:00:00 20.91667 C 48.5000 % 9.66 C
1769 07-07-2019 16:00:00 21.78333 C 43.6667 % 8.89 C
1770 07-07-2019 17:00:00 21.475 C 44.0833 % 8.75 C
1771 07-07-2019 18:00:00 21.775 C 44.4167 % 9.13 C
1772 07-07-2019 19:00:00 21.325 C 44.5000 % 8.75 C
1773 07-07-2019 20:00:00 20 C 48.0000 % 8.67 C
1774 07-07-2019 21:00:00 18.65 C 52.5833 % 8.77 C
1775 07-07-2019 22:00:00 15.64167 C 66.2500 % 9.37 C
Sensor: Nr:Datum:Temp:Feuchte:Taupunkt:
Aussen-T/F 1776 07-07-2019 23:00:00 13.85 C 73.9167 % 9.28 C
1777 08-07-2019 00:00:00 12.875 C 77.5000 % 9.04 C
1778 08-07-2019 01:00:00 11.89167 C 81.2500 % 8.78 C
1779 08-07-2019 02:00:00 11.05 C 83.7500 % 8.41 C
1780 08-07-2019 03:00:00 10.94167 C 83.5000 % 8.26 C
1781 08-07-2019 04:00:00 10.78333 C 83.9167 % 8.18 C
1782 08-07-2019 05:00:00 9.89167 C 86.7500 % 7.79 C
1783 08-07-2019 06:00:00 9.55833 C 89.5833 % 7.93 C
1784 08-07-2019 07:00:00 9.975 C 91.0000 % 8.58 C
1785 08-07-2019 08:00:00 11.225 C 90.0833 % 9.66 C
1786 08-07-2019 09:00:00 14.18333 C 73.8333 % 9.59 C
1787 08-07-2019 10:00:00 15.65833 C 62.6667 % 8.57 C
1788 08-07-2019 11:00:00 16.14167 C 61.8333 % 8.82 C
1789 08-07-2019 12:00:00 16.68333 C 59.5833 % 8.79 C
1790 08-07-2019 13:00:00 17.05833 C 58.1667 % 8.78 C
1791 08-07-2019 14:00:00 17.33333 C 57.6667 % 8.91 C
1792 08-07-2019 15:00:00 17.49167 C 57.8333 % 9.1 C
1793 08-07-2019 16:00:00 18.025 C 57.0000 % 9.39 C
1794 08-07-2019 17:00:00 18.16667 C 57.1667 % 9.56 C
1795 08-07-2019 18:00:00 18.04167 C 57.2500 % 9.47 C
1796 08-07-2019 19:00:00 17.75833 C 58.0833 % 9.42 C
1797 08-07-2019 20:00:00 17.69167 C 58.5000 % 9.46 C
1798 08-07-2019 21:00:00 16.26667 C 65.0833 % 9.7 C
1799 08-07-2019 22:00:00 13.975 C 74.8333 % 9.59 C
1800 08-07-2019 23:00:00 14.11667 C 75.4167 % 9.84 C
Sensor: Nr:Datum:Temp:Feuchte:Taupunkt:
Aussen-T/F 1801 09-07-2019 00:00:00 13.29167 C 79.3333 % 9.79 C
1802 09-07-2019 01:00:00 12.7 C 81.4167 % 9.6 C
1803 09-07-2019 02:00:00 11.88333 C 83.8333 % 9.24 C
1804 09-07-2019 03:00:00 11.11667 C 87.1667 % 9.07 C
1805 09-07-2019 04:00:00 10.43333 C 88.3333 % 8.59 C
1806 09-07-2019 05:00:00 9.80833 C 90.1667 % 8.28 C
1807 09-07-2019 06:00:00 9.725 C 91.2500 % 8.37 C
1808 09-07-2019 07:00:00 10.91667 C 90.6667 % 9.45 C
1809 09-07-2019 08:00:00 12.98333 C 81.4167 % 9.88 C
1810 09-07-2019 09:00:00 14.2 C 75.8333 % 10 C
1811 09-07-2019 10:00:00 14.9 C 70.6667 % 9.62 C
1812 09-07-2019 11:00:00 16.09167 C 60.4167 % 8.44 C
1813 09-07-2019 12:00:00 16.86667 C 56.6667 % 8.22 C
1814 09-07-2019 13:00:00 17.68333 C 52.4167 % 7.83 C
1815 09-07-2019 14:00:00 18.6 C 49.1667 % 7.74 C
1816 09-07-2019 15:00:00 19.73333 C 45.9167 % 7.77 C
1817 09-07-2019 16:00:00 20.475 C 43.7500 % 7.73 C
1818 09-07-2019 17:00:00 21.725 C 39.5000 % 7.36 C
1819 09-07-2019 18:00:00 21.06667 C 39.7500 % 6.86 C
1820 09-07-2019 19:00:00 20.98333 C 40.7500 % 7.15 C
1821 09-07-2019 20:00:00 19.525 C 46.5000 % 7.76 C
1822 09-07-2019 21:00:00 17.04167 C 56.8333 % 8.42 C
1823 09-07-2019 22:00:00 14.95 C 62.5000 % 7.86 C
1824 09-07-2019 23:00:00 13.10833 C 71.8333 % 8.15 C
1825 10-07-2019 00:00:00 12.05 C 75.0833 % 7.78 C
Sensor: Nr:Datum:Temp:Feuchte:Taupunkt:
Aussen-T/F 1826 10-07-2019 01:00:00 11.01667 C 78.0000 % 7.33 C
1827 10-07-2019 02:00:00 10.01667 C 81.1667 % 6.94 C
1828 10-07-2019 03:00:00 9.05 C 84.6667 % 6.61 C
1829 10-07-2019 04:00:00 8.5 C 87.0000 % 6.46 C
1830 10-07-2019 05:00:00 8.23333 C 88.5833 % 6.46 C
1831 10-07-2019 06:00:00 8.10833 C 89.7500 % 6.53 C
1832 10-07-2019 07:00:00 8.46667 C 90.5833 % 7.02 C
1833 10-07-2019 08:00:00 10 C 90.1667 % 8.46 C
1834 10-07-2019 09:00:00 12.49167 C 81.8333 % 9.48 C
1835 10-07-2019 10:00:00 16.09167 C 68.5000 % 10.3 C
1836 10-07-2019 11:00:00 18.40833 C 54.5833 % 9.1 C
1837 10-07-2019 12:00:00 19.80833 C 42.6667 % 6.77 C
1838 10-07-2019 13:00:00 21.15833 C 35.4167 % 5.28 C
1839 10-07-2019 14:00:00 22.70833 C 30.8333 % 4.65 C
1840 10-07-2019 15:00:00 24.41667 C 28.2500 % 4.87 C
1841 10-07-2019 16:00:00 25.66667 C 26.6667 % 5.11 C
1842 10-07-2019 17:00:00 26.63333 C 25.4167 % 5.24 C
1843 10-07-2019 18:00:00 26.76667 C 25.7500 % 5.54 C
1844 10-07-2019 19:00:00 25.75 C 28.0833 % 5.92 C
1845 10-07-2019 20:00:00 23.525 C 33.6667 % 6.62 C
1846 10-07-2019 21:00:00 20.74167 C 43.3333 % 7.83 C
1847 10-07-2019 22:00:00 19.21667 C 48.2500 % 8.03 C
1848 10-07-2019 23:00:00 18.9 C 52.0000 % 8.84 C
1849 11-07-2019 00:00:00 19.10833 C 54.4167 % 9.7 C
1850 11-07-2019 01:00:00 17.8 C 61.0833 % 10.21 C
Sensor: Nr:Datum:Temp:Feuchte:Taupunkt:
Aussen-T/F 1851 11-07-2019 02:00:00 17.175 C 65.8333 % 10.74 C
1852 11-07-2019 03:00:00 16.875 C 70.1667 % 11.41 C
1853 11-07-2019 04:00:00 16.59167 C 72.6667 % 11.67 C
1854 11-07-2019 05:00:00 16.34167 C 73.1667 % 11.53 C
1855 11-07-2019 06:00:00 16.39167 C 74.2500 % 11.8 C
1856 11-07-2019 07:00:00 17.23333 C 71.7500 % 12.09 C
1857 11-07-2019 08:00:00 17.85833 C 69.0000 % 12.1 C
1858 11-07-2019 09:00:00 18.675 C 68.5000 % 12.77 C
1859 11-07-2019 10:00:00 18.7 C 70.6667 % 13.27 C
1860 11-07-2019 11:00:00 18.9 C 69.5000 % 13.2 C
1861 11-07-2019 12:00:00 17.35 C 81.9167 % 14.23 C
1862 11-07-2019 13:00:00 16.31667 C 90.8333 % 14.82 C
1863 11-07-2019 14:00:00 16.79167 C 92.7500 % 15.61 C
1864 11-07-2019 15:00:00 17.575 C 92.5000 % 16.35 C
1865 11-07-2019 16:00:00 19.11667 C 89.3333 % 17.32 C
1866 11-07-2019 17:00:00 20.88333 C 84.5000 % 18.17 C
1867 11-07-2019 18:00:00 19.50833 C 90.0833 % 17.84 C
1868 11-07-2019 19:00:00 18.3 C 93.0833 % 17.16 C
1869 11-07-2019 20:00:00 18.04167 C 94.0000 % 17.06 C
1870 11-07-2019 21:00:00 17.44167 C 94.0000 % 16.47 C
1871 11-07-2019 22:00:00 16.85 C 94.9167 % 16.03 C
1872 11-07-2019 23:00:00 16.43333 C 95.0833 % 15.64 C
1873 12-07-2019 00:00:00 16.05 C 96.0000 % 15.41 C
1874 12-07-2019 01:00:00 15.70833 C 96.0000 % 15.07 C
1875 12-07-2019 02:00:00 15.34167 C 96.0000 % 14.71 C
Sensor: Nr:Datum:Temp:Feuchte:Taupunkt:
Aussen-T/F 1876 12-07-2019 03:00:00 15.31667 C 96.5000 % 14.76 C
1877 12-07-2019 04:00:00 14.93333 C 96.4167 % 14.37 C
1878 12-07-2019 05:00:00 14.58333 C 97.0000 % 14.11 C
1879 12-07-2019 06:00:00 14.75833 C 97.0000 % 14.29 C
1880 12-07-2019 07:00:00 15.73333 C 97.1667 % 15.29 C
1881 12-07-2019 08:00:00 16.45833 C 97.0833 % 15.99 C
1882 12-07-2019 09:00:00 17.45 C 97.4167 % 17.04 C
1883 12-07-2019 10:00:00 18.78333 C 95.0000 % 17.97 C
1884 12-07-2019 11:00:00 20.325 C 88.7500 % 18.41 C
1885 12-07-2019 12:00:00 19.04167 C 91.7500 % 17.67 C
1886 12-07-2019 13:00:00 17.98333 C 94.2500 % 17.05 C
1887 12-07-2019 14:00:00 17.70833 C 94.1667 % 16.76 C
1888 12-07-2019 15:00:00 19.6 C 89.0833 % 17.75 C
1889 12-07-2019 16:00:00 20.76667 C 86.8333 % 18.49 C
1890 12-07-2019 17:00:00 19.975 C 79.9167 % 16.4 C
1891 12-07-2019 18:00:00 18.30833 C 84.9167 % 15.73 C
1892 12-07-2019 19:00:00 17.55833 C 87.6667 % 15.49 C
1893 12-07-2019 20:00:00 18.23333 C 88.2500 % 16.26 C
1894 12-07-2019 21:00:00 17.63333 C 87.0000 % 15.44 C
1895 12-07-2019 22:00:00 17.3 C 86.2500 % 14.98 C
1896 12-07-2019 23:00:00 16.55 C 88.3333 % 14.61 C
1897 13-07-2019 00:00:00 16.34167 C 86.6667 % 14.11 C
1898 13-07-2019 01:00:00 16.13333 C 89.9167 % 14.48 C
1899 13-07-2019 02:00:00 15.51667 C 94.0000 % 14.56 C
1900 13-07-2019 03:00:00 15.175 C 94.9167 % 14.37 C
Sensor: Nr:Datum:Temp:Feuchte:Taupunkt:
Aussen-T/F 1901 13-07-2019 04:00:00 14.99167 C 95.0833 % 14.21 C
1902 13-07-2019 05:00:00 14.90833 C 96.0000 % 14.28 C
1903 13-07-2019 06:00:00 14.75 C 96.0000 % 14.12 C
1904 13-07-2019 07:00:00 14.93333 C 96.1667 % 14.33 C
1905 13-07-2019 08:00:00 15.61667 C 96.1667 % 15.01 C
1906 13-07-2019 09:00:00 15.83333 C 95.5000 % 15.12 C
1907 13-07-2019 10:00:00 16.5 C 91.0000 % 15.03 C
1908 13-07-2019 11:00:00 17.51667 C 88.3333 % 15.57 C
1909 13-07-2019 12:00:00 18.75833 C 81.5000 % 15.53 C
1910 13-07-2019 13:00:00 19.725 C 75.9167 % 15.36 C
1911 13-07-2019 14:00:00 21.15 C 69.2500 % 15.3 C
1912 13-07-2019 15:00:00 21.18333 C 71.0833 % 15.74 C
1913 13-07-2019 16:00:00 20.90833 C 68.9167 % 14.99 C
1914 13-07-2019 17:00:00 21.84167 C 67.1667 % 15.48 C
1915 13-07-2019 18:00:00 22.38333 C 64.2500 % 15.3 C
1916 13-07-2019 19:00:00 22.70833 C 63.0000 % 15.3 C
1917 13-07-2019 20:00:00 20.45833 C 70.1667 % 14.84 C
1918 13-07-2019 21:00:00 19.2 C 77.2500 % 15.12 C
1919 13-07-2019 22:00:00 18.225 C 85.0833 % 15.68 C
1920 13-07-2019 23:00:00 17.21667 C 89.5833 % 15.49 C
1921 14-07-2019 00:00:00 16.95 C 89.7500 % 15.26 C
1922 14-07-2019 01:00:00 16.975 C 88.5833 % 15.08 C
1923 14-07-2019 02:00:00 16.35833 C 89.6667 % 14.66 C
1924 14-07-2019 03:00:00 15.44167 C 90.9167 % 13.97 C
1925 14-07-2019 04:00:00 15.11667 C 90.9167 % 13.64 C
Sensor: Nr:Datum:Temp:Feuchte:Taupunkt:
Aussen-T/F 1926 14-07-2019 05:00:00 14.85 C 90.2500 % 13.27 C
1927 14-07-2019 06:00:00 14.71667 C 90.9167 % 13.25 C
1928 14-07-2019 07:00:00 14.86667 C 86.8333 % 12.69 C
1929 14-07-2019 08:00:00 15.40833 C 85.3333 % 12.96 C
1930 14-07-2019 09:00:00 15.26667 C 84.1667 % 12.61 C
1931 14-07-2019 10:00:00 16.00833 C 77.7500 % 12.13 C
1932 14-07-2019 11:00:00 16.83333 C 73.1667 % 12 C
1933 14-07-2019 12:00:00 17.53333 C 69.4167 % 11.88 C
1934 14-07-2019 13:00:00 17.80833 C 66.8333 % 11.57 C
1935 14-07-2019 14:00:00 18.19167 C 64.3333 % 11.35 C
1936 14-07-2019 15:00:00 18.925 C 61.0833 % 11.26 C
1937 14-07-2019 16:00:00 19.33333 C 58.8333 % 11.08 C
1938 14-07-2019 17:00:00 19.34167 C 58.5833 % 11.03 C
1939 14-07-2019 18:00:00 18.65833 C 61.8333 % 11.2 C
1940 14-07-2019 19:00:00 18.36667 C 62.0000 % 10.96 C
1941 14-07-2019 20:00:00 17.89167 C 66.0000 % 11.46 C
1942 14-07-2019 21:00:00 17.45 C 67.4167 % 11.36 C
1943 14-07-2019 22:00:00 17.125 C 68.0833 % 11.19 C
1944 14-07-2019 23:00:00 16.8 C 71.0833 % 11.53 C
1945 15-07-2019 00:00:00 16.06667 C 76.7500 % 11.99 C
1946 15-07-2019 01:00:00 15.63333 C 78.7500 % 11.96 C
1947 15-07-2019 02:00:00 15.55833 C 80.3333 % 12.19 C
1948 15-07-2019 03:00:00 14.99167 C 83.5000 % 12.22 C
1949 15-07-2019 04:00:00 15.30833 C 78.2500 % 11.55 C
1950 15-07-2019 05:00:00 15.65 C 74.4167 % 11.12 C
Sensor: Nr:Datum:Temp:Feuchte:Taupunkt:
Aussen-T/F 1951 15-07-2019 06:00:00 15.6 C 74.1667 % 11.02 C
1952 15-07-2019 07:00:00 15.69167 C 74.0000 % 11.07 C
1953 15-07-2019 08:00:00 15.83333 C 74.0833 % 11.23 C
1954 15-07-2019 09:00:00 16.53333 C 71.4167 % 11.35 C
1955 15-07-2019 10:00:00 16.8 C 72.1667 % 11.76 C
1956 15-07-2019 11:00:00 16.84167 C 74.4167 % 12.27 C
1957 15-07-2019 12:00:00 17.10833 C 72.8333 % 12.2 C
1958 15-07-2019 13:00:00 17.49167 C 69.7500 % 11.91 C
1959 15-07-2019 14:00:00 18.09167 C 66.3333 % 11.72 C
1960 15-07-2019 15:00:00 17.68333 C 67.9167 % 11.69 C
1961 15-07-2019 16:00:00 17.11667 C 70.5000 % 11.71 C
1962 15-07-2019 17:00:00 16.775 C 71.6667 % 11.63 C
1963 15-07-2019 18:00:00 16.69167 C 71.5833 % 11.54 C
1964 15-07-2019 19:00:00 16.78333 C 71.0000 % 11.5 C
1965 15-07-2019 20:00:00 16.69167 C 71.0833 % 11.43 C
1966 15-07-2019 21:00:00 16.34167 C 73.9167 % 11.68 C
1967 15-07-2019 22:00:00 15.61667 C 79.5000 % 12.09 C
1968 15-07-2019 23:00:00 15.44167 C 77.2500 % 11.48 C
1969 16-07-2019 00:00:00 14.75 C 79.8333 % 11.31 C
1970 16-07-2019 01:00:00 13.675 C 80.3333 % 10.35 C
1971 16-07-2019 02:00:00 12.23333 C 85.5000 % 9.88 C
1972 16-07-2019 03:00:00 10.9 C 90.2500 % 9.37 C
1973 16-07-2019 04:00:00 10.28333 C 92.2500 % 9.08 C
1974 16-07-2019 05:00:00 9.98333 C 93.1667 % 8.93 C
1975 16-07-2019 06:00:00 10.125 C 94.4167 % 9.27 C
Sensor: Nr:Datum:Temp:Feuchte:Taupunkt:
Aussen-T/F 1976 16-07-2019 07:00:00 11.01667 C 93.7500 % 10.05 C
1977 16-07-2019 08:00:00 12.625 C 90.7500 % 11.15 C
1978 16-07-2019 09:00:00 14.58333 C 84.1667 % 11.94 C
1979 16-07-2019 10:00:00 15.51667 C 77.5000 % 11.6 C
1980 16-07-2019 11:00:00 15.99167 C 74.6667 % 11.5 C
1981 16-07-2019 12:00:00 16.725 C 71.8333 % 11.62 C
1982 16-07-2019 13:00:00 17.40833 C 69.4167 % 11.76 C
1983 16-07-2019 14:00:00 18.38333 C 66.5000 % 12.04 C
1984 16-07-2019 15:00:00 20.325 C 60.9167 % 12.54 C
1985 16-07-2019 16:00:00 22.31667 C 54.8333 % 12.8 C
1986 16-07-2019 17:00:00 22.8 C 53.0833 % 12.75 C
1987 16-07-2019 18:00:00 23.075 C 52.0000 % 12.69 C
1988 16-07-2019 19:00:00 22.125 C 54.1667 % 12.43 C
1989 16-07-2019 20:00:00 20.81667 C 58.3333 % 12.34 C
1990 16-07-2019 21:00:00 18.30833 C 70.1667 % 12.78 C
1991 16-07-2019 22:00:00 15.85 C 78.8333 % 12.18 C
1992 16-07-2019 23:00:00 15.08333 C 81.7500 % 11.99 C
1993 17-07-2019 00:00:00 14.09167 C 84.3333 % 11.49 C
1994 17-07-2019 01:00:00 13.08333 C 88.2500 % 11.19 C
1995 17-07-2019 02:00:00 12.40833 C 89.7500 % 10.77 C
1996 17-07-2019 03:00:00 11.64167 C 91.5833 % 10.32 C
1997 17-07-2019 04:00:00 11.225 C 92.8333 % 10.11 C
1998 17-07-2019 05:00:00 10.83333 C 93.7500 % 9.87 C
1999 17-07-2019 06:00:00 10.74167 C 94.5000 % 9.9 C
2000 17-07-2019 07:00:00 11.51667 C 95.0833 % 10.76 C
Sensor: Nr:Datum:Temp:Feuchte:Taupunkt:
Aussen-T/F 2001 17-07-2019 08:00:00 12.79167 C 94.5000 % 11.93 C
2002 17-07-2019 09:00:00 14.85833 C 88.5833 % 12.99 C
2003 17-07-2019 10:00:00 17.23333 C 77.4167 % 13.25 C
2004 17-07-2019 11:00:00 18.58333 C 71.6667 % 13.37 C
2005 17-07-2019 12:00:00 19.39167 C 68.7500 % 13.51 C
2006 17-07-2019 13:00:00 20.5 C 62.9167 % 13.2 C
2007 17-07-2019 14:00:00 21.69167 C 58.9167 % 13.31 C
2008 17-07-2019 15:00:00 22.69167 C 58.0000 % 14.01 C
2009 17-07-2019 16:00:00 23.675 C 54.9167 % 14.08 C
2010 17-07-2019 17:00:00 24.575 C 53.0000 % 14.36 C
2011 17-07-2019 18:00:00 24.24167 C 54.1667 % 14.39 C
2012 17-07-2019 19:00:00 23.20833 C 58.5000 % 14.62 C
2013 17-07-2019 20:00:00 21.525 C 64.2500 % 14.49 C
2014 17-07-2019 21:00:00 19.69167 C 70.6667 % 14.22 C
2015 17-07-2019 22:00:00 17.05 C 80.0000 % 13.58 C
2016 17-07-2019 23:00:00 16.025 C 84.5000 % 13.41 C
2017 18-07-2019 00:00:00 15.29167 C 86.0833 % 12.98 C
2018 18-07-2019 01:00:00 14.29167 C 88.5000 % 12.42 C
2019 18-07-2019 02:00:00 13.69167 C 91.2500 % 12.29 C
2020 18-07-2019 03:00:00 13.45833 C 92.2500 % 12.23 C
2021 18-07-2019 04:00:00 13.24167 C 92.9167 % 12.12 C
2022 18-07-2019 05:00:00 12.675 C 93.0833 % 11.59 C
2023 18-07-2019 06:00:00 12.45833 C 94.3333 % 11.57 C
2024 18-07-2019 07:00:00 13.25833 C 95.0000 % 12.48 C
2025 18-07-2019 08:00:00 14.31667 C 93.1667 % 13.23 C
Sensor: Nr:Datum:Temp:Feuchte:Taupunkt:
Aussen-T/F 2026 18-07-2019 09:00:00 16.21667 C 89.0833 % 14.42 C
2027 18-07-2019 10:00:00 18.83333 C 81.3333 % 15.57 C
2028 18-07-2019 11:00:00 21.89167 C 64.4167 % 14.88 C
2029 18-07-2019 12:00:00 24.18333 C 54.1667 % 14.34 C
2030 18-07-2019 13:00:00 25.71667 C 49.0833 % 14.23 C
2031 18-07-2019 14:00:00 27.20833 C 41.0833 % 12.85 C
2032 18-07-2019 15:00:00 26.04167 C 44.9167 % 13.16 C
2033 18-07-2019 16:00:00 24.76667 C 52.4167 % 14.37 C
2034 18-07-2019 17:00:00 24.84167 C 56.0833 % 15.49 C
2035 18-07-2019 18:00:00 23.975 C 62.7500 % 16.44 C
2036 18-07-2019 19:00:00 21.06667 C 74.2500 % 16.31 C
2037 18-07-2019 20:00:00 20.86667 C 70.0000 % 15.19 C
2038 18-07-2019 21:00:00 20.35 C 69.0833 % 14.49 C
2039 18-07-2019 22:00:00 19.66667 C 71.6667 % 14.41 C
2040 18-07-2019 23:00:00 19.35833 C 72.5000 % 14.29 C
2041 19-07-2019 00:00:00 19.33333 C 74.0833 % 14.6 C
2042 19-07-2019 01:00:00 18.45833 C 82.4167 % 15.41 C
2043 19-07-2019 02:00:00 17.05833 C 89.9167 % 15.39 C
2044 19-07-2019 03:00:00 16.60833 C 92.3333 % 15.36 C
2045 19-07-2019 04:00:00 16.375 C 93.4167 % 15.31 C
2046 19-07-2019 05:00:00 16.3 C 94.1667 % 15.36 C
2047 19-07-2019 06:00:00 16.35 C 95.0000 % 15.55 C
2048 19-07-2019 07:00:00 16.7 C 95.2500 % 15.94 C
2049 19-07-2019 08:00:00 17.23333 C 96.0000 % 16.59 C
2050 19-07-2019 09:00:00 18.025 C 94.8333 % 17.18 C
Sensor: Nr:Datum:Temp:Feuchte:Taupunkt:
Aussen-T/F 2051 19-07-2019 10:00:00 19.275 C 90.3333 % 17.65 C
2052 19-07-2019 11:00:00 20.475 C 83.6667 % 17.62 C
2053 19-07-2019 12:00:00 20.04167 C 86.1667 % 17.66 C
2054 19-07-2019 13:00:00 21.975 C 74.8333 % 17.31 C
2055 19-07-2019 14:00:00 23.525 C 60.9167 % 15.55 C
2056 19-07-2019 15:00:00 24.875 C 52.8333 % 14.59 C
2057 19-07-2019 16:00:00 25.21667 C 50.5833 % 14.23 C
2058 19-07-2019 17:00:00 25.91667 C 49.5833 % 14.57 C
2059 19-07-2019 18:00:00 25.43333 C 51.0833 % 14.59 C
2060 19-07-2019 19:00:00 24.78333 C 60.1667 % 16.54 C
2061 19-07-2019 20:00:00 23.25833 C 64.2500 % 16.13 C
2062 19-07-2019 21:00:00 20.90833 C 71.5833 % 15.58 C
2063 19-07-2019 22:00:00 19.20833 C 79.0833 % 15.5 C
2064 19-07-2019 23:00:00 18.525 C 82.9167 % 15.57 C
2065 20-07-2019 00:00:00 17.39167 C 86.1667 % 15.06 C
2066 20-07-2019 01:00:00 16.6 C 88.2500 % 14.65 C
2067 20-07-2019 02:00:00 15.74167 C 90.5000 % 14.19 C
2068 20-07-2019 03:00:00 15.025 C 92.4167 % 13.81 C
2069 20-07-2019 04:00:00 14.55833 C 93.4167 % 13.51 C
2070 20-07-2019 05:00:00 14.18333 C 94.0833 % 13.25 C
2071 20-07-2019 06:00:00 13.96667 C 94.9167 % 13.17 C
2072 20-07-2019 07:00:00 14.56667 C 95.7500 % 13.9 C
2073 20-07-2019 08:00:00 15.86667 C 96.0000 % 15.23 C
2074 20-07-2019 09:00:00 17.73333 C 94.8333 % 16.89 C
2075 20-07-2019 10:00:00 21.4 C 87.2500 % 19.19 C
Sensor: Nr:Datum:Temp:Feuchte:Taupunkt:
Aussen-T/F 2076 20-07-2019 11:00:00 25.8 C 63.2500 % 18.28 C
2077 20-07-2019 12:00:00 27.775 C 51.4167 % 16.84 C
2078 20-07-2019 13:00:00 28.175 C 50.5000 % 16.92 C
2079 20-07-2019 14:00:00 30.04167 C 45.4167 % 16.95 C
2080 20-07-2019 15:00:00 30.8 C 43.7500 % 17.04 C
2081 20-07-2019 16:00:00 28.94167 C 64.4167 % 21.55 C
2082 20-07-2019 17:00:00 28.35 C 60.9167 % 20.08 C
2083 20-07-2019 18:00:00 28.925 C 49.3333 % 17.24 C
2084 20-07-2019 19:00:00 27.50833 C 53.5833 % 17.25 C
2085 20-07-2019 20:00:00 23.425 C 69.5833 % 17.55 C
2086 20-07-2019 21:00:00 21.725 C 76.0833 % 17.33 C
2087 20-07-2019 22:00:00 20.56667 C 80.0833 % 17.01 C
2088 20-07-2019 23:00:00 19.75 C 83.5833 % 16.89 C
2089 21-07-2019 00:00:00 19.08333 C 85.6667 % 16.63 C
2090 21-07-2019 01:00:00 18.58333 C 87.9167 % 16.54 C
2091 21-07-2019 02:00:00 18.875 C 87.7500 % 16.8 C
2092 21-07-2019 03:00:00 18.65 C 88.6667 % 16.74 C
2093 21-07-2019 04:00:00 17.95 C 89.3333 % 16.17 C
2094 21-07-2019 05:00:00 17.46667 C 91.1667 % 16.01 C
2095 21-07-2019 06:00:00 17.73333 C 91.6667 % 16.36 C
2096 21-07-2019 07:00:00 18.5 C 89.1667 % 16.68 C
2097 21-07-2019 08:00:00 19.34167 C 80.4167 % 15.89 C
2098 21-07-2019 09:00:00 20.30833 C 74.0000 % 15.52 C
2099 21-07-2019 10:00:00 21.85833 C 66.2500 % 15.28 C
2100 21-07-2019 11:00:00 23.79167 C 53.8333 % 13.88 C
Sensor: Nr:Datum:Temp:Feuchte:Taupunkt:
Aussen-T/F 2101 21-07-2019 12:00:00 24.96667 C 51.0833 % 14.16 C
2102 21-07-2019 13:00:00 24.95833 C 53.2500 % 14.79 C
2103 21-07-2019 14:00:00 26.01667 C 51.0833 % 15.12 C
2104 21-07-2019 15:00:00 26.84167 C 48.3333 % 15.02 C
2105 21-07-2019 16:00:00 27.76667 C 45.9167 % 15.06 C
2106 21-07-2019 17:00:00 27.275 C 47.5833 % 15.17 C
2107 21-07-2019 18:00:00 26.44167 C 49.2500 % 14.94 C
2108 21-07-2019 19:00:00 25.40833 C 52.1667 % 14.89 C
2109 21-07-2019 20:00:00 24.4 C 54.8333 % 14.73 C
2110 21-07-2019 21:00:00 22.64167 C 61.1667 % 14.78 C
2111 21-07-2019 22:00:00 19.85 C 71.5000 % 14.55 C
2112 21-07-2019 23:00:00 18.35 C 78.1667 % 14.48 C
2113 22-07-2019 00:00:00 17.075 C 81.0833 % 13.81 C
2114 22-07-2019 01:00:00 16.15833 C 84.1667 % 13.48 C
2115 22-07-2019 02:00:00 15.64167 C 87.4167 % 13.56 C
2116 22-07-2019 03:00:00 15.33333 C 88.3333 % 13.42 C
2117 22-07-2019 04:00:00 14.74167 C 89.5000 % 13.03 C
2118 22-07-2019 05:00:00 14.3 C 90.9167 % 12.84 C
2119 22-07-2019 06:00:00 14.175 C 91.8333 % 12.87 C
2120 22-07-2019 07:00:00 14.725 C 92.7500 % 13.56 C
2121 22-07-2019 08:00:00 16.28333 C 89.2500 % 14.51 C
2122 22-07-2019 09:00:00 18.20833 C 83.9167 % 15.45 C
2123 22-07-2019 10:00:00 20.80833 C 74.2500 % 16.06 C
2124 22-07-2019 11:00:00 24.00833 C 58.0000 % 15.24 C
2125 22-07-2019 12:00:00 25.55833 C 52.5833 % 15.15 C
Sensor: Nr:Datum:Temp:Feuchte:Taupunkt:
Aussen-T/F 2126 22-07-2019 13:00:00 26.41667 C 50.1667 % 15.21 C
2127 22-07-2019 14:00:00 27.775 C 45.7500 % 15.01 C
2128 22-07-2019 15:00:00 29.05 C 43.0833 % 15.23 C
2129 22-07-2019 16:00:00 30.80833 C 38.7500 % 15.15 C
2130 22-07-2019 17:00:00 31.51667 C 36.8333 % 14.99 C
2131 22-07-2019 18:00:00 32.31667 C 35.3333 % 15.04 C
2132 22-07-2019 19:00:00 31.475 C 36.3333 % 14.74 C
2133 22-07-2019 20:00:00 29.425 C 42.9167 % 15.51 C
2134 22-07-2019 21:00:00 25.59167 C 56.5000 % 16.3 C
2135 22-07-2019 22:00:00 22.85 C 63.6667 % 15.6 C
2136 22-07-2019 23:00:00 20.925 C 71.0000 % 15.47 C
2137 23-07-2019 00:00:00 19.4 C 76.2500 % 15.11 C
2138 23-07-2019 01:00:00 18.375 C 79.8333 % 14.83 C
2139 23-07-2019 02:00:00 17.55833 C 82.5000 % 14.55 C
2140 23-07-2019 03:00:00 16.84167 C 85.0833 % 14.32 C
2141 23-07-2019 04:00:00 16.29167 C 87.4167 % 14.2 C
2142 23-07-2019 05:00:00 15.825 C 89.0833 % 14.03 C
2143 23-07-2019 06:00:00 15.65833 C 90.8333 % 14.17 C
2144 23-07-2019 07:00:00 16.10833 C 91.0000 % 14.64 C
2145 23-07-2019 08:00:00 16.83333 C 90.5833 % 15.28 C
2146 23-07-2019 09:00:00 18.70833 C 87.0833 % 16.52 C
2147 23-07-2019 10:00:00 22.425 C 75.0000 % 17.77 C
2148 23-07-2019 11:00:00 27.35 C 53.3333 % 17.03 C
2149 23-07-2019 12:00:00 29.59167 C 44.0000 % 16.05 C
2150 23-07-2019 13:00:00 30.78333 C 39.9167 % 15.59 C
Sensor: Nr:Datum:Temp:Feuchte:Taupunkt:
Aussen-T/F 2151 23-07-2019 14:00:00 32.11667 C 37.1667 % 15.66 C
2152 23-07-2019 15:00:00 33.90833 C 35.0833 % 16.33 C
2153 23-07-2019 16:00:00 35.8 C 30.9167 % 15.99 C
2154 23-07-2019 17:00:00 36.38333 C 28.6667 % 15.31 C
2155 23-07-2019 18:00:00 36.76667 C 28.4167 % 15.5 C
2156 23-07-2019 19:00:00 35.64167 C 30.8333 % 15.81 C
2157 23-07-2019 20:00:00 32.725 C 40.6667 % 17.61 C
2158 23-07-2019 21:00:00 28.00833 C 50.3333 % 16.72 C
2159 23-07-2019 22:00:00 25.2 C 57.8333 % 16.3 C
2160 23-07-2019 23:00:00 22.93333 C 66.0000 % 16.24 C
2161 24-07-2019 00:00:00 21.44167 C 71.5000 % 16.07 C
2162 24-07-2019 01:00:00 20.31667 C 76.4167 % 16.03 C
2163 24-07-2019 02:00:00 19.30833 C 79.0000 % 15.58 C
2164 24-07-2019 03:00:00 18.63333 C 81.7500 % 15.45 C
2165 24-07-2019 04:00:00 17.76667 C 84.5833 % 15.14 C
2166 24-07-2019 05:00:00 17.23333 C 87.0833 % 15.07 C
2167 24-07-2019 06:00:00 17.075 C 88.2500 % 15.12 C
2168 24-07-2019 07:00:00 17.26667 C 90.0000 % 15.61 C
2169 24-07-2019 08:00:00 18.325 C 88.8333 % 16.45 C
2170 24-07-2019 09:00:00 20.23333 C 85.3333 % 17.69 C
2171 24-07-2019 10:00:00 23.75 C 72.4167 % 18.49 C
2172 24-07-2019 11:00:00 27.43333 C 59.5000 % 18.84 C
2173 24-07-2019 12:00:00 32.04167 C 41.6667 % 17.39 C
2174 24-07-2019 13:00:00 34.175 C 29.0833 % 13.64 C
2175 24-07-2019 14:00:00 35.31667 C 26.8333 % 13.38 C
Sensor: Nr:Datum:Temp:Feuchte:Taupunkt:
Aussen-T/F 2176 24-07-2019 15:00:00 36.975 C 26.0000 % 14.29 C
2177 24-07-2019 16:00:00 39.59167 C 23.0833 % 14.64 C
2178 24-07-2019 17:00:00 39.60833 C 22.9167 % 14.54 C
2179 24-07-2019 18:00:00 39.31667 C 22.6667 % 14.13 C
2180 24-07-2019 19:00:00 38.49167 C 27.5833 % 16.49 C
2181 24-07-2019 20:00:00 33.13333 C 40.0000 % 17.71 C
2182 24-07-2019 21:00:00 28.825 C 48.8333 % 16.99 C
2183 24-07-2019 22:00:00 27.375 C 52.0000 % 16.65 C
2184 24-07-2019 23:00:00 25.58333 C 58.3333 % 16.8 C
2185 25-07-2019 00:00:00 23.68333 C 63.0833 % 16.24 C
2186 25-07-2019 01:00:00 22.53333 C 66.5833 % 16 C
2187 25-07-2019 02:00:00 21.6 C 70.5000 % 16.01 C
2188 25-07-2019 03:00:00 20.89167 C 73.9167 % 16.07 C
2189 25-07-2019 04:00:00 20.075 C 77.7500 % 16.07 C
2190 25-07-2019 05:00:00 19.35833 C 80.0000 % 15.82 C
2191 25-07-2019 06:00:00 19.19167 C 82.2500 % 16.09 C
2192 25-07-2019 07:00:00 19.55833 C 83.8333 % 16.75 C
2193 25-07-2019 08:00:00 20.73333 C 82.7500 % 17.69 C
2194 25-07-2019 09:00:00 22.75833 C 76.9167 % 18.5 C
2195 25-07-2019 10:00:00 25.84167 C 66.6667 % 19.16 C
2196 25-07-2019 11:00:00 29.93333 C 53.3333 % 19.41 C
2197 25-07-2019 12:00:00 34.525 C 35.4167 % 17.02 C
2198 25-07-2019 13:00:00 36.46667 C 31.0000 % 16.6 C
2199 25-07-2019 14:00:00 37.425 C 28.8333 % 16.28 C
2200 25-07-2019 15:00:00 38.79167 C 26.3333 % 16.02 C
Sensor: Nr:Datum:Temp:Feuchte:Taupunkt:
Aussen-T/F 2201 25-07-2019 16:00:00 40.15 C 23.6667 % 15.49 C
2202 25-07-2019 17:00:00 39.80833 C 22.5833 % 14.48 C
2203 25-07-2019 18:00:00 39.09167 C 23.5000 % 14.5 C
2204 25-07-2019 19:00:00 36.66667 C 33.4167 % 17.96 C
2205 25-07-2019 20:00:00 32.81667 C 41.8333 % 18.14 C
2206 25-07-2019 21:00:00 30.34167 C 44.6667 % 16.96 C
2207 25-07-2019 22:00:00 28.75833 C 47.2500 % 16.41 C
2208 25-07-2019 23:00:00 27.56667 C 49.6667 % 16.1 C
2209 26-07-2019 00:00:00 26.19167 C 53.4167 % 15.98 C
2210 26-07-2019 01:00:00 25 C 57.0833 % 15.91 C
2211 26-07-2019 02:00:00 22.51667 C 67.0000 % 16.08 C
2212 26-07-2019 03:00:00 20.99167 C 71.6667 % 15.68 C
2213 26-07-2019 04:00:00 20.125 C 76.5833 % 15.88 C
2214 26-07-2019 05:00:00 19.29167 C 79.0000 % 15.56 C
2215 26-07-2019 06:00:00 18.95833 C 80.3333 % 15.5 C
2216 26-07-2019 07:00:00 19.61667 C 82.5000 % 16.56 C
2217 26-07-2019 08:00:00 21.10833 C 80.0000 % 17.52 C
2218 26-07-2019 09:00:00 23.50833 C 69.2500 % 17.55 C
2219 26-07-2019 10:00:00 28.225 C 49.5000 % 16.65 C
2220 26-07-2019 11:00:00 32.05 C 38.8333 % 16.28 C
2221 26-07-2019 12:00:00 34.35 C 34.5000 % 16.45 C
2222 26-07-2019 13:00:00 36.00833 C 30.9167 % 16.16 C
2223 26-07-2019 14:00:00 37.35833 C 26.7500 % 15.06 C
2224 26-07-2019 15:00:00 37.1 C 28.3333 % 15.73 C
2225 26-07-2019 16:00:00 35.28333 C 34.0000 % 17.03 C
Sensor: Nr:Datum:Temp:Feuchte:Taupunkt:
Aussen-T/F 2226 26-07-2019 17:00:00 32.5 C 42.4167 % 18.08 C
2227 26-07-2019 18:00:00 30.44167 C 45.5000 % 17.34 C
2228 26-07-2019 19:00:00 28.825 C 52.1667 % 18.04 C
2229 26-07-2019 20:00:00 27.525 C 57.7500 % 18.45 C
2230 26-07-2019 21:00:00 26.33333 C 59.3333 % 17.77 C
2231 26-07-2019 22:00:00 25.5 C 62.0833 % 17.7 C
2232 26-07-2019 23:00:00 24.35833 C 66.7500 % 17.78 C
2233 27-07-2019 00:00:00 23.15 C 70.2500 % 17.43 C
2234 27-07-2019 01:00:00 22.63333 C 73.2500 % 17.6 C
2235 27-07-2019 02:00:00 22.33333 C 75.1667 % 17.72 C
2236 27-07-2019 03:00:00 22.59167 C 74.7500 % 17.88 C
2237 27-07-2019 04:00:00 20.9 C 86.4167 % 18.55 C
2238 27-07-2019 05:00:00 20.275 C 88.7500 % 18.36 C
2239 27-07-2019 06:00:00 20.525 C 88.5833 % 18.57 C
2240 27-07-2019 07:00:00 21.25 C 88.1667 % 19.21 C
2241 27-07-2019 08:00:00 22.575 C 81.4167 % 19.23 C
2242 27-07-2019 09:00:00 24.725 C 73.5000 % 19.67 C
2243 27-07-2019 10:00:00 24.64167 C 81.6667 % 21.29 C
2244 27-07-2019 11:00:00 23.94167 C 86.5833 % 21.56 C
2245 27-07-2019 12:00:00 23.75 C 83.5000 % 20.79 C
2246 27-07-2019 13:00:00 26 C 73.8333 % 20.97 C
2247 27-07-2019 14:00:00 25.725 C 71.0833 % 20.09 C
2248 27-07-2019 15:00:00 25.04167 C 74.0833 % 20.1 C
2249 27-07-2019 16:00:00 25.96667 C 68.5000 % 19.72 C
2250 27-07-2019 17:00:00 24.49167 C 75.9167 % 19.96 C
Sensor: Nr:Datum:Temp:Feuchte:Taupunkt:
Aussen-T/F 2251 27-07-2019 18:00:00 24.90833 C 75.7500 % 20.33 C
2252 27-07-2019 19:00:00 23.84167 C 80.7500 % 20.33 C
2253 27-07-2019 20:00:00 22.88333 C 84.9167 % 20.21 C
2254 27-07-2019 21:00:00 22.075 C 85.6667 % 19.56 C
2255 27-07-2019 22:00:00 21.45 C 87.1667 % 19.23 C
2256 27-07-2019 23:00:00 21.14167 C 88.7500 % 19.21 C
2257 28-07-2019 00:00:00 20.83333 C 89.9167 % 19.12 C
2258 28-07-2019 01:00:00 20.70833 C 90.0000 % 19.01 C
2259 28-07-2019 02:00:00 20.7 C 90.0000 % 19 C
2260 28-07-2019 03:00:00 20.68333 C 90.0000 % 18.98 C
2261 28-07-2019 04:00:00 20.60833 C 90.8333 % 19.06 C
2262 28-07-2019 05:00:00 20.55 C 91.0000 % 19.03 C
2263 28-07-2019 06:00:00 20.54167 C 91.0000 % 19.02 C
2264 28-07-2019 07:00:00 20.69167 C 90.0000 % 18.99 C
2265 28-07-2019 08:00:00 20.71667 C 89.0833 % 18.85 C
2266 28-07-2019 09:00:00 20.425 C 90.3333 % 18.79 C
2267 28-07-2019 10:00:00 20.025 C 91.8333 % 18.66 C
2268 28-07-2019 11:00:00 20.08333 C 91.8333 % 18.71 C
2269 28-07-2019 12:00:00 20.50833 C 87.8333 % 18.42 C
2270 28-07-2019 13:00:00 20.30833 C 87.3333 % 18.13 C
2271 28-07-2019 14:00:00 19.98333 C 89.2500 % 18.16 C
2272 28-07-2019 15:00:00 19.90833 C 88.1667 % 17.89 C
2273 28-07-2019 16:00:00 19.81667 C 87.6667 % 17.71 C
2274 28-07-2019 17:00:00 19.45833 C 89.8333 % 17.75 C
2275 28-07-2019 18:00:00 19.175 C 90.4167 % 17.57 C
Sensor: Nr:Datum:Temp:Feuchte:Taupunkt:
Aussen-T/F 2276 28-07-2019 19:00:00 18.875 C 91.5833 % 17.47 C
2277 28-07-2019 20:00:00 18.5 C 92.7500 % 17.3 C
2278 28-07-2019 21:00:00 18.175 C 93.8333 % 17.17 C
2279 28-07-2019 22:00:00 17.90833 C 94.7500 % 17.05 C
2280 28-07-2019 23:00:00 17.6 C 95.0000 % 16.79 C
2281 29-07-2019 00:00:00 17.325 C 95.0000 % 16.52 C
2282 29-07-2019 01:00:00 17.10833 C 95.0000 % 16.3 C
2283 29-07-2019 02:00:00 16.975 C 95.7500 % 16.29 C
2284 29-07-2019 03:00:00 16.84167 C 96.0000 % 16.2 C
2285 29-07-2019 04:00:00 16.80833 C 96.0000 % 16.17 C
2286 29-07-2019 05:00:00 16.74167 C 96.0000 % 16.1 C
2287 29-07-2019 06:00:00 16.725 C 96.0000 % 16.08 C
2288 29-07-2019 07:00:00 16.99167 C 95.7500 % 16.31 C
2289 29-07-2019 08:00:00 17.46667 C 92.5833 % 16.25 C
2290 29-07-2019 09:00:00 18.49167 C 86.3333 % 16.17 C
2291 29-07-2019 10:00:00 19.39167 C 79.3333 % 15.72 C
2292 29-07-2019 11:00:00 20.475 C 73.7500 % 15.63 C
2293 29-07-2019 12:00:00 21.95 C 66.4167 % 15.41 C
2294 29-07-2019 13:00:00 23.25 C 62.0000 % 15.56 C
2295 29-07-2019 14:00:00 24.41667 C 57.5000 % 15.48 C
2296 29-07-2019 15:00:00 25.83333 C 51.4167 % 15.05 C
2297 29-07-2019 16:00:00 27.6 C 45.7500 % 14.85 C
2298 29-07-2019 17:00:00 28.23333 C 43.2500 % 14.56 C
2299 29-07-2019 18:00:00 27.70833 C 43.5000 % 14.17 C
2300 29-07-2019 19:00:00 28.1 C 43.3333 % 14.46 C
Sensor: Nr:Datum:Temp:Feuchte:Taupunkt:
Aussen-T/F 2301 29-07-2019 20:00:00 26.33333 C 49.1667 % 14.82 C
2302 29-07-2019 21:00:00 23.05833 C 61.6667 % 15.3 C
2303 29-07-2019 22:00:00 20.75833 C 69.6667 % 15.02 C
2304 29-07-2019 23:00:00 19.34167 C 75.5833 % 14.92 C
2305 30-07-2019 00:00:00 17.95 C 81.0833 % 14.66 C
2306 30-07-2019 01:00:00 17.425 C 83.5000 % 14.6 C
2307 30-07-2019 02:00:00 16.6 C 85.5000 % 14.16 C
2308 30-07-2019 03:00:00 15.875 C 88.1667 % 13.92 C
2309 30-07-2019 04:00:00 15.4 C 90.0833 % 13.78 C
2310 30-07-2019 05:00:00 15.03333 C 91.5000 % 13.66 C
2311 30-07-2019 06:00:00 14.725 C 92.8333 % 13.58 C
2312 30-07-2019 07:00:00 14.93333 C 93.8333 % 13.95 C
2313 30-07-2019 08:00:00 15.88333 C 93.9167 % 14.91 C
2314 30-07-2019 09:00:00 17.4 C 91.8333 % 16.06 C
2315 30-07-2019 10:00:00 20.275 C 82.2500 % 17.15 C
2316 30-07-2019 11:00:00 24.96667 C 57.9167 % 16.11 C
2317 30-07-2019 12:00:00 27.025 C 45.5000 % 14.25 C
2318 30-07-2019 13:00:00 28.24167 C 39.2500 % 13.07 C
2319 30-07-2019 14:00:00 29.49167 C 37.6667 % 13.55 C
2320 30-07-2019 15:00:00 30.69167 C 36.0833 % 13.94 C
2321 30-07-2019 16:00:00 31.20833 C 34.2500 % 13.59 C
2322 30-07-2019 17:00:00 29.30833 C 37.8333 % 13.45 C
2323 30-07-2019 18:00:00 26.625 C 40.7500 % 12.2 C
2324 30-07-2019 19:00:00 24.55833 C 51.0833 % 13.78 C
2325 30-07-2019 20:00:00 24.09167 C 55.1667 % 14.54 C
Sensor: Nr:Datum:Temp:Feuchte:Taupunkt:
Aussen-T/F 2326 30-07-2019 21:00:00 23.675 C 56.7500 % 14.59 C
2327 30-07-2019 22:00:00 22.20833 C 62.7500 % 14.77 C
2328 30-07-2019 23:00:00 21.175 C 68.0000 % 15.04 C
2329 31-07-2019 00:00:00 20.55 C 69.8333 % 14.85 C
2330 31-07-2019 01:00:00 20.325 C 71.0000 % 14.9 C
2331 31-07-2019 02:00:00 19.70833 C 71.6667 % 14.45 C
2332 31-07-2019 03:00:00 18.63333 C 75.0833 % 14.13 C
2333 31-07-2019 04:00:00 18.575 C 77.0000 % 14.47 C
2334 31-07-2019 05:00:00 17.83333 C 78.0000 % 13.95 C
2335 31-07-2019 06:00:00 17.64167 C 78.4167 % 13.84 C
2336 31-07-2019 07:00:00 17.375 C 79.9167 % 13.88 C
2337 31-07-2019 08:00:00 18.44167 C 75.4167 % 14.02 C
2338 31-07-2019 09:00:00 20.01667 C 67.6667 % 13.86 C
2339 31-07-2019 10:00:00 21.35833 C 58.7500 % 12.96 C
2340 31-07-2019 11:00:00 21.60833 C 55.2500 % 12.25 C
2341 31-07-2019 12:00:00 22.66667 C 50.8333 % 11.97 C
2342 31-07-2019 13:00:00 23.69167 C 47.0000 % 11.72 C
2343 31-07-2019 14:00:00 24.76667 C 42.4167 % 11.14 C
2344 31-07-2019 15:00:00 25.55 C 40.0833 % 10.99 C
2345 31-07-2019 16:00:00 24.95833 C 42.3333 % 11.28 C
2346 31-07-2019 17:00:00 25.25 C 42.9167 % 11.75 C
2347 31-07-2019 18:00:00 23.875 C 47.0833 % 11.91 C
2348 31-07-2019 19:00:00 23.49167 C 48.5000 % 12.01 C
2349 31-07-2019 20:00:00 22.09167 C 55.7500 % 12.84 C
2350 31-07-2019 21:00:00 19.925 C 59.6667 % 11.85 C
Sensor: Nr:Datum:Temp:Feuchte:Taupunkt:
Aussen-T/F 2351 31-07-2019 22:00:00 18.68333 C 61.0000 % 11.02 C
2352 31-07-2019 23:00:00 18.45 C 63.0833 % 11.3 C
2353 01-08-2019 00:00:00 16.88333 C 70.2500 % 11.44 C
2354 01-08-2019 01:00:00 15.525 C 75.0000 % 11.12 C
2355 01-08-2019 02:00:00 14.73333 C 78.9167 % 11.12 C
2356 01-08-2019 03:00:00 14.15833 C 81.0000 % 10.95 C
2357 01-08-2019 04:00:00 12.95833 C 84.9167 % 10.48 C
2358 01-08-2019 05:00:00 12.625 C 86.8333 % 10.49 C
2359 01-08-2019 06:00:00 12.125 C 88.5000 % 10.28 C
2360 01-08-2019 07:00:00 12.55833 C 89.1667 % 10.82 C
2361 01-08-2019 08:00:00 15.175 C 81.5000 % 12.03 C
2362 01-08-2019 09:00:00 17.56667 C 73.5833 % 12.8 C
2363 01-08-2019 10:00:00 20.3 C 62.4167 % 12.89 C
2364 01-08-2019 11:00:00 21.775 C 55.7500 % 12.55 C
2365 01-08-2019 12:00:00 22.45 C 53.5000 % 12.54 C
2366 01-08-2019 13:00:00 23.16667 C 53.0000 % 13.06 C
2367 01-08-2019 14:00:00 24.15 C 49.4167 % 12.9 C
2368 01-08-2019 15:00:00 24.575 C 48.9167 % 13.13 C
2369 01-08-2019 16:00:00 24.4 C 50.0000 % 13.31 C
2370 01-08-2019 17:00:00 25.13333 C 47.6667 % 13.25 C
2371 01-08-2019 18:00:00 26.35 C 44.7500 % 13.38 C
2372 01-08-2019 19:00:00 26.26667 C 45.1667 % 13.45 C
2373 01-08-2019 20:00:00 24.10833 C 53.8333 % 14.17 C
2374 01-08-2019 21:00:00 21.15 C 62.6667 % 13.75 C
2375 01-08-2019 22:00:00 19.76667 C 67.6667 % 13.62 C
Sensor: Nr:Datum:Temp:Feuchte:Taupunkt:
Aussen-T/F 2376 01-08-2019 23:00:00 19.24167 C 69.5833 % 13.55 C
2377 02-08-2019 00:00:00 18.81667 C 73.2500 % 13.93 C
2378 02-08-2019 01:00:00 18.34167 C 75.6667 % 13.97 C
2379 02-08-2019 02:00:00 17.86667 C 76.8333 % 13.75 C
2380 02-08-2019 03:00:00 16.94167 C 79.6667 % 13.41 C
2381 02-08-2019 04:00:00 16.31667 C 82.5000 % 13.33 C
2382 02-08-2019 05:00:00 16.2 C 83.6667 % 13.43 C
2383 02-08-2019 06:00:00 16.25 C 85.0000 % 13.73 C
2384 02-08-2019 07:00:00 16.925 C 84.5000 % 14.3 C
2385 02-08-2019 08:00:00 17.93333 C 82.3333 % 14.88 C
2386 02-08-2019 09:00:00 19.35 C 77.9167 % 15.4 C
2387 02-08-2019 10:00:00 20.71667 C 72.1667 % 15.52 C
2388 02-08-2019 11:00:00 22.16667 C 64.8333 % 15.24 C
2389 02-08-2019 12:00:00 21.275 C 75.5000 % 16.77 C
2390 02-08-2019 13:00:00 21.125 C 71.2500 % 15.72 C
2391 02-08-2019 14:00:00 23.16667 C 61.7500 % 15.42 C
2392 02-08-2019 15:00:00 24.58333 C 56.3333 % 15.32 C
2393 02-08-2019 16:00:00 25.59167 C 51.0833 % 14.73 C
2394 02-08-2019 17:00:00 26.725 C 46.0000 % 14.15 C
2395 02-08-2019 18:00:00 25.00833 C 53.4167 % 14.89 C
2396 02-08-2019 19:00:00 23.7 C 54.8333 % 14.08 C
2397 02-08-2019 20:00:00 22.45833 C 60.4167 % 14.42 C
2398 02-08-2019 21:00:00 21.275 C 63.5833 % 14.09 C
2399 02-08-2019 22:00:00 20.95 C 65.3333 % 14.2 C
2400 02-08-2019 23:00:00 18.975 C 78.8333 % 15.22 C
Sensor: Nr:Datum:Temp:Feuchte:Taupunkt:
Aussen-T/F 2401 03-08-2019 00:00:00 17.75833 C 84.3333 % 15.08 C
2402 03-08-2019 01:00:00 18.28333 C 82.5000 % 15.25 C
2403 03-08-2019 02:00:00 18.24167 C 84.4167 % 15.57 C
2404 03-08-2019 03:00:00 18.2 C 85.6667 % 15.76 C
2405 03-08-2019 04:00:00 18.15 C 86.9167 % 15.94 C
2406 03-08-2019 05:00:00 18.14167 C 87.0000 % 15.94 C
2407 03-08-2019 06:00:00 17.89167 C 87.2500 % 15.74 C
2408 03-08-2019 07:00:00 17.84167 C 85.6667 % 15.41 C
2409 03-08-2019 08:00:00 17.95 C 84.5000 % 15.3 C
2410 03-08-2019 09:00:00 18.6 C 79.2500 % 14.94 C
2411 03-08-2019 10:00:00 19.61667 C 75.5000 % 15.17 C
2412 03-08-2019 11:00:00 20.35833 C 73.1667 % 15.39 C
2413 03-08-2019 12:00:00 21.55833 C 66.9167 % 15.15 C
2414 03-08-2019 13:00:00 22.05 C 66.3333 % 15.48 C
2415 03-08-2019 14:00:00 22.20833 C 65.8333 % 15.52 C
2416 03-08-2019 15:00:00 23.80833 C 58.0000 % 15.05 C
2417 03-08-2019 16:00:00 25.16667 C 53.1667 % 14.96 C
2418 03-08-2019 17:00:00 25.49167 C 51.0000 % 14.61 C
2419 03-08-2019 18:00:00 25.46667 C 51.0000 % 14.59 C
2420 03-08-2019 19:00:00 24.30833 C 54.5000 % 14.55 C
2421 03-08-2019 20:00:00 22.61667 C 59.8333 % 14.42 C
2422 03-08-2019 21:00:00 20.55833 C 65.7500 % 13.93 C
2423 03-08-2019 22:00:00 18.10833 C 74.1667 % 13.44 C
2424 03-08-2019 23:00:00 17.05 C 79.3333 % 13.45 C
2425 04-08-2019 00:00:00 16.225 C 81.8333 % 13.12 C
Sensor: Nr:Datum:Temp:Feuchte:Taupunkt:
Aussen-T/F 2426 04-08-2019 01:00:00 15.125 C 85.5000 % 12.71 C
2427 04-08-2019 02:00:00 14 C 88.7500 % 12.17 C
2428 04-08-2019 03:00:00 13.3 C 90.9167 % 11.85 C
2429 04-08-2019 04:00:00 12.88333 C 92.0833 % 11.63 C
2430 04-08-2019 05:00:00 12.49167 C 93.0000 % 11.39 C
2431 04-08-2019 06:00:00 12.34167 C 93.8333 % 11.38 C
2432 04-08-2019 07:00:00 12.725 C 94.4167 % 11.85 C
2433 04-08-2019 08:00:00 13.73333 C 95.0000 % 12.95 C
2434 04-08-2019 09:00:00 15.34167 C 93.0833 % 14.23 C
2435 04-08-2019 10:00:00 18.10833 C 83.3333 % 15.24 C
2436 04-08-2019 11:00:00 21.31667 C 67.5000 % 15.06 C
2437 04-08-2019 12:00:00 23.3 C 59.5000 % 14.97 C
2438 04-08-2019 13:00:00 24.75 C 53.6667 % 14.72 C
2439 04-08-2019 14:00:00 25.86667 C 48.5833 % 14.21 C
2440 04-08-2019 15:00:00 28.225 C 40.6667 % 13.6 C
2441 04-08-2019 16:00:00 30.03333 C 34.5000 % 12.68 C
2442 04-08-2019 17:00:00 30.95833 C 32.0833 % 12.38 C
2443 04-08-2019 18:00:00 30.79167 C 33.7500 % 13.01 C
2444 04-08-2019 19:00:00 28.75833 C 41.6667 % 14.45 C
2445 04-08-2019 20:00:00 25.78333 C 51.9167 % 15.16 C
2446 04-08-2019 21:00:00 22.51667 C 60.3333 % 14.45 C
2447 04-08-2019 22:00:00 21.95833 C 63.6667 % 14.76 C
2448 04-08-2019 23:00:00 22.39167 C 61.2500 % 14.57 C
2449 05-08-2019 00:00:00 22.875 C 57.8333 % 14.13 C
2450 05-08-2019 01:00:00 21.65833 C 62.4167 % 14.17 C
Sensor: Nr:Datum:Temp:Feuchte:Taupunkt:
Aussen-T/F 2451 05-08-2019 02:00:00 20.28333 C 66.8333 % 13.92 C
2452 05-08-2019 03:00:00 19.6 C 69.6667 % 13.91 C
2453 05-08-2019 04:00:00 19.31667 C 75.7500 % 14.93 C
2454 05-08-2019 05:00:00 19.325 C 78.0000 % 15.39 C
2455 05-08-2019 06:00:00 18.28333 C 87.3333 % 16.14 C
2456 05-08-2019 07:00:00 17.53333 C 92.3333 % 16.28 C
2457 05-08-2019 08:00:00 17.64167 C 94.5000 % 16.75 C
2458 05-08-2019 09:00:00 18.75 C 94.9167 % 17.92 C
2459 05-08-2019 10:00:00 20.08333 C 92.5833 % 18.84 C
2460 05-08-2019 11:00:00 21.99167 C 84.0833 % 19.18 C
2461 05-08-2019 12:00:00 24.25 C 68.7500 % 18.14 C
2462 05-08-2019 13:00:00 26 C 59.7500 % 17.57 C
2463 05-08-2019 14:00:00 27.11667 C 54.6667 % 17.2 C
2464 05-08-2019 15:00:00 28.375 C 46.5000 % 15.81 C
2465 05-08-2019 16:00:00 28.875 C 41.3333 % 14.43 C
2466 05-08-2019 17:00:00 28.225 C 42.0833 % 14.13 C
2467 05-08-2019 18:00:00 27.7 C 42.1667 % 13.68 C
2468 05-08-2019 19:00:00 26.7 C 46.4167 % 14.26 C
2469 05-08-2019 20:00:00 25.1 C 53.5833 % 15.02 C
2470 05-08-2019 21:00:00 22.075 C 61.1667 % 14.25 C
2471 05-08-2019 22:00:00 20.53333 C 69.3333 % 14.73 C
2472 05-08-2019 23:00:00 19.28333 C 74.0000 % 14.54 C
2473 06-08-2019 00:00:00 18.00833 C 78.2500 % 14.17 C
2474 06-08-2019 01:00:00 17.10833 C 81.4167 % 13.9 C
2475 06-08-2019 02:00:00 17.00833 C 82.9167 % 14.09 C
Sensor: Nr:Datum:Temp:Feuchte:Taupunkt:
Aussen-T/F 2476 06-08-2019 03:00:00 17.45833 C 83.0833 % 14.56 C
2477 06-08-2019 04:00:00 17.20833 C 83.8333 % 14.45 C
2478 06-08-2019 05:00:00 16.60833 C 85.6667 % 14.2 C
2479 06-08-2019 06:00:00 16.66667 C 86.5833 % 14.42 C
2480 06-08-2019 07:00:00 17.83333 C 83.2500 % 14.95 C
2481 06-08-2019 08:00:00 18.675 C 81.0833 % 15.37 C
2482 06-08-2019 09:00:00 20.1 C 76.5000 % 15.84 C
2483 06-08-2019 10:00:00 19.91667 C 83.7500 % 17.09 C
2484 06-08-2019 11:00:00 19.65 C 89.1667 % 17.82 C
2485 06-08-2019 12:00:00 21.31667 C 82.2500 % 18.17 C
2486 06-08-2019 13:00:00 22.325 C 77.4167 % 18.18 C
2487 06-08-2019 14:00:00 23.61667 C 69.8333 % 17.79 C
2488 06-08-2019 15:00:00 24.725 C 64.7500 % 17.64 C
2489 06-08-2019 16:00:00 25.39167 C 61.9167 % 17.56 C
2490 06-08-2019 17:00:00 26.4 C 57.5000 % 17.33 C
2491 06-08-2019 18:00:00 25.20833 C 61.8333 % 17.37 C
2492 06-08-2019 19:00:00 22.54167 C 76.7500 % 18.25 C
2493 06-08-2019 20:00:00 19.05 C 90.4167 % 17.44 C
2494 06-08-2019 21:00:00 18.00833 C 93.1667 % 16.89 C
2495 06-08-2019 22:00:00 17.51667 C 94.0000 % 16.54 C
2496 06-08-2019 23:00:00 17.08333 C 94.9167 % 16.26 C
2497 07-08-2019 00:00:00 16.68333 C 95.0000 % 15.88 C
2498 07-08-2019 01:00:00 16.3 C 95.5000 % 15.58 C
2499 07-08-2019 02:00:00 16.45833 C 96.0000 % 15.82 C
2500 07-08-2019 03:00:00 16.58333 C 96.2500 % 15.98 C
Sensor: Nr:Datum:Temp:Feuchte:Taupunkt:
Aussen-T/F 2501 07-08-2019 04:00:00 16.63333 C 97.0000 % 16.15 C
2502 07-08-2019 05:00:00 16.66667 C 97.0000 % 16.19 C
2503 07-08-2019 06:00:00 16.875 C 97.0000 % 16.4 C
2504 07-08-2019 07:00:00 17.25 C 97.0000 % 16.77 C
2505 07-08-2019 08:00:00 17.75833 C 97.0000 % 17.28 C
2506 07-08-2019 09:00:00 18.25 C 97.0000 % 17.77 C
2507 07-08-2019 10:00:00 18.96667 C 96.4167 % 18.38 C
2508 07-08-2019 11:00:00 19.725 C 93.0833 % 18.57 C
2509 07-08-2019 12:00:00 20.83333 C 84.5000 % 18.12 C
2510 07-08-2019 13:00:00 21.85833 C 76.3333 % 17.51 C
2511 07-08-2019 14:00:00 22.525 C 75.3333 % 17.94 C
2512 07-08-2019 15:00:00 22.59167 C 72.9167 % 17.49 C
2513 07-08-2019 16:00:00 22.08333 C 72.8333 % 16.98 C
2514 07-08-2019 17:00:00 22.53333 C 71.2500 % 17.07 C
2515 07-08-2019 18:00:00 23.35833 C 68.4167 % 17.21 C
2516 07-08-2019 19:00:00 22.38333 C 73.7500 % 17.47 C
2517 07-08-2019 20:00:00 20.05833 C 83.5000 % 17.18 C
2518 07-08-2019 21:00:00 18.05 C 86.7500 % 15.81 C
2519 07-08-2019 22:00:00 16.74167 C 89.7500 % 15.05 C
2520 07-08-2019 23:00:00 16.64167 C 89.1667 % 14.85 C
2521 08-08-2019 00:00:00 15.76667 C 91.4167 % 14.37 C
2522 08-08-2019 01:00:00 16.35 C 92.0000 % 15.05 C
2523 08-08-2019 02:00:00 16.45 C 92.0000 % 15.15 C
2524 08-08-2019 03:00:00 16.44167 C 91.9167 % 15.12 C
2525 08-08-2019 04:00:00 16.06667 C 92.6667 % 14.88 C
Sensor: Nr:Datum:Temp:Feuchte:Taupunkt:
Aussen-T/F 2526 08-08-2019 05:00:00 15.31667 C 93.2500 % 14.23 C
2527 08-08-2019 06:00:00 15.7 C 94.0000 % 14.74 C
2528 08-08-2019 07:00:00 15.95 C 93.5833 % 14.92 C
2529 08-08-2019 08:00:00 17.05833 C 91.1667 % 15.61 C
2530 08-08-2019 09:00:00 18.55833 C 84.0833 % 15.82 C
2531 08-08-2019 10:00:00 20.05833 C 73.0000 % 15.07 C
2532 08-08-2019 11:00:00 21.74167 C 65.7500 % 15.05 C
2533 08-08-2019 12:00:00 22.99167 C 61.1667 % 15.11 C
2534 08-08-2019 13:00:00 24.025 C 57.4167 % 15.1 C
2535 08-08-2019 14:00:00 24.20833 C 57.3333 % 15.24 C
2536 08-08-2019 15:00:00 24.51667 C 57.1667 % 15.49 C
2537 08-08-2019 16:00:00 26.58333 C 51.4167 % 15.74 C
2538 08-08-2019 17:00:00 27.18333 C 48.1667 % 15.28 C
2539 08-08-2019 18:00:00 27.46667 C 47.3333 % 15.26 C
2540 08-08-2019 19:00:00 25.43333 C 62.0833 % 17.64 C
2541 08-08-2019 20:00:00 23.575 C 67.5833 % 17.23 C
2542 08-08-2019 21:00:00 20.625 C 76.4167 % 16.33 C
2543 08-08-2019 22:00:00 19.15833 C 83.1667 % 16.23 C
2544 08-08-2019 23:00:00 18.16667 C 87.5000 % 16.06 C
2545 09-08-2019 00:00:00 17.15833 C 89.4167 % 15.4 C
2546 09-08-2019 01:00:00 16.25833 C 91.2500 % 14.83 C
2547 09-08-2019 02:00:00 15.875 C 92.0000 % 14.58 C
2548 09-08-2019 03:00:00 15.21667 C 92.7500 % 14.05 C
2549 09-08-2019 04:00:00 14.725 C 93.6667 % 13.71 C
2550 09-08-2019 05:00:00 14.44167 C 94.0833 % 13.5 C
Sensor: Nr:Datum:Temp:Feuchte:Taupunkt:
Aussen-T/F 2551 09-08-2019 06:00:00 14.56667 C 95.0000 % 13.78 C
2552 09-08-2019 07:00:00 15.40833 C 95.3333 % 14.67 C
2553 09-08-2019 08:00:00 16.44167 C 93.1667 % 15.33 C
2554 09-08-2019 09:00:00 18.26667 C 87.8333 % 16.22 C
2555 09-08-2019 10:00:00 20.60833 C 80.7500 % 17.18 C
2556 09-08-2019 11:00:00 23.8 C 71.5833 % 18.35 C
2557 09-08-2019 12:00:00 25.26667 C 65.8333 % 18.42 C
2558 09-08-2019 13:00:00 25.275 C 66.4167 % 18.57 C
2559 09-08-2019 14:00:00 24.75 C 77.3333 % 20.51 C
2560 09-08-2019 15:00:00 24.43333 C 82.0833 % 21.17 C
2561 09-08-2019 16:00:00 27.25 C 69.9167 % 21.28 C
2562 09-08-2019 17:00:00 25.45 C 81.5000 % 22.05 C
2563 09-08-2019 18:00:00 22.78333 C 88.9167 % 20.86 C
2564 09-08-2019 19:00:00 21.5 C 93.0833 % 20.33 C
2565 09-08-2019 20:00:00 19.63333 C 94.0833 % 18.65 C
2566 09-08-2019 21:00:00 19.31667 C 95.5000 % 18.58 C
2567 09-08-2019 22:00:00 19.30833 C 96.0000 % 18.65 C
2568 09-08-2019 23:00:00 18.86667 C 96.0000 % 18.21 C
2569 10-08-2019 00:00:00 18.775 C 96.5833 % 18.22 C
2570 10-08-2019 01:00:00 18.73333 C 96.9167 % 18.23 C
2571 10-08-2019 02:00:00 18.50833 C 97.0000 % 18.02 C
2572 10-08-2019 03:00:00 18.29167 C 97.0000 % 17.81 C
2573 10-08-2019 04:00:00 18.11667 C 97.0000 % 17.63 C
2574 10-08-2019 05:00:00 17.53333 C 97.0000 % 17.05 C
2575 10-08-2019 06:00:00 17.45 C 97.0000 % 16.97 C
Sensor: Nr:Datum:Temp:Feuchte:Taupunkt:
Aussen-T/F 2576 10-08-2019 07:00:00 17.33333 C 97.0000 % 16.85 C
2577 10-08-2019 08:00:00 17.41667 C 95.0833 % 16.62 C
2578 10-08-2019 09:00:00 19.125 C 86.0000 % 16.73 C
2579 10-08-2019 10:00:00 20.36667 C 79.5000 % 16.7 C
2580 10-08-2019 11:00:00 21.43333 C 74.3333 % 16.68 C
2581 10-08-2019 12:00:00 22.38333 C 69.0000 % 16.42 C
2582 10-08-2019 13:00:00 23.26667 C 63.4167 % 15.93 C
2583 10-08-2019 14:00:00 23.83333 C 60.7500 % 15.8 C
2584 10-08-2019 15:00:00 24.99167 C 55.4167 % 15.44 C
2585 10-08-2019 16:00:00 25.24167 C 53.5000 % 15.13 C
2586 10-08-2019 17:00:00 26.29167 C 49.2500 % 14.81 C
2587 10-08-2019 18:00:00 25.99167 C 49.0833 % 14.48 C
2588 10-08-2019 19:00:00 25.00833 C 49.6667 % 13.76 C
2589 10-08-2019 20:00:00 22.63333 C 61.2500 % 14.79 C
2590 10-08-2019 21:00:00 19.41667 C 72.6667 % 14.38 C
2591 10-08-2019 22:00:00 17.71667 C 78.7500 % 13.98 C
2592 10-08-2019 23:00:00 16.45833 C 82.0000 % 13.38 C
2593 11-08-2019 00:00:00 15.75833 C 84.8333 % 13.21 C
2594 11-08-2019 01:00:00 15.375 C 87.3333 % 13.28 C
2595 11-08-2019 02:00:00 15.7 C 86.5000 % 13.45 C
2596 11-08-2019 03:00:00 15.20833 C 86.5000 % 12.97 C
2597 11-08-2019 04:00:00 14.43333 C 88.3333 % 12.53 C
2598 11-08-2019 05:00:00 13.58333 C 90.1667 % 12 C
2599 11-08-2019 06:00:00 13.40833 C 92.6667 % 12.25 C
2600 11-08-2019 07:00:00 14.04167 C 92.2500 % 12.8 C
Sensor: Nr:Datum:Temp:Feuchte:Taupunkt:
Aussen-T/F 2601 11-08-2019 08:00:00 14.9 C 91.3333 % 13.5 C
2602 11-08-2019 09:00:00 16.21667 C 87.0833 % 14.07 C
2603 11-08-2019 10:00:00 19.375 C 69.7500 % 13.71 C
2604 11-08-2019 11:00:00 21.26667 C 59.2500 % 13 C
2605 11-08-2019 12:00:00 22.09167 C 55.8333 % 12.86 C
2606 11-08-2019 13:00:00 22.775 C 51.0833 % 12.14 C
2607 11-08-2019 14:00:00 22.89167 C 52.5833 % 12.69 C
2608 11-08-2019 15:00:00 21.50833 C 61.3333 % 13.76 C
2609 11-08-2019 16:00:00 20.05 C 70.0000 % 14.41 C
2610 11-08-2019 17:00:00 17.18333 C 86.8333 % 14.97 C
2611 11-08-2019 18:00:00 16.475 C 90.4167 % 14.9 C
2612 11-08-2019 19:00:00 16.075 C 89.6667 % 14.38 C
2613 11-08-2019 20:00:00 15.775 C 91.0000 % 14.31 C
2614 11-08-2019 21:00:00 15.23333 C 91.7500 % 13.9 C
2615 11-08-2019 22:00:00 14.3 C 91.8333 % 12.99 C
2616 11-08-2019 23:00:00 14.24167 C 93.3333 % 13.18 C
2617 12-08-2019 00:00:00 14.85833 C 92.5833 % 13.67 C
2618 12-08-2019 01:00:00 14.325 C 92.0833 % 13.06 C
2619 12-08-2019 02:00:00 13.66667 C 93.4167 % 12.62 C
2620 12-08-2019 03:00:00 13.125 C 94.0000 % 12.18 C
2621 12-08-2019 04:00:00 12.89167 C 95.0000 % 12.11 C
2622 12-08-2019 05:00:00 12.675 C 95.0000 % 11.9 C
2623 12-08-2019 06:00:00 12.69167 C 95.5833 % 12 C
2624 12-08-2019 07:00:00 13.05833 C 96.0000 % 12.44 C
2625 12-08-2019 08:00:00 13.5 C 96.0000 % 12.87 C
Sensor: Nr:Datum:Temp:Feuchte:Taupunkt:
Aussen-T/F 2626 12-08-2019 09:00:00 15.05 C 92.5833 % 13.86 C
2627 12-08-2019 10:00:00 17.65 C 82.5000 % 14.63 C
2628 12-08-2019 11:00:00 20.08333 C 72.5833 % 15.01 C
2629 12-08-2019 12:00:00 21.275 C 65.6667 % 14.59 C
2630 12-08-2019 13:00:00 21.775 C 60.7500 % 13.86 C
2631 12-08-2019 14:00:00 22.55 C 60.2500 % 14.46 C
2632 12-08-2019 15:00:00 23.475 C 55.5833 % 14.08 C
2633 12-08-2019 16:00:00 22.54167 C 58.5000 % 14 C
2634 12-08-2019 17:00:00 17.89167 C 77.2500 % 13.85 C
2635 12-08-2019 18:00:00 15.925 C 90.0000 % 14.29 C
2636 12-08-2019 19:00:00 15.925 C 92.0000 % 14.63 C
2637 12-08-2019 20:00:00 15.54167 C 92.1667 % 14.28 C
2638 12-08-2019 21:00:00 15.19167 C 93.5833 % 14.16 C
2639 12-08-2019 22:00:00 14.975 C 94.0000 % 14.02 C
2640 12-08-2019 23:00:00 14.01667 C 92.6667 % 12.85 C
2641 13-08-2019 00:00:00 13.55833 C 94.2500 % 12.65 C
2642 13-08-2019 01:00:00 13.025 C 94.2500 % 12.12 C
2643 13-08-2019 02:00:00 12.83333 C 95.2500 % 12.09 C
2644 13-08-2019 03:00:00 12.9 C 95.5833 % 12.21 C
2645 13-08-2019 04:00:00 13.275 C 95.8333 % 12.62 C
2646 13-08-2019 05:00:00 13.18333 C 95.0000 % 12.4 C
2647 13-08-2019 06:00:00 12.75 C 95.1667 % 12 C
2648 13-08-2019 07:00:00 12.9 C 95.2500 % 12.16 C
2649 13-08-2019 08:00:00 13.39167 C 92.7500 % 12.24 C
2650 13-08-2019 09:00:00 14.85 C 86.8333 % 12.68 C
Sensor: Nr:Datum:Temp:Feuchte:Taupunkt:
Aussen-T/F 2651 13-08-2019 10:00:00 16.225 C 74.6667 % 11.72 C
2652 13-08-2019 11:00:00 17.175 C 67.2500 % 11.06 C
2653 13-08-2019 12:00:00 18.13333 C 63.4167 % 11.08 C
2654 13-08-2019 13:00:00 19.025 C 55.6667 % 9.97 C
2655 13-08-2019 14:00:00 19.875 C 52.8333 % 9.97 C
2656 13-08-2019 15:00:00 21.275 C 50.3333 % 10.54 C
2657 13-08-2019 16:00:00 21.38333 C 50.9167 % 10.81 C
2658 13-08-2019 17:00:00 21.25833 C 50.5000 % 10.57 C
2659 13-08-2019 18:00:00 21.175 C 51.8333 % 10.89 C
2660 13-08-2019 19:00:00 18.53333 C 64.7500 % 11.78 C
2661 13-08-2019 20:00:00 14.91667 C 86.6667 % 12.71 C
2662 13-08-2019 21:00:00 13.99167 C 91.3333 % 12.6 C
2663 13-08-2019 22:00:00 13.63333 C 92.5833 % 12.45 C
2664 13-08-2019 23:00:00 13.36667 C 93.0000 % 12.26 C
2665 14-08-2019 00:00:00 13.05 C 93.0833 % 11.96 C
2666 14-08-2019 01:00:00 12.61667 C 93.1667 % 11.54 C
2667 14-08-2019 02:00:00 12.10833 C 93.1667 % 11.04 C
2668 14-08-2019 03:00:00 11.93333 C 94.0000 % 11 C
2669 14-08-2019 04:00:00 11.43333 C 94.0833 % 10.52 C
2670 14-08-2019 05:00:00 11.00833 C 95.0000 % 10.24 C
2671 14-08-2019 06:00:00 10.61667 C 95.1667 % 9.88 C
2672 14-08-2019 07:00:00 10.61667 C 96.0000 % 10.01 C
2673 14-08-2019 08:00:00 11.4 C 96.3333 % 10.84 C
2674 14-08-2019 09:00:00 13.28333 C 93.5000 % 12.26 C
2675 14-08-2019 10:00:00 14.26667 C 91.8333 % 12.96 C
Sensor: Nr:Datum:Temp:Feuchte:Taupunkt:
Aussen-T/F 2676 14-08-2019 11:00:00 15.66667 C 83.2500 % 12.84 C
2677 14-08-2019 12:00:00 18.1 C 62.7500 % 10.89 C
2678 14-08-2019 13:00:00 19.59167 C 55.0000 % 10.31 C
2679 14-08-2019 14:00:00 21.08333 C 50.1667 % 10.31 C
2680 14-08-2019 15:00:00 22.60833 C 49.2500 % 11.44 C
2681 14-08-2019 16:00:00 23.74167 C 46.2500 % 11.52 C
2682 14-08-2019 17:00:00 24.44167 C 44.7500 % 11.66 C
2683 14-08-2019 18:00:00 24 C 46.7500 % 11.92 C
2684 14-08-2019 19:00:00 22.31667 C 56.5000 % 13.25 C
2685 14-08-2019 20:00:00 19.675 C 67.5833 % 13.51 C
2686 14-08-2019 21:00:00 18.1 C 74.0833 % 13.41 C
2687 14-08-2019 22:00:00 17.63333 C 76.1667 % 13.39 C
2688 14-08-2019 23:00:00 17.4 C 76.5000 % 13.23 C
2689 15-08-2019 00:00:00 17.35833 C 76.5833 % 13.21 C
2690 15-08-2019 01:00:00 17.38333 C 77.5000 % 13.41 C
2691 15-08-2019 02:00:00 16.2 C 88.4167 % 14.28 C
2692 15-08-2019 03:00:00 15.275 C 92.4167 % 14.05 C
2693 15-08-2019 04:00:00 14.90833 C 93.6667 % 13.9 C
2694 15-08-2019 05:00:00 14.84167 C 94.1667 % 13.91 C
2695 15-08-2019 06:00:00 14.96667 C 94.8333 % 14.15 C
2696 15-08-2019 07:00:00 15.6 C 92.3333 % 14.36 C
2697 15-08-2019 08:00:00 17.59167 C 83.9167 % 14.84 C
2698 15-08-2019 09:00:00 18.48333 C 81.5000 % 15.26 C
2699 15-08-2019 10:00:00 19.14167 C 81.0000 % 15.8 C
2700 15-08-2019 11:00:00 19.28333 C 81.5833 % 16.05 C
Sensor: Nr:Datum:Temp:Feuchte:Taupunkt:
Aussen-T/F 2701 15-08-2019 12:00:00 19.90833 C 79.6667 % 16.29 C
2702 15-08-2019 13:00:00 18.94167 C 88.6667 % 17.03 C
2703 15-08-2019 14:00:00 19.73333 C 86.0000 % 17.32 C
2704 15-08-2019 15:00:00 20.79167 C 81.3333 % 17.48 C
2705 15-08-2019 16:00:00 19.325 C 89.5833 % 17.57 C
2706 15-08-2019 17:00:00 17.3 C 92.9167 % 16.14 C
2707 15-08-2019 18:00:00 16.975 C 94.1667 % 16.03 C
2708 15-08-2019 19:00:00 17.25 C 94.5833 % 16.37 C
2709 15-08-2019 20:00:00 17.09167 C 94.5833 % 16.22 C
2710 15-08-2019 21:00:00 16.40833 C 94.7500 % 15.56 C
2711 15-08-2019 22:00:00 15.93333 C 94.5833 % 15.06 C
2712 15-08-2019 23:00:00 15.54167 C 95.0000 % 14.74 C
2713 16-08-2019 00:00:00 15.29167 C 95.0833 % 14.51 C
2714 16-08-2019 01:00:00 14.63333 C 95.2500 % 13.88 C
2715 16-08-2019 02:00:00 14.575 C 96.0000 % 13.94 C
2716 16-08-2019 03:00:00 14.64167 C 96.0000 % 14.01 C
2717 16-08-2019 04:00:00 14.08333 C 96.0000 % 13.46 C
2718 16-08-2019 05:00:00 13.575 C 96.2500 % 12.99 C
2719 16-08-2019 06:00:00 13.69167 C 97.0000 % 13.22 C
2720 16-08-2019 07:00:00 14.18333 C 96.5833 % 13.65 C
2721 16-08-2019 08:00:00 14.45833 C 95.0833 % 13.68 C
2722 16-08-2019 09:00:00 15.54167 C 89.7500 % 13.87 C
2723 16-08-2019 10:00:00 16.26667 C 85.7500 % 13.88 C
2724 16-08-2019 11:00:00 17.1 C 82.4167 % 14.08 C
2725 16-08-2019 12:00:00 18.43333 C 76.4167 % 14.21 C
Sensor: Nr:Datum:Temp:Feuchte:Taupunkt:
Aussen-T/F 2726 16-08-2019 13:00:00 19.65 C 70.7500 % 14.19 C
2727 16-08-2019 14:00:00 20.4 C 67.6667 % 14.22 C
2728 16-08-2019 15:00:00 21.90833 C 61.0000 % 14.05 C
2729 16-08-2019 16:00:00 23.63333 C 54.5000 % 13.92 C
2730 16-08-2019 17:00:00 24.475 C 51.8333 % 13.93 C
2731 16-08-2019 18:00:00 24.43333 C 52.0833 % 13.96 C
2732 16-08-2019 19:00:00 23.41667 C 58.1667 % 14.73 C
2733 16-08-2019 20:00:00 20.075 C 71.5833 % 14.78 C
2734 16-08-2019 21:00:00 17.75833 C 80.3333 % 14.33 C
2735 16-08-2019 22:00:00 16.88333 C 84.8333 % 14.32 C
2736 16-08-2019 23:00:00 16.23333 C 86.5833 % 13.99 C
2737 17-08-2019 00:00:00 15.69167 C 87.8333 % 13.68 C
2738 17-08-2019 01:00:00 15.86667 C 88.2500 % 13.93 C
2739 17-08-2019 02:00:00 15.76667 C 88.6667 % 13.9 C
2740 17-08-2019 03:00:00 15.76667 C 91.0833 % 14.32 C
2741 17-08-2019 04:00:00 15.69167 C 93.2500 % 14.6 C
2742 17-08-2019 05:00:00 15.63333 C 94.0000 % 14.67 C
2743 17-08-2019 06:00:00 15.65833 C 94.0000 % 14.7 C
2744 17-08-2019 07:00:00 16.13333 C 94.0000 % 15.17 C
2745 17-08-2019 08:00:00 16.95833 C 90.7500 % 15.44 C
2746 17-08-2019 09:00:00 18.66667 C 80.1667 % 15.18 C
2747 17-08-2019 10:00:00 19.01667 C 81.0833 % 15.7 C
2748 17-08-2019 11:00:00 18.59167 C 86.8333 % 16.36 C
2749 17-08-2019 12:00:00 19.275 C 85.1667 % 16.72 C
2750 17-08-2019 13:00:00 20.68333 C 76.3333 % 16.37 C
Sensor: Nr:Datum:Temp:Feuchte:Taupunkt:
Aussen-T/F 2751 17-08-2019 14:00:00 21 C 74.9167 % 16.38 C
2752 17-08-2019 15:00:00 21.31667 C 74.8333 % 16.67 C
2753 17-08-2019 16:00:00 21 C 75.9167 % 16.59 C
2754 17-08-2019 17:00:00 20.44167 C 77.9167 % 16.46 C
2755 17-08-2019 18:00:00 19.975 C 83.0833 % 17.02 C
2756 17-08-2019 19:00:00 19.125 C 88.2500 % 17.13 C
2757 17-08-2019 20:00:00 18.325 C 91.0833 % 16.84 C
2758 17-08-2019 21:00:00 17.84167 C 92.6667 % 16.64 C
2759 17-08-2019 22:00:00 17.74167 C 94.0000 % 16.76 C
2760 17-08-2019 23:00:00 17.525 C 94.6667 % 16.66 C
2761 18-08-2019 00:00:00 17.4 C 95.0000 % 16.59 C
2762 18-08-2019 01:00:00 17.38333 C 95.5833 % 16.67 C
2763 18-08-2019 02:00:00 17.225 C 96.0000 % 16.58 C
2764 18-08-2019 03:00:00 17.2 C 96.0000 % 16.56 C
2765 18-08-2019 04:00:00 17.18333 C 96.0000 % 16.54 C
2766 18-08-2019 05:00:00 17.3 C 96.7500 % 16.78 C
2767 18-08-2019 06:00:00 17.26667 C 97.0000 % 16.79 C
2768 18-08-2019 07:00:00 17.34167 C 97.0000 % 16.86 C
2769 18-08-2019 08:00:00 17.93333 C 97.0000 % 17.45 C
2770 18-08-2019 09:00:00 18.85833 C 97.2500 % 18.41 C
2771 18-08-2019 10:00:00 19.93333 C 97.4167 % 19.51 C
2772 18-08-2019 11:00:00 22.19167 C 92.0833 % 20.84 C
2773 18-08-2019 12:00:00 24.075 C 77.7500 % 19.95 C
2774 18-08-2019 13:00:00 24.4 C 75.8333 % 19.86 C
2775 18-08-2019 14:00:00 24.725 C 74.8333 % 19.96 C
Sensor: Nr:Datum:Temp:Feuchte:Taupunkt:
Aussen-T/F 2776 18-08-2019 15:00:00 24.7 C 75.8333 % 20.15 C
2777 18-08-2019 16:00:00 24.99167 C 72.7500 % 19.76 C
2778 18-08-2019 17:00:00 24.35 C 72.7500 % 19.14 C
2779 18-08-2019 18:00:00 20.49167 C 91.6667 % 19.09 C
2780 18-08-2019 19:00:00 20.00833 C 93.8333 % 18.98 C
2781 18-08-2019 20:00:00 19.45833 C 94.6667 % 18.58 C
2782 18-08-2019 21:00:00 18.8 C 94.3333 % 17.87 C
2783 18-08-2019 22:00:00 17.65 C 94.5000 % 16.76 C
2784 18-08-2019 23:00:00 16.59167 C 95.0000 % 15.79 C
2785 19-08-2019 00:00:00 16.14167 C 96.0000 % 15.5 C
2786 19-08-2019 01:00:00 16.10833 C 96.0000 % 15.47 C
2787 19-08-2019 02:00:00 15.81667 C 96.0000 % 15.18 C
2788 19-08-2019 03:00:00 15.38333 C 96.0833 % 14.76 C
2789 19-08-2019 04:00:00 14.78333 C 96.1667 % 14.18 C
2790 19-08-2019 05:00:00 15.125 C 97.0000 % 14.65 C
2791 19-08-2019 06:00:00 14.61667 C 96.8333 % 14.12 C
2792 19-08-2019 07:00:00 15.025 C 97.1667 % 14.58 C
2793 19-08-2019 08:00:00 15.65833 C 97.0000 % 15.18 C
2794 19-08-2019 09:00:00 15.89167 C 96.5833 % 15.35 C
2795 19-08-2019 10:00:00 16.63333 C 87.6667 % 14.58 C
2796 19-08-2019 11:00:00 18.55833 C 74.7500 % 13.99 C
2797 19-08-2019 12:00:00 20.275 C 64.5000 % 13.37 C
2798 19-08-2019 13:00:00 21.525 C 58.3333 % 13 C
2799 19-08-2019 14:00:00 22.79167 C 53.8333 % 12.96 C
2800 19-08-2019 15:00:00 23.46667 C 50.6667 % 12.65 C
Sensor: Nr:Datum:Temp:Feuchte:Taupunkt:
Aussen-T/F 2801 19-08-2019 16:00:00 23.78333 C 50.6667 % 12.94 C
2802 19-08-2019 17:00:00 24.025 C 48.4167 % 12.47 C
2803 19-08-2019 18:00:00 23.51667 C 50.5000 % 12.65 C
2804 19-08-2019 19:00:00 22.95833 C 56.3333 % 13.81 C
2805 19-08-2019 20:00:00 19.71667 C 69.6667 % 14.02 C
2806 19-08-2019 21:00:00 17.30833 C 74.8333 % 12.8 C
2807 19-08-2019 22:00:00 16.51667 C 80.3333 % 13.12 C
2808 19-08-2019 23:00:00 15.21667 C 83.5833 % 12.46 C
2809 20-08-2019 00:00:00 13.975 C 86.5833 % 11.77 C
2810 20-08-2019 01:00:00 13.21667 C 88.4167 % 11.35 C
2811 20-08-2019 02:00:00 12.825 C 89.9167 % 11.21 C
2812 20-08-2019 03:00:00 12.21667 C 90.6667 % 10.74 C
2813 20-08-2019 04:00:00 11.34167 C 92.5000 % 10.17 C
2814 20-08-2019 05:00:00 10.9 C 93.6667 % 9.92 C
2815 20-08-2019 06:00:00 10.425 C 94.5000 % 9.58 C
2816 20-08-2019 07:00:00 10.78333 C 95.3333 % 10.07 C
2817 20-08-2019 08:00:00 11.425 C 95.5833 % 10.74 C
2818 20-08-2019 09:00:00 12.61667 C 95.0833 % 11.85 C
2819 20-08-2019 10:00:00 15.26667 C 86.0000 % 12.94 C
2820 20-08-2019 11:00:00 17.375 C 73.5833 % 12.61 C
2821 20-08-2019 12:00:00 18.625 C 66.8333 % 12.34 C
2822 20-08-2019 13:00:00 19.525 C 62.1667 % 12.1 C
2823 20-08-2019 14:00:00 20.43333 C 57.3333 % 11.72 C
2824 20-08-2019 15:00:00 21.10833 C 56.2500 % 12.06 C
2825 20-08-2019 16:00:00 21.41667 C 58.8333 % 13.03 C
Sensor: Nr:Datum:Temp:Feuchte:Taupunkt:
Aussen-T/F 2826 20-08-2019 17:00:00 20.68333 C 64.4167 % 13.73 C
2827 20-08-2019 18:00:00 20.375 C 73.9167 % 15.57 C
2828 20-08-2019 19:00:00 18.88333 C 74.8333 % 14.32 C
2829 20-08-2019 20:00:00 17.58333 C 75.7500 % 13.26 C
2830 20-08-2019 21:00:00 16.76667 C 79.9167 % 13.28 C
2831 20-08-2019 22:00:00 15.925 C 83.7500 % 13.18 C
2832 20-08-2019 23:00:00 15.175 C 85.0000 % 12.67 C
2833 21-08-2019 00:00:00 14.11667 C 87.1667 % 12.02 C
2834 21-08-2019 01:00:00 13.55833 C 88.7500 % 11.74 C
2835 21-08-2019 02:00:00 12.65833 C 90.7500 % 11.19 C
2836 21-08-2019 03:00:00 11.99167 C 92.5000 % 10.81 C
2837 21-08-2019 04:00:00 11.30833 C 93.5000 % 10.3 C
2838 21-08-2019 05:00:00 10.73333 C 94.0000 % 9.81 C
2839 21-08-2019 06:00:00 10.325 C 94.9167 % 9.55 C
2840 21-08-2019 07:00:00 10.35833 C 95.3333 % 9.65 C
2841 21-08-2019 08:00:00 10.85833 C 96.0000 % 10.25 C
2842 21-08-2019 09:00:00 11.86667 C 96.0833 % 11.26 C
2843 21-08-2019 10:00:00 13.33333 C 96.2500 % 12.75 C
2844 21-08-2019 11:00:00 15.80833 C 90.0833 % 14.19 C
2845 21-08-2019 12:00:00 18.54167 C 73.0000 % 13.61 C
2846 21-08-2019 13:00:00 20.375 C 58.0000 % 11.84 C
2847 21-08-2019 14:00:00 21.79167 C 52.3333 % 11.6 C
2848 21-08-2019 15:00:00 22.95833 C 50.2500 % 12.06 C
2849 21-08-2019 16:00:00 24.475 C 42.0000 % 10.73 C
2850 21-08-2019 17:00:00 24.65 C 41.6667 % 10.77 C
Sensor: Nr:Datum:Temp:Feuchte:Taupunkt:
Aussen-T/F 2851 21-08-2019 18:00:00 24.64167 C 44.3333 % 11.7 C
2852 21-08-2019 19:00:00 23.46667 C 55.0000 % 13.91 C
2853 21-08-2019 20:00:00 19.875 C 64.6667 % 13.03 C
2854 21-08-2019 21:00:00 17.49167 C 66.9167 % 11.28 C
2855 21-08-2019 22:00:00 16.29167 C 69.1667 % 10.64 C
2856 21-08-2019 23:00:00 15.05833 C 77.6667 % 11.19 C
2857 22-08-2019 00:00:00 13.475 C 83.5000 % 10.74 C
2858 22-08-2019 01:00:00 12.41667 C 86.0000 % 10.14 C
2859 22-08-2019 02:00:00 11.66667 C 88.5833 % 9.85 C
2860 22-08-2019 03:00:00 11.125 C 90.4167 % 9.62 C
2861 22-08-2019 04:00:00 10.55833 C 91.6667 % 9.26 C
2862 22-08-2019 05:00:00 9.99167 C 92.6667 % 8.86 C
2863 22-08-2019 06:00:00 9.71667 C 93.7500 % 8.76 C
2864 22-08-2019 07:00:00 9.7 C 94.6667 % 8.89 C
2865 22-08-2019 08:00:00 10.30833 C 95.3333 % 9.6 C
2866 22-08-2019 09:00:00 11.525 C 96.0000 % 10.91 C
2867 22-08-2019 10:00:00 13.51667 C 94.5833 % 12.66 C
2868 22-08-2019 11:00:00 16.925 C 82.4167 % 13.91 C
2869 22-08-2019 12:00:00 20.11667 C 65.8333 % 13.53 C
2870 22-08-2019 13:00:00 22.71667 C 53.8333 % 12.89 C
2871 22-08-2019 14:00:00 24.08333 C 48.0000 % 12.39 C
2872 22-08-2019 15:00:00 25.89167 C 40.9167 % 11.61 C
2873 22-08-2019 16:00:00 27.33333 C 37.2500 % 11.47 C
2874 22-08-2019 17:00:00 28.01667 C 34.5833 % 10.95 C
2875 22-08-2019 18:00:00 28.38333 C 34.8333 % 11.38 C
Sensor: Nr:Datum:Temp:Feuchte:Taupunkt:
Aussen-T/F 2876 22-08-2019 19:00:00 26.06667 C 49.0000 % 14.52 C
2877 22-08-2019 20:00:00 21.49167 C 58.5833 % 13.04 C
2878 22-08-2019 21:00:00 18.25 C 68.9167 % 12.45 C
2879 22-08-2019 22:00:00 16.40833 C 75.9167 % 12.15 C
2880 22-08-2019 23:00:00 14.90833 C 79.3333 % 11.37 C
2881 23-08-2019 00:00:00 13.94167 C 82.9167 % 11.09 C
2882 23-08-2019 01:00:00 13.26667 C 85.0833 % 10.82 C
2883 23-08-2019 02:00:00 12.775 C 86.9167 % 10.65 C
2884 23-08-2019 03:00:00 11.975 C 89.1667 % 10.25 C
2885 23-08-2019 04:00:00 11.56667 C 91.0833 % 10.16 C
2886 23-08-2019 05:00:00 11.06667 C 91.9167 % 9.8 C
2887 23-08-2019 06:00:00 10.66667 C 93.2500 % 9.62 C
2888 23-08-2019 07:00:00 10.7 C 94.1667 % 9.8 C
2889 23-08-2019 08:00:00 11.3 C 94.9167 % 10.52 C
2890 23-08-2019 09:00:00 12.35 C 95.0000 % 11.57 C
2891 23-08-2019 10:00:00 14.34167 C 94.0833 % 13.4 C
2892 23-08-2019 11:00:00 17.6 C 85.0000 % 15.05 C
2893 23-08-2019 12:00:00 21.16667 C 69.0000 % 15.26 C
2894 23-08-2019 13:00:00 24.1 C 50.8333 % 13.28 C
2895 23-08-2019 14:00:00 26.13333 C 42.2500 % 12.31 C
2896 23-08-2019 15:00:00 27.85833 C 38.2500 % 12.34 C
2897 23-08-2019 16:00:00 29.15 C 34.9167 % 12.09 C
2898 23-08-2019 17:00:00 29.375 C 34.0000 % 11.88 C
2899 23-08-2019 18:00:00 28.94167 C 33.0833 % 11.09 C
2900 23-08-2019 19:00:00 27.20833 C 46.3333 % 14.7 C
Sensor: Nr:Datum:Temp:Feuchte:Taupunkt:
Aussen-T/F 2901 23-08-2019 20:00:00 23.01667 C 55.5000 % 13.63 C
2902 23-08-2019 21:00:00 20.16667 C 65.0000 % 13.38 C
2903 23-08-2019 22:00:00 17.85 C 72.8333 % 12.91 C
2904 23-08-2019 23:00:00 16.23333 C 76.7500 % 12.15 C
2905 24-08-2019 00:00:00 14.96667 C 80.7500 % 11.69 C
2906 24-08-2019 01:00:00 14.05833 C 84.5000 % 11.49 C
2907 24-08-2019 02:00:00 13.425 C 86.5000 % 11.22 C
2908 24-08-2019 03:00:00 12.7 C 88.7500 % 10.89 C
2909 24-08-2019 04:00:00 12.06667 C 90.3333 % 10.53 C
2910 24-08-2019 05:00:00 11.66667 C 91.7500 % 10.37 C
2911 24-08-2019 06:00:00 11.425 C 92.8333 % 10.31 C
2912 24-08-2019 07:00:00 11.575 C 94.0000 % 10.64 C
2913 24-08-2019 08:00:00 12.06667 C 94.1667 % 11.16 C
2914 24-08-2019 09:00:00 13.23333 C 94.0000 % 12.29 C
2915 24-08-2019 10:00:00 15.5 C 91.5000 % 14.12 C
2916 24-08-2019 11:00:00 18.88333 C 79.6667 % 15.29 C
2917 24-08-2019 12:00:00 22.24167 C 66.0833 % 15.61 C
2918 24-08-2019 13:00:00 25.4 C 52.1667 % 14.88 C
2919 24-08-2019 14:00:00 27.05 C 43.6667 % 13.64 C
2920 24-08-2019 15:00:00 28.69167 C 37.6667 % 12.84 C
2921 24-08-2019 16:00:00 29.81667 C 34.4167 % 12.45 C
2922 24-08-2019 17:00:00 30.29167 C 32.7500 % 12.11 C
2923 24-08-2019 18:00:00 30.66667 C 34.8333 % 13.38 C
2924 24-08-2019 19:00:00 28.56667 C 48.9167 % 16.78 C
2925 24-08-2019 20:00:00 24.29167 C 59.2500 % 15.83 C
Sensor: Nr:Datum:Temp:Feuchte:Taupunkt:
Aussen-T/F 2926 24-08-2019 21:00:00 22.01667 C 66.2500 % 15.43 C
2927 24-08-2019 22:00:00 19.78333 C 74.0833 % 15.03 C
2928 24-08-2019 23:00:00 18.175 C 78.3333 % 14.34 C
2929 25-08-2019 00:00:00 17.35833 C 81.7500 % 14.21 C
2930 25-08-2019 01:00:00 16.96667 C 82.7500 % 14.01 C
2931 25-08-2019 02:00:00 16.15833 C 85.2500 % 13.68 C
2932 25-08-2019 03:00:00 15.53333 C 88.0000 % 13.55 C
2933 25-08-2019 04:00:00 15.19167 C 88.4167 % 13.29 C
2934 25-08-2019 05:00:00 14.65833 C 89.8333 % 13.01 C
2935 25-08-2019 06:00:00 14.41667 C 90.8333 % 12.94 C
2936 25-08-2019 07:00:00 14.80833 C 91.4167 % 13.42 C
2937 25-08-2019 08:00:00 15.84167 C 90.5000 % 14.29 C
2938 25-08-2019 09:00:00 17.2 C 88.3333 % 15.25 C
2939 25-08-2019 10:00:00 18.78333 C 84.6667 % 16.15 C
2940 25-08-2019 11:00:00 21.64167 C 77.4167 % 17.52 C
2941 25-08-2019 12:00:00 24.54167 C 70.0000 % 18.71 C
2942 25-08-2019 13:00:00 26.76667 C 62.9167 % 19.11 C
2943 25-08-2019 14:00:00 28.375 C 57.0000 % 19.03 C
2944 25-08-2019 15:00:00 30.28333 C 51.4167 % 19.14 C
2945 25-08-2019 16:00:00 31.18333 C 49.6667 % 19.41 C
2946 25-08-2019 17:00:00 32.3 C 47.0000 % 19.54 C
2947 25-08-2019 18:00:00 30.05 C 52.9167 % 19.39 C
2948 25-08-2019 19:00:00 27.125 C 63.3333 % 19.55 C
2949 25-08-2019 20:00:00 24.31667 C 71.4167 % 18.81 C
2950 25-08-2019 21:00:00 22.98333 C 77.1667 % 18.77 C
Sensor: Nr:Datum:Temp:Feuchte:Taupunkt:
Aussen-T/F 2951 25-08-2019 22:00:00 21.19167 C 82.4167 % 18.08 C
2952 25-08-2019 23:00:00 20.10833 C 85.4167 % 17.58 C
2953 26-08-2019 00:00:00 19.475 C 88.0833 % 17.45 C
2954 26-08-2019 01:00:00 19.14167 C 89.1667 % 17.31 C
2955 26-08-2019 02:00:00 18.53333 C 90.7500 % 16.99 C
2956 26-08-2019 03:00:00 18.025 C 91.6667 % 16.65 C
2957 26-08-2019 04:00:00 17.41667 C 93.0000 % 16.27 C
2958 26-08-2019 05:00:00 17.14167 C 94.1667 % 16.2 C
2959 26-08-2019 06:00:00 16.76667 C 94.3333 % 15.85 C
2960 26-08-2019 07:00:00 16.71667 C 95.2500 % 15.95 C
2961 26-08-2019 08:00:00 17.475 C 96.0000 % 16.83 C
2962 26-08-2019 09:00:00 18.55 C 95.8333 % 17.87 C
2963 26-08-2019 10:00:00 20.15833 C 92.4167 % 18.89 C
2964 26-08-2019 11:00:00 22.95 C 83.6667 % 20.04 C
2965 26-08-2019 12:00:00 25.70833 C 72.8333 % 20.46 C
2966 26-08-2019 13:00:00 28.3 C 60.3333 % 19.88 C
2967 26-08-2019 14:00:00 30.01667 C 52.6667 % 19.29 C
2968 26-08-2019 15:00:00 30.85833 C 50.5000 % 19.38 C
2969 26-08-2019 16:00:00 28.55 C 59.1667 % 19.8 C
2970 26-08-2019 17:00:00 27.475 C 67.2500 % 20.86 C
2971 26-08-2019 18:00:00 27.10833 C 70.0833 % 21.18 C
2972 26-08-2019 19:00:00 28.06667 C 66.0000 % 21.11 C
2973 26-08-2019 20:00:00 24.69167 C 73.5833 % 19.65 C
2974 26-08-2019 21:00:00 22.45 C 80.5000 % 18.93 C
2975 26-08-2019 22:00:00 21.09167 C 84.7500 % 18.42 C
Sensor: Nr:Datum:Temp:Feuchte:Taupunkt:
Aussen-T/F 2976 26-08-2019 23:00:00 20.175 C 87.8333 % 18.09 C
2977 27-08-2019 00:00:00 19.40833 C 89.9167 % 17.71 C
2978 27-08-2019 01:00:00 19.01667 C 92.0000 % 17.69 C
2979 27-08-2019 02:00:00 18.39167 C 92.8333 % 17.21 C
2980 27-08-2019 03:00:00 17.91667 C 94.0833 % 16.95 C
2981 27-08-2019 04:00:00 17.55833 C 94.2500 % 16.62 C
2982 27-08-2019 05:00:00 17.15833 C 95.0000 % 16.35 C
2983 27-08-2019 06:00:00 16.79167 C 95.3333 % 16.04 C
2984 27-08-2019 07:00:00 16.85 C 96.0000 % 16.21 C
2985 27-08-2019 08:00:00 17.325 C 96.5000 % 16.76 C
2986 27-08-2019 09:00:00 18.4 C 97.0000 % 17.91 C
2987 27-08-2019 10:00:00 19.78333 C 96.0833 % 19.14 C
2988 27-08-2019 11:00:00 22.275 C 90.2500 % 20.6 C
2989 27-08-2019 12:00:00 25.41667 C 76.2500 % 20.93 C
2990 27-08-2019 13:00:00 28.99167 C 57.0000 % 19.61 C
2991 27-08-2019 14:00:00 30.54167 C 49.2500 % 18.69 C
2992 27-08-2019 15:00:00 31.89167 C 43.0833 % 17.78 C
2993 27-08-2019 16:00:00 33.23333 C 41.6667 % 18.45 C
2994 27-08-2019 17:00:00 32.29167 C 47.5000 % 19.71 C
2995 27-08-2019 18:00:00 29.55833 C 57.0833 % 20.16 C
2996 27-08-2019 19:00:00 27.7 C 63.8333 % 20.22 C
2997 27-08-2019 20:00:00 23.50833 C 81.8333 % 20.22 C
2998 27-08-2019 21:00:00 22.09167 C 84.5833 % 19.37 C
2999 27-08-2019 22:00:00 21.14167 C 86.4167 % 18.78 C
3000 27-08-2019 23:00:00 20.43333 C 88.1667 % 18.41 C
Sensor: Nr:Datum:Temp:Feuchte:Taupunkt:
Aussen-T/F 3001 28-08-2019 00:00:00 19.9 C 90.0833 % 18.23 C
3002 28-08-2019 01:00:00 19.61667 C 91.7500 % 18.24 C
3003 28-08-2019 02:00:00 19.24167 C 92.6667 % 18.02 C
3004 28-08-2019 03:00:00 18.71667 C 93.5000 % 17.65 C
3005 28-08-2019 04:00:00 18.33333 C 93.9167 % 17.34 C
3006 28-08-2019 05:00:00 17.96667 C 94.4167 % 17.06 C
3007 28-08-2019 06:00:00 18.01667 C 95.0833 % 17.22 C
3008 28-08-2019 07:00:00 17.85833 C 95.2500 % 17.09 C
3009 28-08-2019 08:00:00 18.64167 C 95.7500 % 17.95 C
3010 28-08-2019 09:00:00 19.75833 C 93.2500 % 18.64 C
3011 28-08-2019 10:00:00 22.45 C 77.7500 % 18.37 C
3012 28-08-2019 11:00:00 23.975 C 71.6667 % 18.54 C
3013 28-08-2019 12:00:00 24.49167 C 70.8333 % 18.85 C
3014 28-08-2019 13:00:00 26.54167 C 58.8333 % 17.83 C
3015 28-08-2019 14:00:00 29.44167 C 50.3333 % 18.03 C
3016 28-08-2019 15:00:00 30.35833 C 44.2500 % 16.83 C
3017 28-08-2019 16:00:00 31.55833 C 41.3333 % 16.83 C
3018 28-08-2019 17:00:00 31.80833 C 42.0000 % 17.3 C
3019 28-08-2019 18:00:00 31.18333 C 45.7500 % 18.1 C
3020 28-08-2019 19:00:00 27.875 C 52.1667 % 17.16 C
3021 28-08-2019 20:00:00 25.59167 C 56.5833 % 16.33 C
3022 28-08-2019 21:00:00 24.2 C 62.5000 % 16.59 C
3023 28-08-2019 22:00:00 22.43333 C 70.0833 % 16.71 C
3024 28-08-2019 23:00:00 21.38333 C 74.3333 % 16.63 C
3025 29-08-2019 00:00:00 20.775 C 76.8333 % 16.56 C
Sensor: Nr:Datum:Temp:Feuchte:Taupunkt:
Aussen-T/F 3026 29-08-2019 01:00:00 20.10833 C 79.0833 % 16.37 C
3027 29-08-2019 02:00:00 19.2 C 82.1667 % 16.08 C
3028 29-08-2019 03:00:00 18.225 C 84.8333 % 15.63 C
3029 29-08-2019 04:00:00 17.53333 C 88.0000 % 15.52 C
3030 29-08-2019 05:00:00 17.78333 C 89.9167 % 16.11 C
3031 29-08-2019 06:00:00 18.34167 C 89.8333 % 16.64 C
3032 29-08-2019 07:00:00 19.04167 C 89.2500 % 17.23 C
3033 29-08-2019 08:00:00 19.89167 C 87.0833 % 17.68 C
3034 29-08-2019 09:00:00 20.7 C 84.8333 % 18.06 C
3035 29-08-2019 10:00:00 21.175 C 86.5000 % 18.83 C
3036 29-08-2019 11:00:00 22.13333 C 82.5000 % 19.01 C
3037 29-08-2019 12:00:00 23.29167 C 77.6667 % 19.17 C
3038 29-08-2019 13:00:00 25.45 C 68.7500 % 19.29 C
3039 29-08-2019 14:00:00 26.78333 C 64.8333 % 19.61 C
3040 29-08-2019 15:00:00 27.53333 C 62.5833 % 19.75 C
3041 29-08-2019 16:00:00 27.875 C 59.9167 % 19.37 C
3042 29-08-2019 17:00:00 27.28333 C 60.2500 % 18.9 C
3043 29-08-2019 18:00:00 26.44167 C 60.8333 % 18.27 C
3044 29-08-2019 19:00:00 24.73333 C 64.6667 % 17.63 C
3045 29-08-2019 20:00:00 22.80833 C 70.6667 % 17.2 C
3046 29-08-2019 21:00:00 20.89167 C 76.7500 % 16.66 C
3047 29-08-2019 22:00:00 20.525 C 78.8333 % 16.72 C
3048 29-08-2019 23:00:00 20.48333 C 79.5833 % 16.83 C
3049 30-08-2019 00:00:00 20.30833 C 79.0000 % 16.55 C
3050 30-08-2019 01:00:00 19.18333 C 82.9167 % 16.21 C
Sensor: Nr:Datum:Temp:Feuchte:Taupunkt:
Aussen-T/F 3051 30-08-2019 02:00:00 18.2 C 86.0833 % 15.83 C
3052 30-08-2019 03:00:00 17.48333 C 88.4167 % 15.55 C
3053 30-08-2019 04:00:00 16.65833 C 90.0833 % 15.03 C
3054 30-08-2019 05:00:00 15.975 C 92.7500 % 14.8 C
3055 30-08-2019 06:00:00 15.91667 C 93.2500 % 14.83 C
3056 30-08-2019 07:00:00 15.41667 C 93.6667 % 14.4 C
3057 30-08-2019 08:00:00 16.09167 C 94.4167 % 15.19 C
3058 30-08-2019 09:00:00 17.96667 C 88.6667 % 16.07 C
3059 30-08-2019 10:00:00 19.41667 C 81.7500 % 16.22 C
3060 30-08-2019 11:00:00 20.825 C 76.0000 % 16.44 C
3061 30-08-2019 12:00:00 22.16667 C 72.6667 % 17.03 C
3062 30-08-2019 13:00:00 23.59167 C 68.2500 % 17.4 C
3063 30-08-2019 14:00:00 25 C 60.8333 % 16.91 C
3064 30-08-2019 15:00:00 26.16667 C 51.2500 % 15.31 C
3065 30-08-2019 16:00:00 27.98333 C 45.6667 % 15.17 C
3066 30-08-2019 17:00:00 29.66667 C 37.8333 % 13.77 C
3067 30-08-2019 18:00:00 29.54167 C 37.5833 % 13.56 C
3068 30-08-2019 19:00:00 27.175 C 47.0833 % 14.91 C
3069 30-08-2019 20:00:00 23 C 55.5833 % 13.64 C
3070 30-08-2019 21:00:00 20.38333 C 65.0833 % 13.61 C
3071 30-08-2019 22:00:00 18.64167 C 72.5833 % 13.62 C
3072 30-08-2019 23:00:00 17.38333 C 77.2500 % 13.36 C
3073 31-08-2019 00:00:00 16.65 C 81.0000 % 13.38 C
3074 31-08-2019 01:00:00 15.825 C 84.1667 % 13.16 C
3075 31-08-2019 02:00:00 15.21667 C 86.2500 % 12.94 C
Sensor: Nr:Datum:Temp:Feuchte:Taupunkt:
Aussen-T/F 3076 31-08-2019 03:00:00 14.75 C 88.5000 % 12.87 C
3077 31-08-2019 04:00:00 14.31667 C 90.1667 % 12.73 C
3078 31-08-2019 05:00:00 14.15 C 91.5833 % 12.8 C
3079 31-08-2019 06:00:00 14.1 C 92.0000 % 12.82 C
3080 31-08-2019 07:00:00 14.10833 C 92.6667 % 12.94 C
3081 31-08-2019 08:00:00 14.76667 C 92.6667 % 13.59 C
3082 31-08-2019 09:00:00 15.89167 C 92.2500 % 14.64 C
3083 31-08-2019 10:00:00 17.8 C 89.0000 % 15.96 C
3084 31-08-2019 11:00:00 20.6 C 81.2500 % 17.27 C
3085 31-08-2019 12:00:00 23.625 C 73.0833 % 18.52 C
3086 31-08-2019 13:00:00 28.49167 C 54.5833 % 18.45 C
3087 31-08-2019 14:00:00 30.36667 C 47.3333 % 17.9 C
3088 31-08-2019 15:00:00 31.43333 C 43.3333 % 17.46 C
3089 31-08-2019 16:00:00 32.48333 C 42.3333 % 18.03 C
3090 31-08-2019 17:00:00 33.89167 C 39.8333 % 18.32 C
3091 31-08-2019 18:00:00 33.71667 C 40.0000 % 18.23 C
3092 31-08-2019 19:00:00 31.13333 C 48.8333 % 19.1 C
3093 31-08-2019 20:00:00 25.89167 C 60.0000 % 17.53 C
3094 31-08-2019 21:00:00 24.875 C 62.0000 % 17.09 C
3095 31-08-2019 22:00:00 24.58333 C 70.5000 % 18.86 C
3096 31-08-2019 23:00:00 20.69167 C 87.5833 % 18.56 C
3097 01-09-2019 00:00:00 19.66667 C 91.2500 % 18.2 C
3098 01-09-2019 01:00:00 19.34167 C 90.9167 % 17.82 C
3099 01-09-2019 02:00:00 19.10833 C 85.9167 % 16.7 C
3100 01-09-2019 03:00:00 18.325 C 84.0833 % 15.59 C
Sensor: Nr:Datum:Temp:Feuchte:Taupunkt:
Aussen-T/F 3101 01-09-2019 04:00:00 17.88333 C 80.1667 % 14.42 C
3102 01-09-2019 05:00:00 17.84167 C 79.0833 % 14.17 C
3103 01-09-2019 06:00:00 17.30833 C 79.5833 % 13.75 C
3104 01-09-2019 07:00:00 16.1 C 85.6667 % 13.7 C
3105 01-09-2019 08:00:00 17.48333 C 82.5833 % 14.49 C
3106 01-09-2019 09:00:00 18.13333 C 80.5000 % 14.73 C
3107 01-09-2019 10:00:00 19.10833 C 76.5000 % 14.88 C
3108 01-09-2019 11:00:00 20.025 C 74.2500 % 15.3 C
3109 01-09-2019 12:00:00 20.05 C 74.8333 % 15.45 C
3110 01-09-2019 13:00:00 19.69167 C 77.9167 % 15.73 C
3111 01-09-2019 14:00:00 20.075 C 75.6667 % 15.65 C
3112 01-09-2019 15:00:00 20.61667 C 71.6667 % 15.32 C
3113 01-09-2019 16:00:00 20.38333 C 68.0000 % 14.28 C
3114 01-09-2019 17:00:00 19.975 C 65.4167 % 13.3 C
3115 01-09-2019 18:00:00 20.75833 C 60.5833 % 12.86 C
3116 01-09-2019 19:00:00 20.60833 C 57.9167 % 12.04 C
3117 01-09-2019 20:00:00 18.38333 C 66.5000 % 12.04 C
3118 01-09-2019 21:00:00 16.68333 C 72.3333 % 11.69 C
3119 01-09-2019 22:00:00 16.39167 C 71.4167 % 11.21 C
3120 01-09-2019 23:00:00 15.59167 C 75.0000 % 11.18 C
3121 02-09-2019 00:00:00 14.44167 C 75.5000 % 10.17 C
3122 02-09-2019 01:00:00 13.29167 C 77.8333 % 9.51 C
3123 02-09-2019 02:00:00 13.3 C 80.2500 % 9.97 C
3124 02-09-2019 03:00:00 13.025 C 82.5000 % 10.12 C
3125 02-09-2019 04:00:00 12 C 83.9167 % 9.37 C
Sensor: Nr:Datum:Temp:Feuchte:Taupunkt:
Aussen-T/F 3126 02-09-2019 05:00:00 11.21667 C 85.9167 % 8.95 C
3127 02-09-2019 06:00:00 10.15 C 89.0833 % 8.43 C
3128 02-09-2019 07:00:00 9.73333 C 91.6667 % 8.44 C
3129 02-09-2019 08:00:00 10.03333 C 92.9167 % 8.94 C
3130 02-09-2019 09:00:00 10.83333 C 92.5833 % 9.68 C
3131 02-09-2019 10:00:00 12.85833 C 88.0833 % 10.94 C
3132 02-09-2019 11:00:00 16.2 C 66.4167 % 9.94 C
3133 02-09-2019 12:00:00 17.53333 C 56.5000 % 8.8 C
3134 02-09-2019 13:00:00 18.70833 C 49.6667 % 7.98 C
3135 02-09-2019 14:00:00 19.83333 C 46.2500 % 7.97 C
3136 02-09-2019 15:00:00 20.175 C 45.2500 % 7.96 C
3137 02-09-2019 16:00:00 21.80833 C 41.5833 % 8.19 C
3138 02-09-2019 17:00:00 23.09167 C 37.9167 % 7.98 C
3139 02-09-2019 18:00:00 22.99167 C 37.3333 % 7.66 C
3140 02-09-2019 19:00:00 20.575 C 46.7500 % 8.8 C
3141 02-09-2019 20:00:00 16.9 C 56.3333 % 8.16 C
3142 02-09-2019 21:00:00 15.39167 C 60.6667 % 7.84 C
3143 02-09-2019 22:00:00 13.475 C 70.1667 % 8.15 C
3144 02-09-2019 23:00:00 12.98333 C 72.7500 % 8.21 C
3145 03-09-2019 00:00:00 12.39167 C 74.8333 % 8.06 C
3146 03-09-2019 01:00:00 12.125 C 76.5000 % 8.12 C
3147 03-09-2019 02:00:00 10.89167 C 79.0833 % 7.41 C
3148 03-09-2019 03:00:00 10.175 C 81.5833 % 7.17 C
3149 03-09-2019 04:00:00 10.08333 C 83.8333 % 7.48 C
3150 03-09-2019 05:00:00 9.45 C 85.0833 % 7.07 C
Sensor: Nr:Datum:Temp:Feuchte:Taupunkt:
Aussen-T/F 3151 03-09-2019 06:00:00 8.91667 C 87.0833 % 6.89 C
3152 03-09-2019 07:00:00 8.65833 C 88.8333 % 6.92 C
3153 03-09-2019 08:00:00 9.08333 C 89.7500 % 7.49 C
3154 03-09-2019 09:00:00 10.375 C 88.9167 % 8.63 C
3155 03-09-2019 10:00:00 13.225 C 81.5833 % 10.15 C
3156 03-09-2019 11:00:00 17.34167 C 63.2500 % 10.29 C
3157 03-09-2019 12:00:00 19.95833 C 53.5000 % 10.24 C
3158 03-09-2019 13:00:00 21.25 C 49.6667 % 10.32 C
3159 03-09-2019 14:00:00 22.64167 C 45.5000 % 10.28 C
3160 03-09-2019 15:00:00 23.75 C 45.8333 % 11.39 C
3161 03-09-2019 16:00:00 23.58333 C 49.8333 % 12.51 C
3162 03-09-2019 17:00:00 23.65 C 50.9167 % 12.9 C
3163 03-09-2019 18:00:00 23.225 C 52.5833 % 13 C
3164 03-09-2019 19:00:00 21.11667 C 58.7500 % 12.73 C
3165 03-09-2019 20:00:00 18.86667 C 65.9167 % 12.36 C
3166 03-09-2019 21:00:00 16.325 C 75.0000 % 11.89 C
3167 03-09-2019 22:00:00 15.33333 C 79.2500 % 11.76 C
3168 03-09-2019 23:00:00 14.05 C 83.3333 % 11.27 C
3169 04-09-2019 00:00:00 13.05 C 87.0000 % 10.94 C
3170 04-09-2019 01:00:00 12.35 C 89.4167 % 10.66 C
3171 04-09-2019 02:00:00 11.85833 C 90.6667 % 10.38 C
3172 04-09-2019 03:00:00 11.325 C 91.9167 % 10.06 C
3173 04-09-2019 04:00:00 10.74167 C 92.5833 % 9.59 C
3174 04-09-2019 05:00:00 10.36667 C 93.5833 % 9.38 C
3175 04-09-2019 06:00:00 10.15833 C 94.2500 % 9.28 C
Sensor: Nr:Datum:Temp:Feuchte:Taupunkt:
Aussen-T/F 3176 04-09-2019 07:00:00 10.09167 C 94.7500 % 9.29 C
3177 04-09-2019 08:00:00 10.675 C 95.3333 % 9.96 C
3178 04-09-2019 09:00:00 13.11667 C 92.2500 % 11.89 C
3179 04-09-2019 10:00:00 14.875 C 85.4167 % 12.45 C
3180 04-09-2019 11:00:00 18.09167 C 72.6667 % 13.11 C
3181 04-09-2019 12:00:00 19.78333 C 65.9167 % 13.23 C
3182 04-09-2019 13:00:00 21.16667 C 62.0000 % 13.6 C
3183 04-09-2019 14:00:00 22.59167 C 57.5833 % 13.8 C
3184 04-09-2019 15:00:00 23.85 C 53.5000 % 13.84 C
3185 04-09-2019 16:00:00 25.11667 C 50.6667 % 14.17 C
3186 04-09-2019 17:00:00 26.875 C 44.8333 % 13.89 C
3187 04-09-2019 18:00:00 25.04167 C 47.0000 % 12.95 C
3188 04-09-2019 19:00:00 23.58333 C 52.2500 % 13.23 C
3189 04-09-2019 20:00:00 19.81667 C 69.4167 % 14.06 C
3190 04-09-2019 21:00:00 17.625 C 85.0000 % 15.07 C
3191 04-09-2019 22:00:00 16.28333 C 90.3333 % 14.7 C
3192 04-09-2019 23:00:00 15.64167 C 90.9167 % 14.16 C
3193 05-09-2019 00:00:00 15.6 C 91.0000 % 14.14 C
3194 05-09-2019 01:00:00 15.41667 C 89.1667 % 13.64 C
3195 05-09-2019 02:00:00 14.29167 C 86.8333 % 12.13 C
3196 05-09-2019 03:00:00 13.975 C 86.6667 % 11.79 C
3197 05-09-2019 04:00:00 14.075 C 85.0000 % 11.59 C
3198 05-09-2019 05:00:00 13.48333 C 84.1667 % 10.87 C
3199 05-09-2019 06:00:00 12.56667 C 86.0000 % 10.29 C
3200 05-09-2019 07:00:00 12.20833 C 86.9167 % 10.1 C
Sensor: Nr:Datum:Temp:Feuchte:Taupunkt:
Aussen-T/F 3201 05-09-2019 08:00:00 12.58333 C 85.4167 % 10.2 C
3202 05-09-2019 09:00:00 13.59167 C 82.2500 % 10.63 C
3203 05-09-2019 10:00:00 15.475 C 77.3333 % 11.53 C
3204 05-09-2019 11:00:00 16.775 C 70.4167 % 11.37 C
3205 05-09-2019 12:00:00 17.09167 C 67.3333 % 11 C
3206 05-09-2019 13:00:00 18.1 C 60.9167 % 10.45 C
3207 05-09-2019 14:00:00 18.09167 C 62.9167 % 10.92 C
3208 05-09-2019 15:00:00 18.5 C 57.5833 % 9.98 C
3209 05-09-2019 16:00:00 18.91667 C 55.9167 % 9.93 C
3210 05-09-2019 17:00:00 17.225 C 63.8333 % 10.32 C
3211 05-09-2019 18:00:00 16.4 C 67.6667 % 10.41 C
3212 05-09-2019 19:00:00 16.46667 C 64.3333 % 9.72 C
3213 05-09-2019 20:00:00 15.70833 C 69.0833 % 10.06 C
3214 05-09-2019 21:00:00 14.93333 C 70.2500 % 9.57 C
3215 05-09-2019 22:00:00 14.49167 C 72.5000 % 9.61 C
3216 05-09-2019 23:00:00 13.94167 C 74.0000 % 9.39 C
3217 06-09-2019 00:00:00 12.025 C 79.8333 % 8.65 C
3218 06-09-2019 01:00:00 11.23333 C 82.8333 % 8.43 C
3219 06-09-2019 02:00:00 10.40833 C 86.5000 % 8.26 C
3220 06-09-2019 03:00:00 9.875 C 88.0833 % 8 C
3221 06-09-2019 04:00:00 9.00833 C 89.4167 % 7.36 C
3222 06-09-2019 05:00:00 8.075 C 91.5000 % 6.78 C
3223 06-09-2019 06:00:00 7.56667 C 92.7500 % 6.47 C
3224 06-09-2019 07:00:00 7.31667 C 93.6667 % 6.37 C
3225 06-09-2019 08:00:00 7.85 C 94.9167 % 7.09 C
Sensor: Nr:Datum:Temp:Feuchte:Taupunkt:
Aussen-T/F 3226 06-09-2019 09:00:00 8.75 C 95.0833 % 8.01 C
3227 06-09-2019 10:00:00 10.175 C 95.0000 % 9.41 C
3228 06-09-2019 11:00:00 12.55833 C 83.1667 % 9.78 C
3229 06-09-2019 12:00:00 15.03333 C 64.4167 % 8.38 C
3230 06-09-2019 13:00:00 16.51667 C 57.9167 % 8.21 C
3231 06-09-2019 14:00:00 18.3 C 49.5833 % 7.59 C
3232 06-09-2019 15:00:00 19.475 C 44.9167 % 7.21 C
3233 06-09-2019 16:00:00 20.7 C 39.8333 % 6.57 C
3234 06-09-2019 17:00:00 22.36667 C 37.2500 % 7.08 C
3235 06-09-2019 18:00:00 22.25 C 39.3333 % 7.77 C
3236 06-09-2019 19:00:00 19.41667 C 48.3333 % 8.23 C
3237 06-09-2019 20:00:00 16.04167 C 56.4167 % 7.38 C
3238 06-09-2019 21:00:00 14.65 C 60.5833 % 7.12 C
3239 06-09-2019 22:00:00 12.74167 C 68.5000 % 7.1 C
3240 06-09-2019 23:00:00 12.69167 C 71.4167 % 7.66 C
3241 07-09-2019 00:00:00 12.25833 C 73.7500 % 7.72 C
3242 07-09-2019 01:00:00 12.41667 C 73.6667 % 7.85 C
3243 07-09-2019 02:00:00 12.19167 C 75.0000 % 7.9 C
3244 07-09-2019 03:00:00 12.375 C 74.7500 % 8.03 C
3245 07-09-2019 04:00:00 12.69167 C 74.2500 % 8.23 C
3246 07-09-2019 05:00:00 12.64167 C 74.5833 % 8.25 C
3247 07-09-2019 06:00:00 12.29167 C 76.9167 % 8.36 C
3248 07-09-2019 07:00:00 11.96667 C 84.7500 % 9.48 C
3249 07-09-2019 08:00:00 11.78333 C 90.5000 % 10.28 C
3250 07-09-2019 09:00:00 11.80833 C 92.9167 % 10.7 C
Sensor: Nr:Datum:Temp:Feuchte:Taupunkt:
Aussen-T/F 3251 07-09-2019 10:00:00 12.225 C 94.0000 % 11.29 C
3252 07-09-2019 11:00:00 12.80833 C 93.8333 % 11.84 C
3253 07-09-2019 12:00:00 13.475 C 93.5833 % 12.46 C
3254 07-09-2019 13:00:00 14.19167 C 92.6667 % 13.02 C
3255 07-09-2019 14:00:00 14.46667 C 91.6667 % 13.13 C
3256 07-09-2019 15:00:00 14.93333 C 90.2500 % 13.35 C
3257 07-09-2019 16:00:00 15.25 C 89.3333 % 13.51 C
3258 07-09-2019 17:00:00 15.30833 C 89.2500 % 13.55 C
3259 07-09-2019 18:00:00 14.29167 C 90.7500 % 12.8 C
3260 07-09-2019 19:00:00 13.34167 C 91.4167 % 11.97 C
3261 07-09-2019 20:00:00 12.64167 C 93.0000 % 11.54 C
3262 07-09-2019 21:00:00 12.00833 C 93.3333 % 10.97 C
3263 07-09-2019 22:00:00 11.8 C 94.4167 % 10.93 C
3264 07-09-2019 23:00:00 11.725 C 95.0000 % 10.95 C
3265 08-09-2019 00:00:00 11.7 C 95.0000 % 10.93 C
3266 08-09-2019 01:00:00 11.75833 C 95.6667 % 11.09 C
3267 08-09-2019 02:00:00 11.29167 C 95.5000 % 10.6 C
3268 08-09-2019 03:00:00 11.3 C 96.0000 % 10.69 C
3269 08-09-2019 04:00:00 11.7 C 96.3333 % 11.14 C
3270 08-09-2019 05:00:00 11.90833 C 96.0000 % 11.29 C
3271 08-09-2019 06:00:00 12.075 C 96.7500 % 11.57 C
3272 08-09-2019 07:00:00 12.20833 C 96.4167 % 11.66 C
3273 08-09-2019 08:00:00 12.31667 C 96.0000 % 11.7 C
3274 08-09-2019 09:00:00 12.325 C 95.4167 % 11.61 C
3275 08-09-2019 10:00:00 12.575 C 95.6667 % 11.9 C
Sensor: Nr:Datum:Temp:Feuchte:Taupunkt:
Aussen-T/F 3276 08-09-2019 11:00:00 12.625 C 96.0000 % 12 C
3277 08-09-2019 12:00:00 12.81667 C 95.8333 % 12.17 C
3278 08-09-2019 13:00:00 13.94167 C 93.5000 % 12.91 C
3279 08-09-2019 14:00:00 14.875 C 88.3333 % 12.96 C
3280 08-09-2019 15:00:00 15.73333 C 84.0833 % 13.05 C
3281 08-09-2019 16:00:00 15.65833 C 84.8333 % 13.12 C
3282 08-09-2019 17:00:00 13.49167 C 92.6667 % 12.33 C
3283 08-09-2019 18:00:00 12.8 C 94.2500 % 11.9 C
3284 08-09-2019 19:00:00 12.96667 C 95.4167 % 12.25 C
3285 08-09-2019 20:00:00 12.56667 C 95.0833 % 11.8 C
3286 08-09-2019 21:00:00 12.1 C 95.4167 % 11.39 C
3287 08-09-2019 22:00:00 11.81667 C 96.0000 % 11.2 C
3288 08-09-2019 23:00:00 11.71667 C 96.0000 % 11.1 C
3289 09-09-2019 00:00:00 11.45 C 96.0000 % 10.84 C
3290 09-09-2019 01:00:00 11.26667 C 96.0833 % 10.67 C
3291 09-09-2019 02:00:00 11.29167 C 96.8333 % 10.81 C
3292 09-09-2019 03:00:00 11.36667 C 97.0000 % 10.91 C
3293 09-09-2019 04:00:00 11.36667 C 97.0000 % 10.91 C
3294 09-09-2019 05:00:00 11.29167 C 97.0000 % 10.83 C
3295 09-09-2019 06:00:00 11.3 C 97.0000 % 10.84 C
3296 09-09-2019 07:00:00 11.275 C 97.0000 % 10.82 C
3297 09-09-2019 08:00:00 11.39167 C 97.0000 % 10.93 C
3298 09-09-2019 09:00:00 12.01667 C 97.0000 % 11.56 C
3299 09-09-2019 10:00:00 12.23333 C 97.0000 % 11.77 C
3300 09-09-2019 11:00:00 12.55833 C 96.2500 % 11.98 C
Sensor: Nr:Datum:Temp:Feuchte:Taupunkt:
Aussen-T/F 3301 09-09-2019 12:00:00 13.15 C 91.5833 % 11.81 C
3302 09-09-2019 13:00:00 14.2 C 86.5833 % 12 C
3303 09-09-2019 14:00:00 14.81667 C 79.7500 % 11.36 C
3304 09-09-2019 15:00:00 15.175 C 80.1667 % 11.78 C
3305 09-09-2019 16:00:00 15.475 C 77.3333 % 11.53 C
3306 09-09-2019 17:00:00 15.74167 C 73.7500 % 11.07 C
3307 09-09-2019 18:00:00 16.33333 C 73.7500 % 11.64 C
3308 09-09-2019 19:00:00 14.35 C 82.0000 % 11.32 C
3309 09-09-2019 20:00:00 12.00833 C 87.7500 % 10.04 C
3310 09-09-2019 21:00:00 10.79167 C 90.6667 % 9.33 C
3311 09-09-2019 22:00:00 10.05 C 92.6667 % 8.92 C
3312 09-09-2019 23:00:00 9.30833 C 93.8333 % 8.37 C
3313 10-09-2019 00:00:00 8.75833 C 94.7500 % 7.96 C
3314 10-09-2019 01:00:00 8.44167 C 95.0833 % 7.7 C
3315 10-09-2019 02:00:00 8.3 C 95.7500 % 7.66 C
3316 10-09-2019 03:00:00 8.625 C 96.0000 % 8.02 C
3317 10-09-2019 04:00:00 8.65 C 96.0000 % 8.05 C
3318 10-09-2019 05:00:00 8.55833 C 96.1667 % 7.98 C
3319 10-09-2019 06:00:00 8.2 C 96.7500 % 7.72 C
3320 10-09-2019 07:00:00 8.225 C 97.0000 % 7.78 C
3321 10-09-2019 08:00:00 8.21667 C 97.0000 % 7.77 C
3322 10-09-2019 09:00:00 8.45833 C 97.0000 % 8.01 C
3323 10-09-2019 10:00:00 9.05 C 97.0000 % 8.6 C
3324 10-09-2019 11:00:00 9.94167 C 97.0000 % 9.49 C
3325 10-09-2019 12:00:00 11.78333 C 94.3333 % 10.9 C
Sensor: Nr:Datum:Temp:Feuchte:Taupunkt:
Aussen-T/F 3326 10-09-2019 13:00:00 14.85833 C 78.0000 % 11.06 C
3327 10-09-2019 14:00:00 17.25 C 64.2500 % 10.44 C
3328 10-09-2019 15:00:00 18.43333 C 58.3333 % 10.11 C
3329 10-09-2019 16:00:00 19.65 C 52.0000 % 9.53 C
3330 10-09-2019 17:00:00 18.38333 C 67.1667 % 12.19 C
3331 10-09-2019 18:00:00 18.33333 C 70.0000 % 12.77 C
3332 10-09-2019 19:00:00 16.4 C 72.3333 % 11.41 C
3333 10-09-2019 20:00:00 13.775 C 75.0833 % 9.44 C
3334 10-09-2019 21:00:00 12.03333 C 83.0000 % 9.24 C
3335 10-09-2019 22:00:00 10.66667 C 86.9167 % 8.58 C
3336 10-09-2019 23:00:00 9.78333 C 88.7500 % 8.02 C
3337 11-09-2019 00:00:00 9.2 C 90.0833 % 7.66 C
3338 11-09-2019 01:00:00 8.61667 C 91.3333 % 7.29 C
3339 11-09-2019 02:00:00 8.04167 C 92.7500 % 6.94 C
3340 11-09-2019 03:00:00 7.64167 C 93.5000 % 6.66 C
3341 11-09-2019 04:00:00 7.26667 C 94.0000 % 6.37 C
3342 11-09-2019 05:00:00 6.90833 C 94.7500 % 6.13 C
3343 11-09-2019 06:00:00 6.65833 C 95.0000 % 5.92 C
3344 11-09-2019 07:00:00 6.55 C 95.6667 % 5.91 C
3345 11-09-2019 08:00:00 7.99167 C 96.5000 % 7.47 C
3346 11-09-2019 09:00:00 9.51667 C 94.2500 % 8.64 C
3347 11-09-2019 10:00:00 10.85 C 93.6667 % 9.87 C
3348 11-09-2019 11:00:00 13.10833 C 88.7500 % 11.3 C
3349 11-09-2019 12:00:00 17.29167 C 66.9167 % 11.09 C
3350 11-09-2019 13:00:00 19.9 C 57.9167 % 11.38 C
Sensor: Nr:Datum:Temp:Feuchte:Taupunkt:
Aussen-T/F 3351 11-09-2019 14:00:00 20.58333 C 55.2500 % 11.3 C
3352 11-09-2019 15:00:00 20.53333 C 56.5000 % 11.59 C
3353 11-09-2019 16:00:00 20.03333 C 64.5000 % 13.14 C
3354 11-09-2019 17:00:00 19.16667 C 66.0000 % 12.67 C
3355 11-09-2019 18:00:00 18.35833 C 68.1667 % 12.39 C
3356 11-09-2019 19:00:00 17.26667 C 70.8333 % 11.93 C
3357 11-09-2019 20:00:00 16.50833 C 75.7500 % 12.22 C
3358 11-09-2019 21:00:00 16.275 C 78.0833 % 12.45 C
3359 11-09-2019 22:00:00 16.41667 C 79.1667 % 12.8 C
3360 11-09-2019 23:00:00 15.7 C 83.3333 % 12.88 C
3361 12-09-2019 00:00:00 15.51667 C 82.9167 % 12.63 C
3362 12-09-2019 01:00:00 16.14167 C 80.6667 % 12.82 C
3363 12-09-2019 02:00:00 17.23333 C 73.6667 % 12.49 C
3364 12-09-2019 03:00:00 17.24167 C 74.9167 % 12.76 C
3365 12-09-2019 04:00:00 17.05 C 76.3333 % 12.86 C
3366 12-09-2019 05:00:00 16.975 C 77.8333 % 13.08 C
3367 12-09-2019 06:00:00 16.9 C 79.2500 % 13.29 C
3368 12-09-2019 07:00:00 16.24167 C 83.4167 % 13.43 C
3369 12-09-2019 08:00:00 16.83333 C 84.1667 % 14.15 C
3370 12-09-2019 09:00:00 17.40833 C 84.5000 % 14.77 C
3371 12-09-2019 10:00:00 18.21667 C 84.0833 % 15.48 C
3372 12-09-2019 11:00:00 19.21667 C 81.9167 % 16.05 C
3373 12-09-2019 12:00:00 20.25833 C 79.4167 % 16.58 C
3374 12-09-2019 13:00:00 20.9 C 78.3333 % 16.99 C
3375 12-09-2019 14:00:00 21.38333 C 78.4167 % 17.47 C
Sensor: Nr:Datum:Temp:Feuchte:Taupunkt:
Aussen-T/F 3376 12-09-2019 15:00:00 22.25833 C 75.0000 % 17.61 C
3377 12-09-2019 16:00:00 22.95 C 71.5833 % 17.54 C
3378 12-09-2019 17:00:00 24.44167 C 64.8333 % 17.39 C
3379 12-09-2019 18:00:00 24.95833 C 63.8333 % 17.63 C
3380 12-09-2019 19:00:00 22.86667 C 69.7500 % 17.05 C
3381 12-09-2019 20:00:00 19.11667 C 81.0000 % 15.78 C
3382 12-09-2019 21:00:00 18.225 C 84.7500 % 15.62 C
3383 12-09-2019 22:00:00 18.35 C 84.0000 % 15.6 C
3384 12-09-2019 23:00:00 17.06667 C 86.7500 % 14.84 C
3385 13-09-2019 00:00:00 15.98333 C 90.0833 % 14.36 C
3386 13-09-2019 01:00:00 15.55 C 91.8333 % 14.23 C
3387 13-09-2019 02:00:00 15.25 C 92.5833 % 14.06 C
3388 13-09-2019 03:00:00 15.1 C 93.5833 % 14.07 C
3389 13-09-2019 04:00:00 15.575 C 93.4167 % 14.52 C
3390 13-09-2019 05:00:00 16.19167 C 91.0833 % 14.74 C
3391 13-09-2019 06:00:00 16.25833 C 90.9167 % 14.77 C
3392 13-09-2019 07:00:00 16.64167 C 90.0000 % 14.99 C
3393 13-09-2019 08:00:00 16.85833 C 90.6667 % 15.32 C
3394 13-09-2019 09:00:00 17.49167 C 89.3333 % 15.72 C
3395 13-09-2019 10:00:00 18.51667 C 86.0833 % 16.15 C
3396 13-09-2019 11:00:00 19.6 C 82.4167 % 16.52 C
3397 13-09-2019 12:00:00 20.35 C 79.5000 % 16.69 C
3398 13-09-2019 13:00:00 20.60833 C 77.1667 % 16.47 C
3399 13-09-2019 14:00:00 21.16667 C 75.8333 % 16.73 C
3400 13-09-2019 15:00:00 20.85833 C 77.7500 % 16.83 C
Sensor: Nr:Datum:Temp:Feuchte:Taupunkt:
Aussen-T/F 3401 13-09-2019 16:00:00 19.325 C 87.2500 % 17.15 C
3402 13-09-2019 17:00:00 19.20833 C 89.3333 % 17.41 C
3403 13-09-2019 18:00:00 20 C 89.2500 % 18.18 C
3404 13-09-2019 19:00:00 19.48333 C 86.2500 % 17.13 C
3405 13-09-2019 20:00:00 17.60833 C 91.5000 % 16.21 C
3406 13-09-2019 21:00:00 16.95 C 92.8333 % 15.78 C
3407 13-09-2019 22:00:00 16.25833 C 93.0000 % 15.12 C
3408 13-09-2019 23:00:00 15.48333 C 93.7500 % 14.48 C
3409 14-09-2019 00:00:00 15.39167 C 94.5000 % 14.51 C
3410 14-09-2019 01:00:00 14.63333 C 94.5833 % 13.77 C
3411 14-09-2019 02:00:00 13.525 C 94.5000 % 12.66 C
3412 14-09-2019 03:00:00 12.70833 C 95.0000 % 11.93 C
3413 14-09-2019 04:00:00 12.00833 C 95.5000 % 11.31 C
3414 14-09-2019 05:00:00 11.31667 C 95.8333 % 10.68 C
3415 14-09-2019 06:00:00 10.78333 C 96.0000 % 10.17 C
3416 14-09-2019 07:00:00 10.4 C 96.0000 % 9.79 C
3417 14-09-2019 08:00:00 10.40833 C 96.0000 % 9.8 C
3418 14-09-2019 09:00:00 11.00833 C 97.0000 % 10.55 C
3419 14-09-2019 10:00:00 12.25833 C 97.0000 % 11.8 C
3420 14-09-2019 11:00:00 13.69167 C 95.1667 % 12.93 C
3421 14-09-2019 12:00:00 16.14167 C 84.0000 % 13.44 C
3422 14-09-2019 13:00:00 18.675 C 70.0833 % 13.11 C
3423 14-09-2019 14:00:00 20.43333 C 62.1667 % 12.95 C
3424 14-09-2019 15:00:00 21.74167 C 55.7500 % 12.52 C
3425 14-09-2019 16:00:00 22.44167 C 52.4167 % 12.23 C
Sensor: Nr:Datum:Temp:Feuchte:Taupunkt:
Aussen-T/F 3426 14-09-2019 17:00:00 24.14167 C 46.9167 % 12.1 C
3427 14-09-2019 18:00:00 23.6 C 54.6667 % 13.94 C
3428 14-09-2019 19:00:00 19.45833 C 64.9167 % 12.69 C
3429 14-09-2019 20:00:00 16.95833 C 70.0833 % 11.47 C
3430 14-09-2019 21:00:00 15.96667 C 73.5833 % 11.25 C
3431 14-09-2019 22:00:00 13.8 C 81.2500 % 10.65 C
3432 14-09-2019 23:00:00 12.48333 C 85.4167 % 10.11 C
3433 15-09-2019 00:00:00 11.65 C 87.5000 % 9.65 C
3434 15-09-2019 01:00:00 10.825 C 89.7500 % 9.21 C
3435 15-09-2019 02:00:00 10.375 C 91.7500 % 9.09 C
3436 15-09-2019 03:00:00 10.16667 C 92.5833 % 9.02 C
3437 15-09-2019 04:00:00 9.75833 C 93.0833 % 8.7 C
3438 15-09-2019 05:00:00 9.31667 C 94.0000 % 8.4 C
3439 15-09-2019 06:00:00 8.76667 C 94.0833 % 7.87 C
3440 15-09-2019 07:00:00 8.775 C 95.0000 % 8.02 C
3441 15-09-2019 08:00:00 9.29167 C 95.9167 % 8.67 C
3442 15-09-2019 09:00:00 10.03333 C 96.0000 % 9.43 C
3443 15-09-2019 10:00:00 11.35833 C 96.0000 % 10.74 C
3444 15-09-2019 11:00:00 13.71667 C 94.7500 % 12.89 C
3445 15-09-2019 12:00:00 16.96667 C 85.3333 % 14.49 C
3446 15-09-2019 13:00:00 20.45833 C 69.8333 % 14.77 C
3447 15-09-2019 14:00:00 22.79167 C 61.0833 % 14.9 C
3448 15-09-2019 15:00:00 24.05 C 56.5833 % 14.89 C
3449 15-09-2019 16:00:00 24.65833 C 52.8333 % 14.39 C
3450 15-09-2019 17:00:00 25.84167 C 47.7500 % 13.92 C
Sensor: Nr:Datum:Temp:Feuchte:Taupunkt:
Aussen-T/F 3451 15-09-2019 18:00:00 26.43333 C 46.0000 % 13.88 C
3452 15-09-2019 19:00:00 21.96667 C 57.3333 % 13.15 C
3453 15-09-2019 20:00:00 18.225 C 63.3333 % 11.15 C
3454 15-09-2019 21:00:00 16.76667 C 67.0000 % 10.61 C
3455 15-09-2019 22:00:00 14.475 C 76.3333 % 10.37 C
3456 15-09-2019 23:00:00 12.99167 C 81.2500 % 9.86 C
3457 16-09-2019 00:00:00 12.55 C 83.7500 % 9.88 C
3458 16-09-2019 01:00:00 12.25833 C 85.5000 % 9.9 C
3459 16-09-2019 02:00:00 11.41667 C 87.8333 % 9.47 C
3460 16-09-2019 03:00:00 11.11667 C 90.1667 % 9.57 C
3461 16-09-2019 04:00:00 11.45833 C 90.4167 % 9.95 C
3462 16-09-2019 05:00:00 11.51667 C 89.6667 % 9.88 C
3463 16-09-2019 06:00:00 11.23333 C 90.7500 % 9.78 C
3464 16-09-2019 07:00:00 11.31667 C 91.5833 % 10 C
3465 16-09-2019 08:00:00 12.075 C 90.0833 % 10.5 C
3466 16-09-2019 09:00:00 13.4 C 86.1667 % 11.14 C
3467 16-09-2019 10:00:00 14.99167 C 82.0833 % 11.96 C
3468 16-09-2019 11:00:00 17.41667 C 76.0833 % 13.16 C
3469 16-09-2019 12:00:00 19.64167 C 69.0833 % 13.82 C
3470 16-09-2019 13:00:00 21.18333 C 61.5833 % 13.51 C
3471 16-09-2019 14:00:00 22.05 C 57.5000 % 13.27 C
3472 16-09-2019 15:00:00 22.075 C 59.1667 % 13.74 C
3473 16-09-2019 16:00:00 22.10833 C 55.6667 % 12.83 C
3474 16-09-2019 17:00:00 21.8 C 60.8333 % 13.91 C
3475 16-09-2019 18:00:00 20.725 C 63.2500 % 13.49 C
Sensor: Nr:Datum:Temp:Feuchte:Taupunkt:
Aussen-T/F 3476 16-09-2019 19:00:00 19.71667 C 68.0833 % 13.67 C
3477 16-09-2019 20:00:00 17.64167 C 82.8333 % 14.69 C
3478 16-09-2019 21:00:00 16.74167 C 87.9167 % 14.73 C
3479 16-09-2019 22:00:00 16.43333 C 88.5833 % 14.54 C
3480 16-09-2019 23:00:00 15.4 C 91.5833 % 14.04 C
3481 17-09-2019 00:00:00 15.05833 C 91.2500 % 13.64 C
3482 17-09-2019 01:00:00 14.81667 C 90.0833 % 13.21 C
3483 17-09-2019 02:00:00 14.66667 C 89.5833 % 12.97 C
3484 17-09-2019 03:00:00 14.54167 C 89.0000 % 12.75 C
3485 17-09-2019 04:00:00 14.30833 C 89.7500 % 12.65 C
3486 17-09-2019 05:00:00 14.16667 C 90.2500 % 12.59 C
3487 17-09-2019 06:00:00 14.1 C 90.2500 % 12.53 C
3488 17-09-2019 07:00:00 14.01667 C 89.5000 % 12.32 C
3489 17-09-2019 08:00:00 14 C 87.6667 % 11.99 C
3490 17-09-2019 09:00:00 14.04167 C 83.3333 % 11.26 C
3491 17-09-2019 10:00:00 14.925 C 74.5000 % 10.44 C
3492 17-09-2019 11:00:00 15.73333 C 71.0000 % 10.49 C
3493 17-09-2019 12:00:00 16.125 C 68.0833 % 10.24 C
3494 17-09-2019 13:00:00 16.625 C 64.4167 % 9.89 C
3495 17-09-2019 14:00:00 17.44167 C 60.6667 % 9.77 C
3496 17-09-2019 15:00:00 17.66667 C 57.9167 % 9.29 C
3497 17-09-2019 16:00:00 18.05833 C 55.8333 % 9.11 C
3498 17-09-2019 17:00:00 18.125 C 55.7500 % 9.15 C
3499 17-09-2019 18:00:00 18.45 C 54.0000 % 8.98 C
3500 17-09-2019 19:00:00 17.3 C 59.6667 % 9.39 C
Sensor: Nr:Datum:Temp:Feuchte:Taupunkt:
Aussen-T/F 3501 17-09-2019 20:00:00 16.71667 C 62.8333 % 9.6 C
3502 17-09-2019 21:00:00 16.00833 C 64.0833 % 9.23 C
3503 17-09-2019 22:00:00 14.55833 C 63.0000 % 7.6 C
3504 17-09-2019 23:00:00 13.40833 C 65.7500 % 7.14 C
3505 18-09-2019 00:00:00 11.80833 C 70.5833 % 6.64 C
3506 18-09-2019 01:00:00 10.83333 C 75.4167 % 6.67 C
3507 18-09-2019 02:00:00 9.26667 C 81.5833 % 6.28 C
3508 18-09-2019 03:00:00 8.25 C 85.5833 % 5.98 C
3509 18-09-2019 04:00:00 7.425 C 88.5000 % 5.65 C
3510 18-09-2019 05:00:00 6.76667 C 90.3333 % 5.3 C
3511 18-09-2019 06:00:00 6.08333 C 91.8333 % 4.86 C
3512 18-09-2019 07:00:00 5.8 C 93.1667 % 4.78 C
3513 18-09-2019 08:00:00 6.10833 C 94.0000 % 5.22 C
3514 18-09-2019 09:00:00 7.01667 C 95.0000 % 6.27 C
3515 18-09-2019 10:00:00 8.375 C 95.0000 % 7.62 C
3516 18-09-2019 11:00:00 10.625 C 88.5000 % 8.81 C
3517 18-09-2019 12:00:00 13.6 C 71.3333 % 8.52 C
3518 18-09-2019 13:00:00 15.1 C 60.1667 % 7.44 C
3519 18-09-2019 14:00:00 16.25 C 53.7500 % 6.87 C
3520 18-09-2019 15:00:00 17.00833 C 50.2500 % 6.59 C
3521 18-09-2019 16:00:00 17.225 C 51.0000 % 7.01 C
3522 18-09-2019 17:00:00 18.14167 C 45.8333 % 6.3 C
3523 18-09-2019 18:00:00 18.08333 C 44.8333 % 5.92 C
3524 18-09-2019 19:00:00 15.75 C 54.2500 % 6.54 C
3525 18-09-2019 20:00:00 12.30833 C 67.0000 % 6.36 C
Sensor: Nr:Datum:Temp:Feuchte:Taupunkt:
Aussen-T/F 3526 18-09-2019 21:00:00 11.525 C 72.0000 % 6.66 C
3527 18-09-2019 22:00:00 10.68333 C 75.7500 % 6.58 C
3528 18-09-2019 23:00:00 9.85833 C 79.9167 % 6.56 C
3529 19-09-2019 00:00:00 9.16667 C 83.0833 % 6.45 C
3530 19-09-2019 01:00:00 8.5 C 84.6667 % 6.07 C
3531 19-09-2019 02:00:00 7.20833 C 88.7500 % 5.48 C
3532 19-09-2019 03:00:00 6.58333 C 91.0000 % 5.22 C
3533 19-09-2019 04:00:00 6.08333 C 92.1667 % 4.91 C
3534 19-09-2019 05:00:00 5.65833 C 93.0000 % 4.62 C
3535 19-09-2019 06:00:00 5.26667 C 93.6667 % 4.33 C
3536 19-09-2019 07:00:00 5.14167 C 94.0000 % 4.26 C
3537 19-09-2019 08:00:00 5.33333 C 94.9167 % 4.59 C
3538 19-09-2019 09:00:00 6.31667 C 95.5833 % 5.66 C
3539 19-09-2019 10:00:00 7.725 C 96.0000 % 7.13 C
3540 19-09-2019 11:00:00 9.70833 C 91.2500 % 8.35 C
3541 19-09-2019 12:00:00 13.33333 C 65.0833 % 6.92 C
3542 19-09-2019 13:00:00 14.46667 C 56.8333 % 6.02 C
3543 19-09-2019 14:00:00 15.7 C 50.5000 % 5.46 C
3544 19-09-2019 15:00:00 16.48333 C 47.7500 % 5.37 C
3545 19-09-2019 16:00:00 17.08333 C 45.8333 % 5.33 C
3546 19-09-2019 17:00:00 18.04167 C 42.2500 % 5.03 C
3547 19-09-2019 18:00:00 18.01667 C 43.1667 % 5.32 C
3548 19-09-2019 19:00:00 15.00833 C 54.9167 % 6.03 C
3549 19-09-2019 20:00:00 11.975 C 63.7500 % 5.33 C
3550 19-09-2019 21:00:00 10.525 C 69.8333 % 5.26 C
Sensor: Nr:Datum:Temp:Feuchte:Taupunkt:
Aussen-T/F 3551 19-09-2019 22:00:00 9.59167 C 74.0000 % 5.19 C
3552 19-09-2019 23:00:00 8.45 C 78.1667 % 4.87 C
3553 20-09-2019 00:00:00 7.625 C 80.0833 % 4.42 C
3554 20-09-2019 01:00:00 7.05 C 82.5833 % 4.29 C
3555 20-09-2019 02:00:00 6.21667 C 85.1667 % 3.92 C
3556 20-09-2019 03:00:00 5.75 C 86.6667 % 3.7 C
3557 20-09-2019 04:00:00 5.15 C 88.7500 % 3.45 C
3558 20-09-2019 05:00:00 4.69167 C 90.5833 % 3.29 C
3559 20-09-2019 06:00:00 4.325 C 91.9167 % 3.13 C
3560 20-09-2019 07:00:00 4.125 C 93.0000 % 3.1 C
3561 20-09-2019 08:00:00 4.65 C 94.0000 % 3.77 C
3562 20-09-2019 09:00:00 5.625 C 94.5000 % 4.81 C
3563 20-09-2019 10:00:00 7.39167 C 94.0000 % 6.49 C
3564 20-09-2019 11:00:00 10 C 86.1667 % 7.8 C
3565 20-09-2019 12:00:00 13.41667 C 66.0000 % 7.2 C
3566 20-09-2019 13:00:00 15.83333 C 53.7500 % 6.48 C
3567 20-09-2019 14:00:00 17.63333 C 47.5000 % 6.35 C
3568 20-09-2019 15:00:00 18.525 C 43.5000 % 5.89 C
3569 20-09-2019 16:00:00 19.26667 C 42.3333 % 6.16 C
3570 20-09-2019 17:00:00 20.33333 C 39.8333 % 6.24 C
3571 20-09-2019 18:00:00 20.525 C 40.2500 % 6.56 C
3572 20-09-2019 19:00:00 15.85 C 52.5000 % 6.16 C
3573 20-09-2019 20:00:00 13.7 C 58.7500 % 5.78 C
3574 20-09-2019 21:00:00 11.68333 C 68.3333 % 6.05 C
3575 20-09-2019 22:00:00 9.525 C 76.5000 % 5.61 C
Sensor: Nr:Datum:Temp:Feuchte:Taupunkt:
Aussen-T/F 3576 20-09-2019 23:00:00 8.425 C 80.8333 % 5.33 C
3577 21-09-2019 00:00:00 7.44167 C 83.9167 % 4.91 C
3578 21-09-2019 01:00:00 6.85 C 85.3333 % 4.56 C
3579 21-09-2019 02:00:00 6.34167 C 86.1667 % 4.2 C
3580 21-09-2019 03:00:00 5.80833 C 87.4167 % 3.88 C
3581 21-09-2019 04:00:00 5.45833 C 89.0833 % 3.81 C
3582 21-09-2019 05:00:00 5.275 C 90.2500 % 3.81 C
3583 21-09-2019 06:00:00 4.80833 C 90.9167 % 3.45 C
3584 21-09-2019 07:00:00 4.60833 C 91.9167 % 3.41 C
3585 21-09-2019 08:00:00 4.725 C 93.0000 % 3.69 C
3586 21-09-2019 09:00:00 5.79167 C 93.9167 % 4.89 C
3587 21-09-2019 10:00:00 8.225 C 90.4167 % 6.75 C
3588 21-09-2019 11:00:00 11.40833 C 81.8333 % 8.42 C
3589 21-09-2019 12:00:00 14.95 C 67.2500 % 8.94 C
3590 21-09-2019 13:00:00 18.2 C 50.0833 % 7.64 C
3591 21-09-2019 14:00:00 21.43333 C 33.1667 % 4.58 C
3592 21-09-2019 15:00:00 22.63333 C 30.3333 % 4.35 C
3593 21-09-2019 16:00:00 23.23333 C 31.3333 % 5.33 C
3594 21-09-2019 17:00:00 24.65833 C 31.5833 % 6.68 C
3595 21-09-2019 18:00:00 22.74167 C 39.3333 % 8.21 C
3596 21-09-2019 19:00:00 18.49167 C 47.6667 % 7.18 C
3597 21-09-2019 20:00:00 16.16667 C 55.3333 % 7.22 C
3598 21-09-2019 21:00:00 13.66667 C 66.0000 % 7.44 C
3599 21-09-2019 22:00:00 11.99167 C 71.5000 % 7.01 C
3600 21-09-2019 23:00:00 10.88333 C 75.6667 % 6.76 C
Sensor: Nr:Datum:Temp:Feuchte:Taupunkt:
Aussen-T/F 3601 22-09-2019 00:00:00 9.825 C 79.9167 % 6.53 C
3602 22-09-2019 01:00:00 9.08333 C 83.4167 % 6.43 C
3603 22-09-2019 02:00:00 8.425 C 85.2500 % 6.1 C
3604 22-09-2019 03:00:00 7.96667 C 87.5833 % 6.04 C
3605 22-09-2019 04:00:00 7.39167 C 89.0000 % 5.7 C
3606 22-09-2019 05:00:00 7.06667 C 90.7500 % 5.66 C
3607 22-09-2019 06:00:00 6.99167 C 91.9167 % 5.77 C
3608 22-09-2019 07:00:00 6.93333 C 92.5000 % 5.8 C
3609 22-09-2019 08:00:00 7.55833 C 93.0000 % 6.5 C
3610 22-09-2019 09:00:00 8.63333 C 93.1667 % 7.59 C
3611 22-09-2019 10:00:00 11.05 C 91.5000 % 9.72 C
3612 22-09-2019 11:00:00 14.83333 C 79.8333 % 11.39 C
3613 22-09-2019 12:00:00 17.68333 C 72.9167 % 12.77 C
3614 22-09-2019 13:00:00 20.70833 C 64.5833 % 13.8 C
3615 22-09-2019 14:00:00 24.05 C 53.3333 % 13.98 C
3616 22-09-2019 15:00:00 24.85 C 49.7500 % 13.64 C
3617 22-09-2019 16:00:00 24.73333 C 54.0000 % 14.8 C
3618 22-09-2019 17:00:00 23.48333 C 59.5833 % 15.16 C
3619 22-09-2019 18:00:00 21.74167 C 64.0000 % 14.63 C
3620 22-09-2019 19:00:00 20.33333 C 65.0000 % 13.54 C
3621 22-09-2019 20:00:00 19.075 C 66.5833 % 12.71 C
3622 22-09-2019 21:00:00 18.175 C 68.6667 % 12.33 C
3623 22-09-2019 22:00:00 18.3 C 69.8333 % 12.7 C
3624 22-09-2019 23:00:00 17.80833 C 75.0833 % 13.34 C
3625 23-09-2019 00:00:00 17.55833 C 80.5000 % 14.17 C
Sensor: Nr:Datum:Temp:Feuchte:Taupunkt:
Aussen-T/F 3626 23-09-2019 01:00:00 18.375 C 81.5833 % 15.17 C
3627 23-09-2019 02:00:00 18.10833 C 79.0000 % 14.41 C
3628 23-09-2019 03:00:00 17.2 C 82.3333 % 14.16 C
3629 23-09-2019 04:00:00 16.05833 C 86.4167 % 13.79 C
3630 23-09-2019 05:00:00 15.14167 C 91.2500 % 13.73 C
3631 23-09-2019 06:00:00 14.43333 C 93.0833 % 13.33 C
3632 23-09-2019 07:00:00 14.23333 C 94.1667 % 13.31 C
3633 23-09-2019 08:00:00 14.25 C 95.0000 % 13.46 C
3634 23-09-2019 09:00:00 14.74167 C 95.8333 % 14.08 C
3635 23-09-2019 10:00:00 15.425 C 96.0000 % 14.79 C
3636 23-09-2019 11:00:00 16.26667 C 94.5000 % 15.38 C
3637 23-09-2019 12:00:00 17.06667 C 90.7500 % 15.54 C
3638 23-09-2019 13:00:00 18.2 C 81.5000 % 14.98 C
3639 23-09-2019 14:00:00 19.425 C 71.1667 % 14.07 C
3640 23-09-2019 15:00:00 19.61667 C 68.8333 % 13.74 C
3641 23-09-2019 16:00:00 19.94167 C 67.4167 % 13.73 C
3642 23-09-2019 17:00:00 20.24167 C 66.0000 % 13.69 C
3643 23-09-2019 18:00:00 18.46667 C 74.1667 % 13.78 C
3644 23-09-2019 19:00:00 16 C 81.9167 % 12.92 C
3645 23-09-2019 20:00:00 14.34167 C 87.2500 % 12.25 C
3646 23-09-2019 21:00:00 13.96667 C 90.1667 % 12.38 C
3647 23-09-2019 22:00:00 13.9 C 92.0000 % 12.62 C
3648 23-09-2019 23:00:00 14.11667 C 92.2500 % 12.88 C
3649 24-09-2019 00:00:00 14.33333 C 92.3333 % 13.11 C
3650 24-09-2019 01:00:00 13.95 C 91.5833 % 12.6 C
Sensor: Nr:Datum:Temp:Feuchte:Taupunkt:
Aussen-T/F 3651 24-09-2019 02:00:00 12.66667 C 92.5833 % 11.5 C
3652 24-09-2019 03:00:00 11.96667 C 93.8333 % 11.01 C
3653 24-09-2019 04:00:00 11.50833 C 94.5000 % 10.66 C
3654 24-09-2019 05:00:00 10.675 C 94.9167 % 9.89 C
3655 24-09-2019 06:00:00 10.25 C 95.3333 % 9.54 C
3656 24-09-2019 07:00:00 9.89167 C 95.8333 % 9.26 C
3657 24-09-2019 08:00:00 10.65 C 96.4167 % 10.1 C
3658 24-09-2019 09:00:00 11.35833 C 97.0000 % 10.9 C
3659 24-09-2019 10:00:00 12.49167 C 97.0000 % 12.03 C
3660 24-09-2019 11:00:00 14.48333 C 94.8333 % 13.67 C
3661 24-09-2019 12:00:00 17.53333 C 80.5000 % 14.14 C
3662 24-09-2019 13:00:00 18.59167 C 72.9167 % 13.64 C
3663 24-09-2019 14:00:00 19.21667 C 68.6667 % 13.32 C
3664 24-09-2019 15:00:00 18.63333 C 70.8333 % 13.24 C
3665 24-09-2019 16:00:00 17.70833 C 81.9167 % 14.58 C
3666 24-09-2019 17:00:00 16.95 C 89.8333 % 15.27 C
3667 24-09-2019 18:00:00 16.125 C 92.0833 % 14.84 C
3668 24-09-2019 19:00:00 15.1 C 93.0833 % 13.99 C
3669 24-09-2019 20:00:00 14.01667 C 94.1667 % 13.09 C
3670 24-09-2019 21:00:00 13.65 C 95.0000 % 12.86 C
3671 24-09-2019 22:00:00 13.64167 C 95.6667 % 12.96 C
3672 24-09-2019 23:00:00 13.775 C 96.0000 % 13.15 C
3673 25-09-2019 00:00:00 13.99167 C 96.0000 % 13.36 C
3674 25-09-2019 01:00:00 14.13333 C 96.3333 % 13.56 C
3675 25-09-2019 02:00:00 14.49167 C 96.0000 % 13.86 C
Sensor: Nr:Datum:Temp:Feuchte:Taupunkt:
Aussen-T/F 3676 25-09-2019 03:00:00 14.6 C 96.0000 % 13.97 C
3677 25-09-2019 04:00:00 14.55833 C 96.0000 % 13.93 C
3678 25-09-2019 05:00:00 14.01667 C 96.0000 % 13.39 C
3679 25-09-2019 06:00:00 13.64167 C 96.0000 % 13.02 C
3680 25-09-2019 07:00:00 13.61667 C 96.1667 % 13.02 C
3681 25-09-2019 08:00:00 13.75 C 96.9167 % 13.27 C
3682 25-09-2019 09:00:00 14.33333 C 97.0000 % 13.86 C
3683 25-09-2019 10:00:00 14.90833 C 94.3333 % 14.01 C
3684 25-09-2019 11:00:00 16.225 C 86.4167 % 13.96 C
3685 25-09-2019 12:00:00 16.875 C 80.5833 % 13.52 C
3686 25-09-2019 13:00:00 17.38333 C 77.4167 % 13.4 C
3687 25-09-2019 14:00:00 17.38333 C 78.1667 % 13.54 C
3688 25-09-2019 15:00:00 16.325 C 89.2500 % 14.55 C
3689 25-09-2019 16:00:00 17.08333 C 85.0000 % 14.54 C
3690 25-09-2019 17:00:00 17.53333 C 81.5833 % 14.35 C
3691 25-09-2019 18:00:00 16.775 C 83.4167 % 13.95 C
3692 25-09-2019 19:00:00 15.625 C 88.0000 % 13.65 C
3693 25-09-2019 20:00:00 15.10833 C 91.0833 % 13.66 C
3694 25-09-2019 21:00:00 14.71667 C 92.7500 % 13.56 C
3695 25-09-2019 22:00:00 14.7 C 93.7500 % 13.7 C
3696 25-09-2019 23:00:00 14.65833 C 95.0000 % 13.87 C
3697 26-09-2019 00:00:00 14.55833 C 95.0000 % 13.77 C
3698 26-09-2019 01:00:00 14.23333 C 95.2500 % 13.48 C
3699 26-09-2019 02:00:00 14.13333 C 96.0000 % 13.51 C
3700 26-09-2019 03:00:00 13.60833 C 95.9167 % 12.97 C
Sensor: Nr:Datum:Temp:Feuchte:Taupunkt:
Aussen-T/F 3701 26-09-2019 04:00:00 13.25833 C 96.1667 % 12.66 C
3702 26-09-2019 05:00:00 13.90833 C 96.7500 % 13.4 C
3703 26-09-2019 06:00:00 14.125 C 96.9167 % 13.64 C
3704 26-09-2019 07:00:00 14.35833 C 96.0000 % 13.73 C
3705 26-09-2019 08:00:00 14.74167 C 96.0000 % 14.11 C
3706 26-09-2019 09:00:00 15.10833 C 95.6667 % 14.42 C
3707 26-09-2019 10:00:00 15.86667 C 95.5000 % 15.15 C
3708 26-09-2019 11:00:00 16.59167 C 94.6667 % 15.73 C
3709 26-09-2019 12:00:00 17.61667 C 91.5833 % 16.23 C
3710 26-09-2019 13:00:00 17.775 C 91.7500 % 16.42 C
3711 26-09-2019 14:00:00 17.51667 C 92.7500 % 16.33 C
3712 26-09-2019 15:00:00 18.05833 C 91.6667 % 16.68 C
3713 26-09-2019 16:00:00 18.83333 C 88.7500 % 16.94 C
3714 26-09-2019 17:00:00 18.91667 C 87.5833 % 16.81 C
3715 26-09-2019 18:00:00 18.71667 C 88.8333 % 16.84 C
3716 26-09-2019 19:00:00 18.04167 C 90.8333 % 16.52 C
3717 26-09-2019 20:00:00 17.39167 C 89.7500 % 15.69 C
3718 26-09-2019 21:00:00 17.36667 C 89.0000 % 15.54 C
3719 26-09-2019 22:00:00 17.725 C 86.5833 % 15.46 C
3720 26-09-2019 23:00:00 17.81667 C 85.5000 % 15.35 C
3721 27-09-2019 00:00:00 17.98333 C 83.8333 % 15.21 C
3722 27-09-2019 01:00:00 18.05 C 82.3333 % 14.99 C
3723 27-09-2019 02:00:00 17.96667 C 82.0833 % 14.87 C
3724 27-09-2019 03:00:00 16.71667 C 90.0833 % 15.08 C
3725 27-09-2019 04:00:00 16.29167 C 92.5000 % 15.07 C
Sensor: Nr:Datum:Temp:Feuchte:Taupunkt:
Aussen-T/F 3726 27-09-2019 05:00:00 16.16667 C 93.0833 % 15.05 C
3727 27-09-2019 06:00:00 15.78333 C 94.2500 % 14.86 C
3728 27-09-2019 07:00:00 14.41667 C 94.6667 % 13.57 C
3729 27-09-2019 08:00:00 14.1 C 95.7500 % 13.43 C
3730 27-09-2019 09:00:00 13.99167 C 96.0000 % 13.36 C
3731 27-09-2019 10:00:00 14.69167 C 95.5000 % 13.98 C
3732 27-09-2019 11:00:00 15.35 C 92.8333 % 14.2 C
3733 27-09-2019 12:00:00 15.96667 C 89.0833 % 14.17 C
3734 27-09-2019 13:00:00 17.29167 C 81.1667 % 14.03 C
3735 27-09-2019 14:00:00 18.15833 C 75.9167 % 13.84 C
3736 27-09-2019 15:00:00 18.21667 C 75.7500 % 13.87 C
3737 27-09-2019 16:00:00 17.96667 C 76.9167 % 13.86 C
3738 27-09-2019 17:00:00 18.98333 C 72.3333 % 13.9 C
3739 27-09-2019 18:00:00 18.01667 C 75.0833 % 13.54 C
3740 27-09-2019 19:00:00 16.05833 C 82.2500 % 13.03 C
3741 27-09-2019 20:00:00 15.13333 C 87.9167 % 13.15 C
3742 27-09-2019 21:00:00 14.275 C 90.1667 % 12.69 C
3743 27-09-2019 22:00:00 13.83333 C 92.5000 % 12.64 C
3744 27-09-2019 23:00:00 13.5 C 93.8333 % 12.53 C
3745 28-09-2019 00:00:00 12.875 C 94.5833 % 12.03 C
3746 28-09-2019 01:00:00 12.90833 C 95.0833 % 12.14 C
3747 28-09-2019 02:00:00 14.21667 C 91.3333 % 12.82 C
3748 28-09-2019 03:00:00 14.825 C 89.3333 % 13.09 C
3749 28-09-2019 04:00:00 14.04167 C 92.3333 % 12.82 C
3750 28-09-2019 05:00:00 13.95 C 91.9167 % 12.66 C
Sensor: Nr:Datum:Temp:Feuchte:Taupunkt:
Aussen-T/F 3751 28-09-2019 06:00:00 14.4 C 90.6667 % 12.89 C
3752 28-09-2019 07:00:00 14.1 C 92.9167 % 12.97 C
3753 28-09-2019 08:00:00 13.89167 C 93.3333 % 12.83 C
3754 28-09-2019 09:00:00 14.35833 C 90.0833 % 12.75 C
3755 28-09-2019 10:00:00 15.4 C 85.3333 % 12.95 C
3756 28-09-2019 11:00:00 16.30833 C 80.3333 % 12.92 C
3757 28-09-2019 12:00:00 16.85 C 78.5833 % 13.11 C
3758 28-09-2019 13:00:00 17.21667 C 77.0833 % 13.17 C
3759 28-09-2019 14:00:00 17.49167 C 76.5000 % </